[[{"header":{"parameterUnit":"m.s-1","parameterCategory":1,"la1":31.0,"la2":29.5877,"lo1":-88.7671,"lo2":-86.6584,"dx":0.0162,"dy":0.0185,"nx":115,"ny":88,"refTime":"2022-12-28T06:00:00:Z","depth":0,"parameterNumber":2,"parameterNumberName":"U-component_of_WINDS"},"data":[0.0,0.0,0.0,0.0,0.0,0.0,0.0,0.0,0.0,0.0,0.0,0.0,0.0,0.0,0.0,0.0,0.0,0.0,0.0,0.0,0.0,0.0,0.0,0.0,0.0,0.0,0.0,0.0,0.0,0.0,0.0,0.0,0.0,0.0,0.0,0.0,0.0,0.0,0.0,0.0,0.0,0.0,0.0,0.0,0.0,0.0,0.0,0.0,0.0,0.0,0.0,0.0,0.0,0.0,0.0,0.0,0.0,0.0,0.0,0.0,0.0,0.0,0.0,0.0,0.0,0.0,0.0,0.0,0.0,0.0,0.0,0.0,0.0,0.0,0.0,0.0,0.0,0.0,0.0,0.0,0.0,0.0,0.0,0.0,0.0,0.0,0.0,0.0,0.0,0.0,0.0,0.0,0.0,0.0,0.0,0.0,0.0,0.0,0.0,0.0,0.0,0.0,0.0,0.0,0.0,0.0,0.0,0.0,0.0,0.0,0.0,0.0,0.0,0.0,0.0,0.0,0.0,0.0,0.0,0.0,0.0,0.0,0.0,0.0,0.0,0.0,0.0,0.0,0.0,0.0,0.0,0.0,0.0,0.0,0.0,0.0,0.0,0.0,0.0,0.0,0.0,0.0,0.0,0.0,0.0,0.0,0.0,0.0,0.0,0.0,0.0,0.0,0.0,0.0,0.0,0.0,0.0,0.0,0.0,0.0,0.0,0.0,0.0,0.0,0.0,0.0,0.0,0.0,0.0,0.0,0.0,0.0,0.0,0.0,0.0,0.0,0.0,0.0,0.0,0.0,0.0,0.0,0.0,0.0,0.0,0.0,0.0,0.0,0.0,0.0,0.0,0.0,0.0,0.0,0.0,0.0,0.0,0.0,0.0,0.0,0.0,0.0,0.0,0.0,0.0,0.0,0.0,0.0,0.0,0.0,0.0,0.0,0.0,0.0,0.0,0.0,0.0,0.0,0.0,0.0,0.0,0.0,0.0,0.0,0.0,0.0,0.0,0.0,0.0,0.0,0.0,0.0,0.0,0.0,0.0,0.0,0.0,0.0,0.0,0.0,0.0,0.0,0.0,0.0,0.0,0.0,0.0,0.0,0.0,0.0,0.0,0.0,0.0,0.0,0.0,0.0,0.0,0.0,0.0,0.0,0.0,0.0,0.0,0.0,0.0,0.0,0.0,0.0,0.0,0.0,0.0,0.0,0.0,0.0,0.0,0.0,0.0,0.0,0.0,0.0,0.0,0.0,0.0,0.0,0.0,0.0,0.0,0.0,0.0,0.0,0.0,0.0,0.0,0.0,0.0,0.0,0.0,0.0,0.0,0.0,0.0,0.0,0.0,0.0,0.0,0.0,0.0,0.0,0.0,0.0,0.0,0.0,0.0,0.0,0.0,0.0,0.0,0.0,0.0,0.0,0.0,0.0,0.0,0.0,0.0,0.0,0.0,0.0,0.0,0.0,0.0,0.0,0.0,0.0,0.0,0.0,0.0,0.0,0.0,0.0,0.0,0.0,0.0,0.0,0.0,0.0,0.0,0.0,0.0,0.0,0.0,0.0,0.0,0.0,0.0,0.0,0.0,0.0,0.0,0.0,0.0,0.0,0.0,0.0,0.0,0.0,0.0,0.0,0.0,0.0,0.0,0.0,0.0,0.0,0.0,0.0,0.0,0.0,0.0,0.0,0.0,0.0,0.0,0.0,0.0,0.0,0.0,0.0,0.0,0.0,0.0,0.0,0.0,0.0,0.0,0.0,0.0,0.0,0.0,0.0,0.0,0.0,0.0,0.0,0.0,0.0,0.0,0.0,0.0,0.0,0.0,0.0,0.0,0.0,0.0,0.0,0.0,0.0,0.0,0.0,0.0,0.0,0.0,0.0,0.0,0.0,0.0,0.0,0.0,0.0,0.0,0.0,0.0,0.0,0.0,0.0,0.0,0.0,0.0,0.0,0.0,0.0,0.0,0.0,0.0,0.0,0.0,0.0,0.0,0.0,0.0,0.0,0.0,0.0,0.0,0.0,0.0,0.0,0.0,0.0,0.0,0.0,0.0,0.0,0.0,0.0,0.0,0.0,0.0,0.0,0.0,0.0,0.0,0.0,0.0,0.0,0.0,0.0,0.0,0.0,0.0,0.0,0.0,0.0,0.0,0.0,0.0,0.0,0.0,0.0,0.0,0.0,0.0,0.0,0.0,0.0,0.0,0.0,0.0,0.0,0.0,0.0,0.0,0.0,0.0,0.0,0.0,0.0,0.0,0.0,0.0,0.0,0.0,0.0,0.0,0.0,0.0,0.0,0.0,0.0,0.0,0.0,0.0,0.0,0.0,0.0,0.0,0.0,0.0,0.0,0.0,0.0,0.0,0.0,0.0,0.0,0.0,0.0,0.0,0.0,0.0,0.0,0.0,0.0,0.0,0.0,0.0,0.0,0.0,0.0,0.0,0.0,0.0,0.0,0.0,0.0,0.0,0.0,0.0,0.0,0.0,0.0,0.0,0.0,0.0,0.0,0.0,0.0,0.0,0.0,0.0,0.0,0.0,0.0,0.0,0.0,0.0,0.0,0.0,0.0,0.0,0.0,0.0,0.0,0.0,0.0,0.0,0.0,0.0,0.0,0.0,0.0,0.0,0.0,0.0,0.0,0.0,0.0,0.0,0.0,0.0,0.0,0.0,0.0,0.0,0.0,0.0,0.0,0.0,0.0,0.0,0.0,0.0,0.0,0.0,0.0,0.0,0.0,0.0,0.0,0.0,0.0,0.0,0.0,0.0,0.0,0.0,0.0,0.0,0.0,0.0,0.0,0.0,0.0,0.0,0.0,0.0,0.0,0.0,0.0,0.0,0.0,0.0,0.0,0.0,0.0,0.0,0.0,0.0,0.0,0.0,0.0,0.0,0.0,0.0,0.0,0.0,0.0,0.0,0.0,0.0,0.0,0.0,0.0,0.0,0.0,0.0,0.0,0.0,0.0,0.0,0.0,0.0,0.0,0.0,0.0,0.0,0.0,0.0,0.0,0.0,0.0,0.0,0.0,0.0,0.0,0.0,0.0,0.0,0.0,0.0,0.0,0.0,0.0,0.0,0.0,0.0,0.0,0.0,0.0,0.0,0.0,0.0,0.0,0.0,0.0,0.0,0.0,0.0,0.0,0.0,0.0,0.0,0.0,0.0,0.0,0.0,0.0,0.0,0.0,0.0,0.0,0.0,0.0,0.0,0.0,0.0,0.0,0.0,0.0,0.0,0.0,0.0,0.0,0.0,0.0,0.0,0.0,0.0,0.0,0.0,0.0,0.0,0.0,0.0,0.0,0.0,0.0,0.0,0.0,0.0,0.0,0.0,0.0,0.0,0.0,0.0,0.0,0.0,0.0,0.0,0.0,0.0,0.0,0.0,0.0,0.0,0.0,0.0,0.0,0.0,0.0,0.0,0.0,0.0,0.0,0.0,0.0,0.0,0.0,0.0,0.0,0.0,0.0,0.0,0.0,0.0,0.0,0.0,0.0,0.0,0.0,0.0,0.0,0.0,0.0,0.0,0.0,0.0,0.0,0.0,0.0,0.0,0.0,0.0,0.0,0.0,0.0,0.0,0.0,0.0,0.0,0.0,0.0,0.0,0.0,0.0,0.0,0.0,0.0,0.0,0.0,0.0,0.0,0.0,0.0,0.0,0.0,0.0,0.0,0.0,0.0,0.0,0.0,0.0,0.0,0.0,0.0,0.0,0.0,0.0,0.0,0.0,0.0,0.0,0.0,0.0,0.0,0.0,0.0,0.0,0.0,0.0,0.0,0.0,0.0,0.0,0.0,0.0,0.0,0.0,0.0,0.0,0.0,0.0,0.0,0.0,0.0,0.0,0.0,0.0,0.0,0.0,0.0,0.0,0.0,0.0,0.0,0.0,0.0,0.0,0.0,0.0,0.0,0.0,0.0,0.0,0.0,0.0,0.0,0.0,0.0,0.0,0.0,0.0,0.0,0.0,0.0,0.0,0.0,0.0,0.0,0.0,0.0,0.0,0.0,0.0,0.0,0.0,0.0,0.0,0.0,0.0,0.0,0.0,0.0,0.0,0.0,0.0,0.0,0.0,0.0,0.0,0.0,0.0,0.0,0.0,0.0,0.0,0.0,0.0,0.0,0.0,0.0,0.0,0.0,0.0,0.0,0.0,0.0,0.0,0.0,0.0,0.0,0.0,0.0,0.0,0.0,0.0,0.0,0.0,0.0,0.0,0.0,0.0,0.0,0.0,0.0,0.0,0.0,0.0,0.0,-1.9243,0.0,0.0,0.0,-1.7961,0.0,0.0,0.0,0.0,0.0,0.0,0.0,0.0,0.0,0.0,0.0,0.0,0.0,0.0,0.0,0.0,0.0,0.0,0.0,0.0,0.0,0.0,0.0,0.0,0.0,0.0,0.0,0.0,0.0,0.0,0.0,0.0,0.0,0.0,0.0,0.0,0.0,0.0,0.0,0.0,0.0,0.0,0.0,0.0,0.0,0.0,0.0,0.0,0.0,0.0,0.0,0.0,0.0,0.0,0.0,0.0,0.0,0.0,0.0,0.0,0.0,0.0,0.0,0.0,0.0,0.0,0.0,0.0,0.0,0.0,0.0,0.0,0.0,0.0,0.0,0.0,0.0,0.0,0.0,0.0,0.0,0.0,0.0,0.0,0.0,0.0,0.0,0.0,0.0,0.0,0.0,0.0,0.0,0.0,0.0,0.0,0.0,0.0,0.0,0.0,0.0,0.0,0.0,0.0,0.0,0.0,0.0,0.0,0.0,0.0,-1.9224,-1.9282,-1.9287,-1.9138,-1.8738,0.0,0.0,0.0,0.0,0.0,0.0,0.0,0.0,0.0,0.0,0.0,0.0,0.0,0.0,0.0,0.0,0.0,0.0,0.0,0.0,0.0,0.0,0.0,0.0,0.0,0.0,0.0,0.0,0.0,0.0,0.0,0.0,0.0,0.0,0.0,0.0,0.0,0.0,0.0,0.0,0.0,0.0,0.0,0.0,0.0,0.0,0.0,0.0,0.0,0.0,0.0,0.0,0.0,0.0,0.0,0.0,0.0,0.0,0.0,0.0,0.0,0.0,0.0,0.0,0.0,0.0,0.0,0.0,0.0,0.0,0.0,0.0,0.0,0.0,0.0,0.0,0.0,0.0,0.0,0.0,0.0,0.0,0.0,0.0,0.0,0.0,0.0,0.0,0.0,0.0,0.0,0.0,0.0,0.0,0.0,0.0,0.0,0.0,0.0,0.0,0.0,0.0,0.0,0.0,0.0,0.0,0.0,0.0,0.0,0.0,0.0,0.0,-1.9551,-1.935,-1.8951,0.0,0.0,0.0,0.0,0.0,0.0,0.0,0.0,0.0,0.0,0.0,0.0,0.0,0.0,0.0,0.0,0.0,0.0,0.0,0.0,0.0,0.0,0.0,0.0,0.0,0.0,0.0,0.0,0.0,0.0,0.0,0.0,0.0,0.0,0.0,0.0,0.0,0.0,0.0,0.0,0.0,0.0,0.0,0.0,0.0,0.0,0.0,0.0,0.0,0.0,0.0,0.0,0.0,0.0,0.0,0.0,0.0,0.0,0.0,0.0,0.0,0.0,0.0,0.0,0.0,0.0,0.0,0.0,0.0,0.0,0.0,0.0,0.0,0.0,0.0,0.0,0.0,0.0,0.0,0.0,0.0,0.0,0.0,0.0,0.0,0.0,0.0,0.0,0.0,0.0,0.0,0.0,0.0,0.0,0.0,0.0,0.0,0.0,0.0,0.0,0.0,0.0,0.0,0.0,0.0,0.0,0.0,0.0,0.0,0.0,-2.0129,-2.0209,-2.0261,0.0,-1.8104,0.0,0.0,0.0,0.0,0.0,0.0,0.0,0.0,0.0,0.0,0.0,0.0,0.0,0.0,0.0,0.0,0.0,0.0,0.0,0.0,0.0,0.0,0.0,0.0,0.0,0.0,0.0,0.0,0.0,0.0,0.0,0.0,0.0,0.0,0.0,0.0,0.0,0.0,0.0,0.0,0.0,0.0,0.0,0.0,0.0,0.0,0.0,0.0,0.0,0.0,0.0,0.0,0.0,0.0,0.0,0.0,0.0,0.0,0.0,0.0,0.0,0.0,0.0,0.0,0.0,0.0,0.0,0.0,0.0,0.0,0.0,0.0,0.0,0.0,0.0,0.0,0.0,0.0,0.0,0.0,0.0,0.0,0.0,0.0,0.0,0.0,0.0,0.0,0.0,0.0,0.0,0.0,0.0,0.0,0.0,0.0,0.0,0.0,0.0,0.0,0.0,0.0,0.0,0.0,0.0,0.0,0.0,0.0,0.0,0.0,-2.081,-2.0934,-2.0545,-1.9783,0.0,0.0,0.0,0.0,0.0,0.0,0.0,0.0,0.0,0.0,0.0,0.0,0.0,0.0,0.0,0.0,0.0,0.0,0.0,0.0,0.0,0.0,0.0,0.0,0.0,0.0,0.0,0.0,0.0,0.0,0.0,0.0,0.0,0.0,0.0,0.0,0.0,0.0,0.0,0.0,0.0,0.0,0.0,0.0,0.0,0.0,0.0,0.0,0.0,0.0,0.0,0.0,0.0,0.0,0.0,0.0,0.0,0.0,0.0,0.0,0.0,0.0,0.0,0.0,0.0,0.0,0.0,0.0,0.0,0.0,0.0,0.0,0.0,0.0,0.0,0.0,0.0,0.0,0.0,0.0,0.0,0.0,0.0,0.0,0.0,0.0,0.0,0.0,0.0,0.0,0.0,0.0,0.0,0.0,0.0,0.0,0.0,0.0,0.0,0.0,0.0,0.0,0.0,0.0,0.0,0.0,0.0,0.0,0.0,0.0,-2.0997,-2.1757,-2.191,-2.1426,-2.056,-1.9291,0.0,0.0,0.0,0.0,0.0,0.0,0.0,0.0,0.0,0.0,0.0,0.0,0.0,0.0,0.0,0.0,0.0,0.0,0.0,0.0,0.0,0.0,0.0,0.0,0.0,0.0,0.0,0.0,0.0,0.0,0.0,0.0,0.0,0.0,0.0,0.0,0.0,0.0,0.0,0.0,0.0,0.0,0.0,0.0,0.0,0.0,0.0,0.0,0.0,0.0,0.0,0.0,0.0,0.0,0.0,0.0,0.0,0.0,0.0,0.0,0.0,0.0,0.0,0.0,0.0,0.0,0.0,0.0,0.0,0.0,0.0,0.0,0.0,0.0,0.0,0.0,0.0,0.0,0.0,0.0,0.0,0.0,0.0,0.0,0.0,0.0,0.0,0.0,0.0,0.0,0.0,0.0,0.0,0.0,0.0,0.0,0.0,0.0,0.0,0.0,0.0,0.0,0.0,0.0,0.0,0.0,0.0,0.0,-1.9696,-2.1919,-2.3177,-2.3315,-2.3262,-2.2199,0.0,0.0,0.0,0.0,0.0,0.0,0.0,0.0,0.0,0.0,0.0,0.0,0.0,0.0,0.0,0.0,0.0,0.0,0.0,0.0,0.0,0.0,0.0,0.0,0.0,0.0,0.0,0.0,0.0,0.0,0.0,0.0,0.0,0.0,0.0,0.0,0.0,0.0,0.0,0.0,0.0,0.0,0.0,0.0,0.0,0.0,0.0,0.0,0.0,0.0,0.0,0.0,0.0,0.0,0.0,0.0,0.0,0.0,0.0,0.0,0.0,0.0,0.0,0.0,0.0,0.0,0.0,0.0,0.0,0.0,0.0,0.0,0.0,0.0,0.0,0.0,0.0,0.0,0.0,0.0,0.0,0.0,0.0,0.0,0.0,0.0,0.0,0.0,0.0,0.0,0.0,0.0,0.0,0.0,0.0,0.0,0.0,0.0,0.0,0.0,0.0,0.0,0.0,0.0,0.0,0.0,0.0,0.0,0.0,-2.1016,-2.3375,-2.4702,-2.4731,-2.3784,-2.2605,0.0,0.0,0.0,0.0,0.0,0.0,0.0,0.0,0.0,0.0,0.0,0.0,0.0,0.0,0.0,0.0,0.0,0.0,0.0,0.0,0.0,0.0,0.0,0.0,0.0,0.0,0.0,0.0,0.0,0.0,0.0,0.0,0.0,0.0,0.0,0.0,0.0,0.0,0.0,0.0,0.0,0.0,0.0,0.0,0.0,0.0,0.0,0.0,0.0,0.0,0.0,0.0,0.0,0.0,0.0,0.0,0.0,0.0,0.0,0.0,0.0,0.0,0.0,0.0,0.0,0.0,0.0,0.0,0.0,0.0,0.0,0.0,0.0,0.0,0.0,0.0,0.0,0.0,0.0,0.0,0.0,0.0,0.0,0.0,0.0,0.0,0.0,0.0,0.0,0.0,0.0,0.0,0.0,0.0,0.0,0.0,0.0,0.0,0.0,0.0,0.0,0.0,0.0,0.0,0.0,0.0,0.0,0.0,0.0,-2.2725,-2.4683,-2.574,-2.5701,-2.4489,-2.321,0.0,0.0,0.0,0.0,0.0,0.0,0.0,0.0,0.0,0.0,0.0,0.0,0.0,0.0,0.0,0.0,0.0,0.0,0.0,0.0,0.0,0.0,0.0,0.0,0.0,0.0,0.0,0.0,0.0,0.0,0.0,0.0,0.0,0.0,0.0,0.0,0.0,0.0,0.0,0.0,0.0,0.0,0.0,0.0,0.0,0.0,0.0,0.0,0.0,0.0,0.0,0.0,0.0,0.0,0.0,0.0,0.0,0.0,0.0,0.0,0.0,0.0,0.0,0.0,0.0,0.0,0.0,0.0,0.0,0.0,0.0,0.0,0.0,0.0,0.0,0.0,0.0,0.0,0.0,0.0,0.0,0.0,0.0,0.0,0.0,0.0,0.0,0.0,0.0,0.0,0.0,0.0,0.0,0.0,0.0,0.0,0.0,0.0,0.0,0.0,0.0,0.0,0.0,0.0,0.0,0.0,0.0,0.0,-2.1767,-2.4734,-2.5742,-2.6232,-2.6199,-2.5429,-2.4025,0.0,0.0,0.0,0.0,0.0,0.0,0.0,0.0,0.0,0.0,0.0,0.0,0.0,0.0,0.0,0.0,0.0,0.0,0.0,0.0,0.0,0.0,0.0,0.0,0.0,0.0,0.0,0.0,0.0,0.0,0.0,0.0,0.0,0.0,0.0,0.0,0.0,0.0,0.0,0.0,0.0,0.0,0.0,0.0,0.0,0.0,0.0,0.0,0.0,0.0,0.0,0.0,0.0,0.0,0.0,0.0,0.0,0.0,0.0,0.0,0.0,0.0,0.0,0.0,0.0,0.0,0.0,0.0,0.0,0.0,0.0,0.0,0.0,0.0,0.0,0.0,0.0,0.0,0.0,0.0,0.0,0.0,0.0,0.0,0.0,0.0,0.0,0.0,0.0,0.0,0.0,0.0,0.0,0.0,0.0,0.0,0.0,0.0,0.0,0.0,0.0,0.0,0.0,0.0,0.0,0.0,0.0,0.0,0.0,-2.5552,-2.6336,-2.6745,-2.671,-2.5491,-2.427,0.0,0.0,0.0,0.0,0.0,0.0,0.0,0.0,0.0,0.0,0.0,0.0,0.0,0.0,0.0,0.0,0.0,0.0,0.0,0.0,0.0,0.0,0.0,0.0,0.0,0.0,0.0,0.0,0.0,0.0,0.0,0.0,0.0,0.0,0.0,0.0,0.0,0.0,0.0,0.0,0.0,0.0,0.0,0.0,0.0,0.0,0.0,0.0,0.0,0.0,0.0,0.0,0.0,0.0,0.0,0.0,0.0,0.0,0.0,0.0,0.0,0.0,0.0,0.0,0.0,0.0,0.0,0.0,0.0,0.0,0.0,0.0,0.0,0.0,0.0,0.0,0.0,0.0,0.0,0.0,0.0,0.0,0.0,0.0,0.0,0.0,0.0,0.0,0.0,0.0,0.0,0.0,0.0,0.0,0.0,0.0,0.0,0.0,0.0,0.0,0.0,0.0,0.0,0.0,0.0,0.0,0.0,0.0,0.0,-2.657,-2.7113,-2.7384,-2.7367,-2.6174,-2.4912,-2.3582,0.0,0.0,0.0,0.0,0.0,0.0,0.0,0.0,0.0,0.0,0.0,0.0,0.0,0.0,0.0,0.0,0.0,0.0,0.0,0.0,0.0,0.0,0.0,0.0,0.0,0.0,0.0,0.0,0.0,0.0,0.0,0.0,0.0,0.0,0.0,0.0,0.0,0.0,0.0,0.0,0.0,0.0,0.0,0.0,0.0,0.0,0.0,0.0,0.0,0.0,0.0,0.0,0.0,0.0,0.0,0.0,0.0,0.0,0.0,0.0,0.0,0.0,0.0,0.0,0.0,0.0,0.0,0.0,0.0,0.0,0.0,0.0,0.0,0.0,0.0,0.0,0.0,0.0,0.0,0.0,0.0,0.0,0.0,0.0,0.0,0.0,0.0,0.0,0.0,0.0,0.0,0.0,0.0,0.0,0.0,0.0,0.0,0.0,0.0,0.0,0.0,0.0,0.0,0.0,0.0,0.0,0.0,0.0,-2.7858,-2.803,-2.8066,-2.7981,-2.725,-2.5856,0.0,0.0,0.0,0.0,0.0,0.0,0.0,0.0,0.0,0.0,0.0,0.0,0.0,0.0,0.0,0.0,0.0,0.0,0.0,0.0,0.0,0.0,0.0,0.0,0.0,0.0,0.0,0.0,0.0,0.0,0.0,0.0,0.0,0.0,0.0,0.0,0.0,0.0,0.0,0.0,0.0,0.0,0.0,0.0,0.0,0.0,0.0,0.0,0.0,0.0,0.0,0.0,0.0,0.0,0.0,0.0,0.0,0.0,0.0,0.0,0.0,0.0,0.0,0.0,0.0,0.0,0.0,0.0,0.0,0.0,0.0,0.0,0.0,0.0,0.0,0.0,0.0,0.0,0.0,0.0,0.0,0.0,0.0,0.0,0.0,0.0,0.0,0.0,0.0,0.0,0.0,0.0,0.0,0.0,0.0,0.0,0.0,0.0,0.0,0.0,0.0,0.0,0.0,0.0,0.0,0.0,0.0,0.0,0.0,-2.8619,-2.9247,-2.9011,-2.7893,-2.7148,-2.5979,0.0,0.0,0.0,0.0,0.0,0.0,0.0,0.0,0.0,0.0,0.0,0.0,0.0,0.0,0.0,0.0,0.0,0.0,0.0,0.0,0.0,0.0,0.0,0.0,0.0,0.0,0.0,0.0,0.0,0.0,0.0,0.0,0.0,0.0,0.0,0.0,0.0,0.0,0.0,0.0,0.0,0.0,0.0,0.0,0.0,0.0,0.0,0.0,0.0,0.0,0.0,0.0,0.0,0.0,0.0,0.0,0.0,0.0,0.0,0.0,0.0,0.0,0.0,0.0,0.0,0.0,0.0,0.0,0.0,0.0,0.0,0.0,0.0,0.0,0.0,0.0,0.0,0.0,0.0,0.0,0.0,0.0,0.0,0.0,0.0,0.0,0.0,0.0,0.0,0.0,0.0,0.0,0.0,0.0,0.0,0.0,0.0,0.0,0.0,0.0,0.0,0.0,0.0,0.0,0.0,0.0,0.0,0.0,-2.7909,-2.9414,-3.0192,-3.0006,-2.8787,-2.8044,-2.681,0.0,0.0,0.0,0.0,0.0,0.0,0.0,0.0,0.0,0.0,0.0,0.0,0.0,0.0,0.0,0.0,0.0,0.0,0.0,0.0,0.0,0.0,0.0,0.0,0.0,0.0,0.0,0.0,0.0,0.0,0.0,0.0,0.0,0.0,0.0,0.0,0.0,0.0,0.0,0.0,0.0,0.0,0.0,0.0,0.0,0.0,0.0,0.0,0.0,0.0,0.0,0.0,0.0,0.0,0.0,0.0,0.0,0.0,0.0,0.0,0.0,0.0,0.0,0.0,0.0,0.0,0.0,0.0,0.0,0.0,0.0,0.0,0.0,0.0,0.0,0.0,0.0,0.0,0.0,0.0,0.0,0.0,0.0,0.0,0.0,0.0,0.0,0.0,0.0,0.0,0.0,0.0,0.0,0.0,0.0,0.0,0.0,0.0,0.0,0.0,0.0,0.0,0.0,0.0,0.0,0.0,0.0,0.0,-2.8618,-3.0074,-3.0818,-3.0869,-3.0243,-2.9414,-2.7927,0.0,0.0,0.0,0.0,0.0,0.0,0.0,0.0,0.0,0.0,0.0,0.0,0.0,0.0,0.0,0.0,0.0,0.0,0.0,0.0,0.0,0.0,0.0,0.0,0.0,0.0,0.0,0.0,0.0,0.0,0.0,0.0,0.0,0.0,0.0,0.0,0.0,0.0,0.0,0.0,0.0,0.0,0.0,0.0,0.0,0.0,0.0,0.0,0.0,0.0,0.0,0.0,0.0,0.0,0.0,0.0,0.0,0.0,0.0,0.0,0.0,0.0,0.0,0.0,0.0,0.0,0.0,0.0,0.0,0.0,0.0,0.0,0.0,0.0,0.0,0.0,0.0,0.0,0.0,0.0,0.0,0.0,0.0,0.0,0.0,0.0,0.0,0.0,0.0,0.0,0.0,0.0,0.0,0.0,0.0,0.0,0.0,0.0,0.0,0.0,0.0,0.0,0.0,0.0,0.0,0.0,0.0,0.0,-2.9178,-3.0091,-3.0818,-3.1123,-3.097,-2.9687,-2.7943,0.0,0.0,0.0,0.0,0.0,0.0,0.0,0.0,0.0,0.0,0.0,0.0,0.0,0.0,0.0,0.0,0.0,0.0,0.0,0.0,0.0,0.0,0.0,0.0,0.0,0.0,0.0,0.0,0.0,0.0,0.0,0.0,0.0,0.0,0.0,0.0,0.0,0.0,0.0,0.0,0.0,0.0,0.0,0.0,0.0,0.0,0.0,0.0,-1.8128,0.0,0.0,0.0,0.0,0.0,0.0,0.0,0.0,0.0,0.0,0.0,0.0,0.0,0.0,0.0,0.0,0.0,0.0,0.0,0.0,0.0,0.0,0.0,0.0,0.0,0.0,0.0,0.0,0.0,0.0,0.0,0.0,0.0,0.0,0.0,0.0,0.0,0.0,0.0,0.0,0.0,0.0,0.0,0.0,0.0,0.0,0.0,0.0,0.0,0.0,0.0,0.0,0.0,0.0,0.0,0.0,0.0,0.0,0.0,-2.9534,-3.0581,-3.0987,-3.119,-3.114,-2.9771,-2.8096,0.0,0.0,0.0,0.0,0.0,0.0,0.0,0.0,0.0,0.0,0.0,0.0,0.0,0.0,0.0,0.0,0.0,0.0,0.0,0.0,0.0,0.0,0.0,0.0,0.0,0.0,0.0,0.0,0.0,0.0,0.0,0.0,0.0,0.0,0.0,0.0,0.0,0.0,0.0,0.0,0.0,0.0,0.0,0.0,0.0,0.0,0.0,0.0,0.0,0.0,0.0,0.0,0.0,0.0,0.0,0.0,0.0,0.0,0.0,0.0,0.0,0.0,0.0,0.0,0.0,0.0,0.0,0.0,0.0,0.0,0.0,0.0,0.0,0.0,0.0,0.0,0.0,0.0,0.0,0.0,0.0,0.0,0.0,0.0,0.0,0.0,0.0,0.0,0.0,0.0,0.0,0.0,0.0,0.0,0.0,0.0,0.0,0.0,0.0,0.0,0.0,0.0,0.0,0.0,0.0,0.0,0.0,-2.8366,-2.989,-3.1312,-3.1478,-3.1478,-3.1343,-2.9922,-2.8451,-2.6877,0.0,0.0,0.0,0.0,0.0,0.0,0.0,0.0,0.0,0.0,0.0,0.0,0.0,0.0,0.0,0.0,0.0,0.0,0.0,0.0,0.0,0.0,0.0,0.0,0.0,0.0,0.0,0.0,0.0,0.0,0.0,0.0,0.0,0.0,0.0,0.0,0.0,0.0,-1.6368,-1.892,0.0,0.0,0.0,0.0,0.0,0.0,0.0,0.0,-2.1073,0.0,0.0,0.0,0.0,0.0,0.0,0.0,0.0,0.0,0.0,0.0,0.0,0.0,0.0,0.0,0.0,0.0,0.0,0.0,0.0,0.0,0.0,0.0,0.0,0.0,0.0,0.0,0.0,0.0,0.0,0.0,0.0,0.0,0.0,0.0,0.0,0.0,0.0,0.0,0.0,0.0,0.0,0.0,0.0,0.0,0.0,0.0,0.0,0.0,0.0,0.0,0.0,0.0,0.0,0.0,0.0,-2.7604,-2.9125,-3.0632,-3.2073,-3.2713,-3.2747,-3.2107,-3.0683,-2.9211,-2.7587,0.0,0.0,0.0,0.0,0.0,0.0,0.0,0.0,0.0,0.0,0.0,0.0,0.0,0.0,0.0,0.0,0.0,0.0,0.0,0.0,0.0,0.0,0.0,0.0,0.0,0.0,0.0,0.0,0.0,0.0,0.0,0.0,0.0,0.0,0.0,0.0,0.0,0.0,0.0,-2.0956,-2.1941,0.0,0.0,0.0,0.0,0.0,0.0,0.0,0.0,-2.1574,0.0,0.0,0.0,0.0,0.0,0.0,0.0,0.0,0.0,0.0,0.0,0.0,0.0,0.0,0.0,0.0,0.0,0.0,0.0,0.0,0.0,0.0,0.0,0.0,0.0,0.0,0.0,0.0,0.0,0.0,0.0,0.0,0.0,0.0,0.0,0.0,0.0,0.0,0.0,0.0,0.0,0.0,0.0,0.0,0.0,0.0,0.0,0.0,0.0,0.0,0.0,0.0,0.0,0.0,0.0,-2.7756,-2.9685,-3.119,-3.2276,-3.3017,-3.3051,-3.231,-3.1224,-2.9768,0.0,0.0,0.0,0.0,0.0,0.0,0.0,0.0,0.0,0.0,0.0,0.0,0.0,0.0,0.0,0.0,0.0,0.0,0.0,0.0,0.0,0.0,0.0,0.0,0.0,0.0,0.0,0.0,0.0,0.0,0.0,0.0,0.0,0.0,0.0,0.0,0.0,0.0,0.0,0.0,-2.2099,-2.3183,-2.3407,0.0,0.0,0.0,0.0,0.0,0.0,-2.3415,-2.2853,0.0,0.0,0.0,0.0,0.0,0.0,0.0,0.0,0.0,0.0,0.0,0.0,0.0,0.0,0.0,0.0,0.0,0.0,0.0,0.0,0.0,0.0,0.0,0.0,0.0,0.0,0.0,0.0,0.0,0.0,0.0,0.0,0.0,0.0,0.0,0.0,0.0,0.0,0.0,0.0,0.0,0.0,0.0,0.0,0.0,0.0,0.0,0.0,0.0,0.0,0.0,0.0,0.0,0.0,0.0,-2.8194,-3.0306,-3.181,-3.2651,-3.341,-3.3427,-3.2684,-3.1823,-3.0372,0.0,0.0,0.0,0.0,0.0,0.0,0.0,0.0,0.0,0.0,0.0,0.0,0.0,0.0,0.0,0.0,0.0,0.0,0.0,0.0,0.0,0.0,0.0,0.0,0.0,0.0,0.0,0.0,0.0,0.0,0.0,0.0,0.0,0.0,0.0,0.0,0.0,0.0,0.0,0.0,0.0,-2.4235,-2.486,-2.5332,0.0,0.0,0.0,0.0,-2.563,-2.4799,0.0,0.0,0.0,0.0,0.0,0.0,0.0,0.0,0.0,0.0,0.0,0.0,0.0,0.0,0.0,0.0,0.0,0.0,0.0,0.0,0.0,0.0,0.0,0.0,0.0,0.0,0.0,0.0,0.0,0.0,0.0,0.0,0.0,0.0,0.0,0.0,0.0,0.0,0.0,0.0,0.0,0.0,0.0,0.0,0.0,0.0,0.0,0.0,0.0,0.0,0.0,0.0,0.0,0.0,0.0,0.0,-2.9599,-3.1197,-3.2652,-3.3924,-3.4678,-3.4734,-3.3974,-3.2638,-3.1204,0.0,0.0,0.0,0.0,0.0,0.0,0.0,0.0,0.0,0.0,0.0,0.0,0.0,0.0,0.0,0.0,0.0,0.0,0.0,0.0,0.0,0.0,0.0,0.0,0.0,0.0,0.0,0.0,0.0,0.0,0.0,0.0,0.0,0.0,0.0,0.0,0.0,0.0,0.0,0.0,0.0,-2.4875,-2.5428,-2.5555,-2.56,0.0,0.0,-2.6273,-2.5704,-2.5854,0.0,0.0,0.0,0.0,0.0,0.0,0.0,0.0,0.0,0.0,0.0,0.0,0.0,0.0,0.0,0.0,0.0,0.0,0.0,0.0,0.0,0.0,0.0,0.0,0.0,0.0,0.0,0.0,0.0,0.0,0.0,0.0,0.0,0.0,0.0,0.0,0.0,0.0,0.0,0.0,0.0,0.0,0.0,0.0,0.0,0.0,0.0,0.0,0.0,0.0,0.0,0.0,0.0,0.0,0.0,-2.738,-2.9738,-3.1683,-3.3131,-3.4074,-3.4808,-3.4801,-3.401,-3.3028,-3.1642,0.0,0.0,0.0,0.0,0.0,0.0,0.0,0.0,0.0,0.0,0.0,0.0,0.0,0.0,0.0,0.0,0.0,0.0,0.0,0.0,0.0,0.0,0.0,0.0,0.0,0.0,0.0,0.0,0.0,0.0,0.0,0.0,0.0,0.0,0.0,0.0,0.0,0.0,0.0,0.0,0.0,0.0,-2.6596,-2.7051,0.0,0.0,0.0,-2.8162,-2.7761,0.0,0.0,0.0,0.0,0.0,0.0,0.0,0.0,0.0,0.0,0.0,0.0,0.0,0.0,0.0,0.0,0.0,0.0,0.0,0.0,0.0,0.0,0.0,0.0,0.0,0.0,0.0,0.0,0.0,0.0,0.0,0.0,0.0,0.0,0.0,0.0,0.0,0.0,0.0,0.0,0.0,0.0,0.0,0.0,0.0,0.0,0.0,0.0,0.0,0.0,0.0,0.0,0.0,0.0,0.0,0.0,0.0,-2.9826,-3.2079,-3.3617,-3.4376,-3.5112,-3.5074,-3.4221,-3.3611,0.0,0.0,0.0,0.0,0.0,0.0,0.0,0.0,0.0,0.0,0.0,0.0,0.0,0.0,0.0,0.0,0.0,0.0,0.0,0.0,0.0,0.0,0.0,0.0,0.0,0.0,0.0,-1.2727,0.0,0.0,0.0,0.0,0.0,0.0,0.0,0.0,0.0,0.0,0.0,0.0,0.0,0.0,-2.6512,-2.7705,-2.8412,-2.9026,0.0,0.0,-2.9429,-2.9222,-2.8233,-2.734,0.0,0.0,0.0,0.0,0.0,0.0,0.0,0.0,0.0,0.0,0.0,0.0,0.0,0.0,0.0,0.0,0.0,0.0,0.0,0.0,0.0,0.0,0.0,0.0,0.0,0.0,0.0,0.0,0.0,0.0,0.0,0.0,0.0,0.0,0.0,0.0,0.0,0.0,0.0,0.0,0.0,0.0,0.0,0.0,0.0,0.0,0.0,0.0,0.0,0.0,0.0,0.0,0.0,0.0,-2.7613,-3.0227,-3.2451,-3.4182,-3.5448,-3.6144,-3.6109,-3.5295,-3.4718,-3.3341,0.0,0.0,0.0,0.0,0.0,0.0,0.0,0.0,0.0,0.0,0.0,0.0,0.0,0.0,0.0,0.0,0.0,0.0,0.0,0.0,0.0,0.0,0.0,0.0,0.0,0.0,0.0,0.0,0.0,0.0,0.0,0.0,0.0,0.0,0.0,0.0,0.0,0.0,0.0,0.0,0.0,-2.772,-2.8427,-2.9101,-2.9465,0.0,-2.9319,-2.9195,-2.8904,-2.8551,-2.7851,-2.6567,0.0,0.0,0.0,0.0,0.0,0.0,0.0,0.0,0.0,0.0,0.0,0.0,0.0,0.0,0.0,0.0,0.0,0.0,0.0,0.0,0.0,0.0,0.0,0.0,0.0,0.0,0.0,0.0,0.0,0.0,0.0,0.0,0.0,0.0,0.0,0.0,0.0,0.0,0.0,0.0,0.0,0.0,0.0,0.0,0.0,0.0,0.0,0.0,0.0,0.0,0.0,0.0,0.0,-2.8523,-3.0778,-3.2785,-3.4266,-3.5137,-3.5866,-3.6039,-3.5664,-3.4655,-3.3558,0.0,0.0,0.0,0.0,0.0,0.0,0.0,0.0,0.0,0.0,0.0,0.0,0.0,0.0,0.0,0.0,0.0,0.0,0.0,0.0,0.0,0.0,0.0,0.0,0.0,0.0,0.0,0.0,-1.6772,-1.741,-1.7862,0.0,0.0,0.0,0.0,0.0,0.0,0.0,0.0,0.0,0.0,-2.8148,-2.9997,-3.0358,0.0,0.0,-3.138,-3.1128,-3.0286,-2.9581,-2.8741,-2.7674,-2.6286,0.0,0.0,0.0,0.0,0.0,0.0,0.0,0.0,0.0,0.0,0.0,0.0,0.0,0.0,0.0,0.0,0.0,0.0,0.0,0.0,0.0,0.0,0.0,0.0,0.0,0.0,0.0,0.0,0.0,0.0,0.0,0.0,0.0,0.0,0.0,0.0,0.0,0.0,0.0,0.0,0.0,0.0,0.0,0.0,0.0,0.0,0.0,0.0,0.0,0.0,0.0,0.0,-2.896,-3.1149,-3.3076,-3.4509,-3.5385,-3.6133,-3.6378,-3.6027,-3.5236,-3.4314,0.0,0.0,0.0,0.0,0.0,0.0,0.0,0.0,0.0,0.0,0.0,0.0,0.0,0.0,0.0,0.0,0.0,0.0,0.0,0.0,0.0,0.0,0.0,0.0,0.0,0.0,0.0,0.0,-1.8149,-1.8614,-1.8126,0.0,0.0,0.0,0.0,0.0,0.0,0.0,0.0,0.0,0.0,-2.9188,-3.091,-3.1353,-3.1729,-3.2385,-3.2452,-3.2086,-3.1098,-3.0339,-2.9559,-2.8538,0.0,0.0,0.0,0.0,0.0,0.0,0.0,0.0,0.0,0.0,0.0,0.0,0.0,0.0,0.0,0.0,0.0,0.0,0.0,0.0,0.0,0.0,0.0,0.0,0.0,0.0,0.0,-1.9703,0.0,0.0,-1.7737,0.0,0.0,0.0,0.0,0.0,0.0,0.0,0.0,0.0,0.0,0.0,0.0,0.0,0.0,0.0,0.0,0.0,0.0,0.0,0.0,0.0,0.0,-2.8738,-3.1267,-3.3298,-3.5039,-3.6499,-3.7258,-3.7319,-3.6635,-3.6713,-3.5822,-3.3752,0.0,0.0,0.0,0.0,0.0,0.0,0.0,0.0,0.0,0.0,0.0,0.0,0.0,0.0,0.0,0.0,0.0,0.0,0.0,0.0,0.0,0.0,0.0,0.0,0.0,0.0,-1.9557,-2.0265,-2.0124,0.0,0.0,0.0,0.0,0.0,0.0,0.0,0.0,0.0,0.0,-2.9587,-3.1117,-3.091,-3.1887,-3.2515,-3.2054,-3.1974,-3.1702,-3.0956,-3.0678,-3.0188,0.0,0.0,0.0,0.0,0.0,0.0,0.0,0.0,0.0,0.0,0.0,0.0,0.0,0.0,0.0,0.0,0.0,0.0,0.0,0.0,0.0,0.0,0.0,0.0,0.0,0.0,0.0,-2.3504,-2.3141,0.0,0.0,0.0,0.0,0.0,0.0,0.0,0.0,0.0,0.0,0.0,-2.9578,-3.0275,0.0,0.0,0.0,0.0,0.0,0.0,0.0,0.0,0.0,0.0,0.0,0.0,-3.0331,-3.2389,-3.3932,-3.5365,-3.6787,-3.7646,-3.8179,-3.8384,-3.7696,-3.6114,-3.3634,0.0,0.0,0.0,0.0,0.0,0.0,0.0,0.0,0.0,0.0,0.0,0.0,0.0,0.0,0.0,0.0,0.0,0.0,0.0,0.0,0.0,0.0,0.0,0.0,0.0,-2.014,0.0,0.0,0.0,0.0,0.0,0.0,0.0,0.0,0.0,0.0,0.0,-2.7372,-2.8916,-3.0089,-3.1298,-3.2713,-3.3106,-3.3326,0.0,0.0,0.0,0.0,0.0,0.0,0.0,0.0,0.0,0.0,0.0,0.0,0.0,0.0,-2.6508,-2.4633,-2.4262,-2.4104,-2.3766,0.0,0.0,0.0,0.0,0.0,0.0,0.0,0.0,0.0,0.0,0.0,0.0,0.0,0.0,-2.6439,0.0,-2.5181,0.0,0.0,0.0,0.0,0.0,0.0,0.0,0.0,-3.1063,-3.2227,-3.2226,-3.2928,-3.2897,0.0,-3.1716,-3.0,0.0,0.0,0.0,0.0,0.0,0.0,0.0,0.0,-3.1612,-3.3466,-3.4707,-3.5933,-3.7095,-3.7982,-3.8732,-3.9266,-3.8177,-3.6756,-3.5013,-3.3644,-3.1997,0.0,0.0,0.0,0.0,0.0,0.0,0.0,0.0,0.0,0.0,0.0,0.0,0.0,0.0,0.0,0.0,0.0,0.0,0.0,0.0,0.0,0.0,0.0,-2.2274,0.0,0.0,0.0,0.0,0.0,0.0,0.0,0.0,0.0,-2.515,-2.6918,-2.8805,-3.028,-3.113,-3.2198,-3.3724,0.0,0.0,0.0,0.0,0.0,0.0,0.0,-3.1237,-3.0046,-2.9961,-3.0049,-2.996,-3.0159,-3.0344,-3.0357,0.0,0.0,-2.7494,-2.7055,-2.6942,-2.6603,-2.6829,-2.7266,-2.7832,-2.8649,-2.9415,0.0,0.0,0.0,0.0,0.0,0.0,0.0,0.0,-2.9778,-2.9303,0.0,-2.857,0.0,0.0,0.0,0.0,0.0,-3.0529,0.0,0.0,-3.2822,-3.3933,-3.4418,-3.5124,-3.5093,-3.4404,-3.4342,-3.3652,-3.2299,-3.0382,0.0,0.0,0.0,0.0,0.0,0.0,-3.2518,-3.4402,-3.5615,-3.6641,-3.7537,-3.8393,-3.896,-3.9297,-3.8332,-3.7782,-3.7592,-3.5054,-3.3338,-3.2643,-2.9924,0.0,0.0,0.0,0.0,0.0,0.0,0.0,0.0,0.0,0.0,0.0,0.0,0.0,0.0,0.0,0.0,0.0,0.0,0.0,0.0,-2.3623,0.0,0.0,0.0,0.0,0.0,0.0,0.0,0.0,0.0,0.0,-2.6811,-2.8519,-3.0279,-3.1329,0.0,0.0,0.0,0.0,-3.4279,-3.3705,-3.342,-3.3132,-3.2738,-3.246,-3.2167,-3.1737,0.0,0.0,-3.154,-3.1499,-3.1537,-3.1499,-3.1951,-3.1788,-3.0256,-2.9905,-2.9854,-2.9842,-2.9842,-3.0068,-3.0595,-3.1047,-3.1587,-3.6422,0.0,0.0,0.0,0.0,-3.3346,-3.3062,-3.2708,-3.2403,-3.2133,-3.1861,-3.1304,0.0,0.0,0.0,0.0,0.0,0.0,-3.3643,-3.3442,-3.5247,-3.6118,-3.6174,-3.6843,-3.6812,-3.6158,-3.6158,-3.5717,-3.4881,-3.4255,-3.3208,-3.1742,0.0,0.0,0.0,0.0,-3.4057,-3.5444,-3.6263,-3.7314,-3.8552,-3.9039,-3.9464,-3.9777,-3.9499,-3.8889,-3.7949,-3.6603,-3.541,-3.4262,-3.2117,0.0,0.0,0.0,0.0,0.0,0.0,0.0,0.0,0.0,0.0,0.0,0.0,0.0,0.0,0.0,0.0,0.0,0.0,0.0,-2.5775,-2.6441,-2.6542,0.0,0.0,0.0,0.0,0.0,0.0,0.0,0.0,0.0,-3.0362,-3.1022,-3.1786,0.0,0.0,-3.3836,-3.4623,-3.4434,-3.4193,-3.4175,-3.3983,0.0,-3.2754,-3.2567,-3.239,-3.2113,-3.2739,-3.3363,-3.3696,-3.3771,-3.3771,-3.3759,-3.3884,-3.379,-3.3395,-3.2641,-3.2177,-3.2139,-3.2139,-3.2315,-3.283,-3.3093,-3.3345,-3.9784,-3.791,-3.7282,-3.6754,-3.6344,-3.5909,-3.5556,-3.5195,-3.4781,-3.4585,-3.4513,-3.3951,-3.3749,-3.3845,-3.3455,0.0,0.0,0.0,-3.5707,-3.5765,-3.7099,-3.7937,-3.8314,-3.8687,-3.8672,-3.8295,-3.828,-3.7933,-3.7285,-3.7367,-3.6763,-3.5477,0.0,0.0,-3.491,-3.5049,-3.5622,-3.6602,-3.7249,-3.8024,-3.8875,-3.9722,-4.0259,-4.0449,-4.0337,-3.9734,-3.8631,-3.7654,-3.6615,-3.5516,-3.381,-3.1931,0.0,0.0,0.0,0.0,0.0,0.0,0.0,0.0,0.0,0.0,0.0,-2.0156,-1.9989,0.0,0.0,0.0,-2.5462,-2.714,-2.8289,-2.8618,0.0,0.0,0.0,0.0,0.0,0.0,0.0,-3.0699,-3.1086,-3.171,-3.2935,-3.3271,-3.3537,-3.3822,-3.4004,-3.4395,-3.517,0.0,-3.4769,-3.4782,-3.4633,-3.4302,-3.3712,-3.3477,-3.3391,-3.3194,-3.3746,-3.4299,-3.4638,-3.468,-3.468,-3.4705,-3.4856,-3.5069,-3.5328,-3.4989,-3.4449,-3.3859,-3.3734,-3.3985,-3.4713,-3.4889,-3.5102,-4.2362,-4.201,-4.0504,-3.9516,-3.8918,-3.8293,-3.7857,-3.7533,-3.6878,-3.6677,-3.6724,-3.6411,-3.6364,-3.6505,-3.652,0.0,-3.6376,-3.6999,-3.7503,-3.7978,-3.8592,-3.9484,-4.0457,-4.0472,-4.0472,-4.0472,-4.0472,-4.0172,-3.9574,-3.9718,-3.9856,-3.9781,-3.7521,-3.6604,-3.7089,-3.7032,-3.7278,-3.7899,-3.8577,-3.8928,-3.8958,-4.0462,-4.125,-4.1234,-4.0951,-4.0454,-3.9687,-3.8381,-3.7382,-3.6674,-3.5156,-3.3536,-3.1855,0.0,0.0,0.0,0.0,0.0,0.0,0.0,0.0,0.0,0.0,0.0,0.0,0.0,0.0,-2.6087,-2.837,0.0,-2.9894,-3.0402,0.0,0.0,0.0,-3.0746,-3.0718,-3.1202,-3.199,-3.3219,0.0,0.0,-3.4718,-3.5157,-3.5201,-3.4629,-3.4794,-3.5145,-3.5571,-3.5613,-3.5607,-3.5366,-3.5162,-3.5041,-3.4888,-3.4773,-3.4688,-3.4688,-3.4768,-3.4914,-3.5002,-3.5014,-3.4951,-3.5069,-3.537,-3.5859,-3.6455,-3.687,-3.6772,-3.529,-3.5027,-3.5303,-3.6267,-3.6458,-3.6734,-4.4181,-4.4369,-4.3823,-4.239,-4.0463,-4.0053,-3.9516,-3.8982,-3.8544,-3.8273,-3.8048,-3.7805,-3.7626,-3.7557,-3.7542,-3.7798,-3.8265,-3.8825,-3.9385,-3.9911,-4.0514,-4.092,-4.1145,-4.116,-4.1145,-4.1145,-4.1145,-4.1055,-4.092,-4.0958,-4.0995,-4.095,-4.0402,-3.9724,-3.9063,-3.9358,-3.9616,-3.9766,-4.0411,-4.083,-4.0992,-4.1368,-4.1615,-4.1732,-4.1638,-4.1538,-4.1319,-4.0056,-3.923,-3.9032,-3.7266,-3.558,-3.4181,-3.343,0.0,0.0,0.0,0.0,0.0,0.0,0.0,0.0,0.0,-2.5485,-2.575,0.0,-2.8634,0.0,-3.0608,-3.2018,-3.2512,-3.2691,0.0,0.0,-3.2392,-3.2721,-3.2586,-3.3134,-3.3864,-3.4699,-3.4551,-3.4768,-3.5788,-3.5555,-3.5398,-3.5648,-3.5368,-3.526,-3.5617,-3.5429,-3.522,-3.5213,-3.5001,-3.4816,-3.4891,-3.509,-3.5307,-3.5295,-3.5692,-3.6119,-3.6521,-3.6609,-3.6734,-3.7123,-3.7324,-3.7475,-3.7575,-3.7739,-3.7688,-3.7312,-3.7224,-3.7287,-3.7575,-3.7613,-3.7701,-4.5327,-4.5688,-4.5564,-4.4547,-4.2991,-4.2422,-4.1837,-4.1334,-4.0836,-4.0514,-4.0309,-3.9912,-3.9702,-3.9597,-3.9491,-3.9666,-4.0043,-4.0311,-4.08,-4.1415,-4.173,-4.1968,-4.2237,-4.2252,-4.2252,-4.2252,-4.2252,-4.2252,-4.2252,-4.2252,-4.2252,-4.2252,-4.2252,-4.1931,-4.1303,-4.1003,-4.0831,-4.0846,-4.1205,-4.161,-4.2009,-4.2024,-4.2047,-4.2146,-4.2206,-4.2055,-4.1708,-4.1036,-4.0544,-4.0103,-3.8777,-3.7454,-3.6222,-3.5575,-3.4273,0.0,0.0,0.0,0.0,0.0,0.0,0.0,0.0,0.0,0.0,0.0,-3.1206,-3.1776,-3.3051,-3.3993,-3.4367,-3.4651,-3.4562,-3.3918,-3.4364,-3.4656,-3.4545,-3.4909,-3.5453,-3.6317,-3.5988,-3.5985,-3.6849,-3.6524,-3.6149,-3.6309,-3.5963,-3.5709,-3.575,-3.5702,-3.5684,-3.5696,-3.5546,-3.5454,-3.5441,-3.5705,-3.5994,-3.6245,-3.6521,-3.691,-3.7437,-3.755,-3.7651,-3.7939,-3.8002,-3.809,-3.8341,-3.8391,-3.8454,-3.8705,-3.8768,-3.8668,-3.8442,-3.8391,-3.8442,-4.6069,-4.6455,-4.6471,-4.6215,-4.5843,-4.4965,-4.4281,-4.3709,-4.3043,-4.27,-4.2556,-4.2043,-4.1768,-4.1745,-4.1535,-4.152,-4.1542,-4.1557,-4.1901,-4.25,-4.2515,-4.2791,-4.329,-4.3305,-4.3305,-4.3305,-4.3305,-4.3305,-4.3305,-4.3305,-4.3305,-4.3305,-4.3305,-4.3305,-4.3245,-4.2192,-4.1639,-4.1624,-4.1639,-4.1946,-4.2515,-4.2515,-4.253,-4.2515,-4.2632,-4.2346,-4.1707,-4.1753,-4.1438,-4.0681,-4.0038,-3.9182,-3.809,-3.7398,-3.6245,0.0,-3.4319,0.0,0.0,0.0,0.0,0.0,0.0,0.0,0.0,-3.1972,-3.3514,-3.4756,-3.54,-3.5744,-3.5711,-3.6267,-3.6372,-3.5768,-3.616,-3.6427,-3.6462,-3.657,-3.6967,-3.7835,-3.7399,-3.7254,-3.77,-3.7452,-3.7033,-3.6702,-3.6476,-3.6248,-3.6062,-3.6206,-3.6329,-3.6417,-3.6417,-3.6279,-3.6317,-3.643,-3.6621,-3.7061,-3.7224,-3.7487,-3.8027,-3.8115,-3.814,-3.8241,-3.8304,-3.8429,-3.8894,-3.8981,-3.9145,-3.9534,-3.9597,-3.9471,-3.9094,-3.8981,-3.9132,-4.6887,-4.7315,-4.7225,-4.7326,-4.7489,-4.7011,-4.5791,-4.4088,-4.3658,-4.3165,-4.2592,-4.2483,-4.2227,-4.1947,-4.1745,-4.1934,-4.2423,-4.2308,-4.2536,-4.3125,-4.311,-4.317,-4.329,-4.3305,-4.3305,-4.3305,-4.3305,-4.3305,-4.3305,-4.3305,-4.3305,-4.3305,-4.3305,-4.3305,-4.329,0.0,0.0,0.0,-4.2955,-4.2991,-4.3135,-4.3095,-4.311,-4.315,-4.3135,0.0,-4.2916,-4.25,-4.2209,-4.2021,-4.1407,0.0,0.0,0.0,0.0,0.0,0.0,0.0,0.0,0.0,0.0,0.0,-3.5167,-3.4743,-3.3756,-3.4938,-3.6043,-3.6776,-3.6971,-3.7045,-3.7045,-3.7165,-3.7127,-3.6866,-3.7367,-3.7763,-3.7835,-3.8231,-3.8606,-3.8571,-3.8183,-3.7896,-3.7941,-3.7449,-3.705,-3.6998,-3.679,-3.6569,-3.6335,-3.6329,-3.6405,-3.6417,-3.6417,-3.6417,-3.6417,-3.6769,-3.7071,-3.7211,-3.7575,-3.804,-3.8567,-3.8705,-3.8894,-3.9233,-3.9371,-3.9358,-3.9496,-3.9534,-3.9546,-3.9672,-3.9697,-3.9672,-3.9572,-3.9534,-3.9572,-4.7693,0.0,-4.8121,-4.8102,0.0,-4.782,-4.6962,-4.5741,-4.5195,-4.4615,-4.4019,-4.3704,-4.3482,-4.3273,-4.2971,-4.3038,-4.3333,-4.3139,-4.3202,-4.3488,-4.3384,-4.3305,-4.3305,-4.3305,-4.3305,-4.3305,-4.3305,-4.3469,-4.3753,-4.3783,-4.3988,-4.4287,-4.4302,-4.4302,-4.4302,-4.4053,-4.3778,-4.3518,-4.3581,-4.3581,-4.3503,-4.3503,-4.3423,-4.329,-4.3305,0.0,0.0,0.0,0.0,0.0,0.0,0.0,0.0,0.0,0.0,-3.9118,-3.8727,-3.8097,-3.7236,-3.7079,-3.6877,-3.6577,-3.7409,-3.736,-3.6028,-3.6552,-3.736,-3.8302,-3.8407,-3.8676,-3.929,-3.9364,-3.9292,-3.9119,-3.9276,-3.9356,-3.9184,-3.9139,-3.9133,-3.9046,-3.8572,-3.8252,-3.8278,-3.7822,-3.7352,-3.7103,-3.6862,-3.6615,-3.6452,-3.6417,-3.6417,-3.6417,-3.6417,-3.6417,-3.6455,-3.687,-3.7324,-3.7563,-3.8065,-3.863,-3.9182,-3.9283,-3.9383,-3.9634,-3.9697,-3.9697,-3.9697,-3.9697,-3.9697,-3.9697,-3.9697,-3.9697,-3.9697,-3.9697,-3.9697,-4.8368,-4.8832,-4.8801,-4.8612,-4.8308,-4.8115,-4.782,-4.7404,0.0,0.0,0.0,-4.5024,-4.4761,-4.4648,-4.4281,-4.4104,-4.4104,-4.3886,-4.3769,-4.3714,-4.3503,-4.3468,-4.3588,-4.3603,-4.3648,-4.3768,-4.3753,-4.4038,-4.4522,-4.4522,-4.4807,-4.5244,-4.5289,-4.5289,-4.5286,-4.4995,-4.4589,-4.4116,-4.4031,-4.391,-4.369,-4.3796,-4.3722,-4.3469,-4.3469,-4.3469,-4.3469,-4.3364,-4.3305,-4.3275,-4.2821,-4.256,-4.2545,-4.1946,-4.1362,-4.0786,-4.0636,-4.0083,-3.9005,-3.8931,-3.8691,-3.8153,-3.9125,-3.929,-3.8182,-3.8108,-3.8571,-3.9679,-3.9768,-4.0217,-4.1302,-4.1331,-4.1285,-4.1056,-4.0953,-4.0647,-4.0188,-3.9755,-3.9492,-3.9409,-3.8863,-3.8472,-3.845,-3.8004,-3.7572,-3.7108,-3.6769,-3.6593,-3.6452,-3.6417,-3.6417,-3.6417,-3.6417,-3.643,-3.6619,-3.6998,-3.7525,-3.809,-3.8642,-3.9157,-3.9546,-3.9697,-3.9697,-3.9685,-3.9697,-3.9697,-3.9697,-3.9697,-3.9697,-3.9697,-3.9697,-3.9697,-3.9645,-3.9645,-3.9645,-4.8869,-4.8956,-4.8832,-4.8769,-4.8692,-4.834,-4.7968,-4.7588,-4.686,-4.6262,-4.5771,-4.5662,-4.5442,-4.5108,-4.4701,-4.4511,-4.4511,-4.4127,-4.3949,-4.3949,-4.3895,-4.4213,-4.4743,-4.4758,-4.5061,-4.5576,-4.5622,-4.5586,-4.5514,-4.5473,-4.5436,-4.5331,-4.5289,-4.5304,-4.5331,-4.5626,-4.5738,-4.5647,-4.458,-4.391,-4.3729,-4.4203,-4.4369,-4.4167,-4.4142,-4.4182,-4.4167,-4.3618,-4.3305,-4.329,-4.3215,-4.3155,-4.3125,-4.2566,-4.2216,-4.2111,-4.1587,-4.1197,-4.1003,-4.095,-4.0958,-4.0883,-4.0995,-4.101,-4.0846,-4.0816,-4.0891,-4.11,-4.107,-4.1175,-4.1369,-4.1292,-4.113,-4.0923,-4.0998,-4.0865,-4.0419,-4.0391,-4.0165,-3.9601,-3.9142,-3.8564,-3.8082,-3.7572,-3.7155,-3.6815,-3.664,-3.6452,-3.6417,-3.6417,-3.6417,-3.6417,-3.6417,-3.6606,-3.6996,-3.7525,-3.804,-3.8668,-3.917,-3.9534,-3.9659,-3.9697,-3.9697,-3.9697,-3.9697,-3.9697,-3.9697,-3.9697,-3.9697,-3.9697,-3.9722,-3.9683,-3.9488,-3.9461,-3.9384,-4.9018,-4.9001,-4.8925,-4.8863,-4.8786,-4.8373,-4.8082,-4.7869,-4.7829,-4.7283,-4.6401,-4.6116,-4.5807,-4.5515,-4.5225,-4.5024,-4.4905,-4.4511,-4.4519,-4.4855,-4.4637,-4.4883,-4.5515,-4.5561,-4.5713,-4.6001,-4.5976,-4.6158,-4.6369,-4.6399,-4.6524,-4.6716,-4.662,-4.6536,-4.6563,-4.6399,-4.6301,-4.6301,-4.5631,-4.5145,-4.4961,-4.5097,-4.503,-4.4855,-4.4855,-4.4855,-4.484,-4.4556,-4.4227,-4.3868,-4.3828,-4.3663,-4.3305,-4.3045,-4.288,-4.288,-4.2611,-4.2297,-4.1961,-4.1617,-4.1534,-4.1916,-4.1946,-4.2111,-4.2417,-4.1788,-4.1572,-4.1916,-4.1946,-4.2058,-4.2216,-4.2198,-4.2016,-4.1699,-4.1616,-4.1338,-4.0813,-4.0434,-4.0083,-3.9499,-3.8877,-3.8381,-3.7939,-3.7433,-3.7015,-3.6722,-3.6546,-3.6417,-3.6417,-3.6417,-3.6417,-3.6417,-3.6417,-3.6656,-3.7111,-3.7638,-3.8203,-3.8781,-3.9333,-3.9647,-3.9697,-3.9697,-3.9697,-3.9697,-3.9697,-3.9697,-3.971,-3.9697,-3.9697,-3.9722,-3.9817,-3.9825,-3.9783,-3.9599,-3.9291,-4.9018,-4.9018,-4.9187,-4.9263,-4.9274,-4.897,-4.8759,-4.8646,-4.8977,-4.8555,-4.7653,-4.7027,-4.6686,-4.6448,-4.6161,-4.5955,-4.5784,-4.5392,-4.548,-4.5904,-4.5677,-4.5886,-4.6483,-4.6528,-4.659,-4.6727,-4.6742,-4.6961,-4.7296,-4.7357,-4.7574,-4.7961,-4.7794,-4.7666,-4.7566,-4.7169,-4.6897,-4.6825,-4.6689,-4.6387,-4.5935,-4.5837,-4.5706,-4.5514,-4.5529,-4.5529,-4.5514,-4.5379,-4.5065,-4.4571,-4.4526,-4.4302,-4.3783,-4.3629,-4.3514,-4.3514,-4.3364,-4.3135,-4.2611,-4.2117,-4.2028,-4.256,-4.262,-4.2791,-4.314,-4.2417,-4.2028,-4.253,-4.262,-4.2697,-4.2872,-4.2911,-4.2769,-4.2351,-4.1993,-4.1478,-4.0958,-4.0286,-3.9689,-3.9203,-3.8562,-3.8018,-3.771,-3.7294,-3.6922,-3.6675,-3.6499,-3.6417,-3.6417,-3.6417,-3.6443,-3.6568,-3.6581,-3.6832,-3.7274,-3.7852,-3.8429,-3.8969,-3.9408,-3.9647,-3.9697,-3.9697,-3.9697,-3.971,-3.9835,-3.991,-3.9898,-4.0036,-4.0072,-4.0107,-4.0199,-4.0211,-3.9902,-3.9606,-3.9254,-4.9018,-4.912,-4.9729,-5.031,-5.0737,-5.0689,-5.0574,-5.0359,-5.0174,-5.002,-4.9751,-4.9173,-4.8675,-4.8473,-4.7909,-4.7631,-4.7571,-4.7214,-4.7053,-4.7131,-4.7092,-4.7481,-4.8049,-4.808,-4.8391,-4.8858,-4.8904,-4.8686,-4.8424,-4.8398,-4.8309,-4.8049,-4.7964,-4.7852,-4.7651,-4.7761,-4.7731,-4.7505,-4.7488,-4.6897,-4.5766,-4.6222,-4.6386,-4.6217,-4.6232,-4.6232,-4.6217,-4.5633,-4.5274,-4.5214,-4.5214,-4.517,-4.505,-4.4556,-4.4227,-4.4157,-4.3633,-4.326,-4.32,-4.3155,-4.3095,-4.3185,-4.317,-4.324,-4.329,-4.317,-4.311,-4.317,-4.3185,-4.3121,-4.3021,-4.2835,-4.2526,-4.2075,-4.1479,-4.1015,-4.0645,-3.9922,-3.9247,-3.8953,-3.8336,-3.7769,-3.7294,-3.6909,-3.6675,-3.6499,-3.6452,-3.6455,-3.6505,-3.6505,-3.6681,-3.6985,-3.7123,-3.7374,-3.7864,-3.8404,-3.8894,-3.9433,-3.9634,-3.9697,-3.9697,-3.9697,-3.971,-3.9885,-4.0099,-4.0337,-4.0538,-4.0749,-4.0996,-4.0698,-4.0608,-4.0552,-3.9831,-3.9455,-3.9173,-4.9644,-4.9712,-5.0456,-5.0898,-5.1088,-5.1039,-5.0941,-5.0892,-5.1095,-5.1075,-5.1004,-5.0949,-5.0259,-4.899,-4.8703,-4.8498,-4.8238,-4.7975,-4.8076,-4.8369,-4.8285,-4.8592,-4.9182,-4.9229,-4.9402,-4.9622,-4.9517,-4.9396,-4.9194,-4.9072,-4.8883,-4.8609,-4.8427,-4.826,-4.8007,-4.7837,-4.7709,-4.7596,-4.751,-4.7154,-4.6719,-4.6869,-4.6991,-4.6905,-4.6905,-4.6905,-4.689,-4.6606,-4.6307,-4.5948,-4.5888,-4.5708,-4.5319,-4.5035,-4.4885,-4.4855,-4.4287,-4.3913,-4.3873,-4.3514,-4.3305,-4.3305,-4.3305,-4.3305,-4.3305,-4.3305,-4.3305,-4.329,-4.3195,-4.3036,-4.2835,-4.2511,-4.2172,-4.1827,-4.1241,-4.0688,-4.0314,-3.9543,-3.8877,-3.8395,-3.7939,-3.7492,-3.6956,-3.6675,-3.6499,-3.6417,-3.6417,-3.6531,-3.682,-3.6895,-3.7086,-3.7563,-3.7939,-3.829,-3.8492,-3.868,-3.9107,-3.9521,-3.9697,-3.9697,-3.9697,-3.9697,-3.9785,-4.0086,-4.0425,-4.0727,-4.0924,-4.105,-4.1234,-4.1039,-4.0875,-4.0672,-4.0269,-3.9943,-3.9645,-5.0405,-5.0507,-5.12,-5.164,-5.181,-5.1712,-5.1696,-5.1713,-5.2034,-5.21,-5.2013,-5.2339,-5.1567,-5.0108,-4.9811,-4.9608,-4.9314,-4.9096,-4.9255,-4.9665,-4.9582,-4.9776,-5.0198,-5.0207,-5.0168,-5.0129,-4.9971,-4.9797,-4.9677,-4.9477,-4.9291,-4.9062,-4.8841,-4.8593,-4.8385,-4.7964,-4.7709,-4.7581,-4.7424,-4.7337,-4.7294,-4.7309,-4.7309,-4.7309,-4.7309,-4.7309,-4.7309,-4.7309,-4.7085,-4.6621,-4.6591,-4.6381,-4.5888,-4.5678,-4.5499,-4.5274,-4.4855,-4.4586,-4.4586,-4.4137,-4.3843,-4.3868,-4.3693,-4.3574,-4.3529,-4.3394,-4.329,-4.321,-4.3036,-4.285,-4.2688,-4.2281,-4.191,-4.1521,-4.093,-4.0386,-3.9865,-3.9234,-3.8607,-3.7985,-3.7631,-3.7214,-3.6722,-3.6499,-3.6443,-3.6631,-3.6669,-3.6832,-3.7262,-3.7425,-3.76,-3.8153,-3.8605,-3.8856,-3.8932,-3.9108,-3.9283,-3.9496,-3.9697,-3.9697,-3.9735,-3.9785,-3.9948,-4.035,-4.0664,-4.1065,-4.1451,-4.1564,-4.1442,-4.1188,-4.0935,-4.0712,-4.0427,-4.0188,-3.9732,-5.1166,-5.1252,-5.1944,-5.2672,-5.3365,-5.3298,-5.3332,-5.3213,-5.3163,-5.3111,-5.3009,-5.2904,-5.2609,-5.2035,-5.1532,-5.1369,-5.1278,-5.0978,-5.0865,-5.093,-5.0946,-5.0995,-5.1043,-5.0918,-5.0874,-5.082,-5.065,-5.034,-4.9931,-4.9733,-4.9477,-4.9275,-4.9103,-4.8857,-4.8578,-4.837,-4.8049,-4.7666,-4.7596,-4.751,-4.7337,-4.7309,-4.7309,-4.7309,-4.7309,-4.7309,-4.7309,-4.7309,-4.7279,-4.7249,-4.7219,-4.7204,-4.713,-4.6606,-4.5965,-4.5454,-4.5289,-4.5259,-4.5259,-4.5155,-4.5095,-4.5065,-4.4571,-4.4272,-4.4242,-4.3768,-4.3444,-4.3095,-4.3053,-4.2876,-4.274,-4.2272,-4.1702,-4.1128,-4.0603,-4.0041,-3.9424,-3.8904,-3.8453,-3.7893,-3.7387,-3.696,-3.6537,-3.6417,-3.6707,-3.6998,-3.7149,-3.7349,-3.7826,-3.7977,-3.8228,-3.8642,-3.8932,-3.8881,-3.8919,-3.922,-3.9546,-3.9685,-3.9697,-3.9697,-3.9885,-4.0061,-4.0325,-4.0714,-4.1342,-4.1806,-4.212,-4.2108,-4.1898,-4.1545,-4.0998,-4.0675,-4.0223,-3.9708,-3.9249,-5.2215,-5.2706,-5.2959,-5.3247,-5.3484,-5.3518,-5.3518,-5.3518,-5.3433,-5.3298,-5.3213,-5.311,-5.2938,-5.2677,-5.2466,-5.2125,-5.1704,-5.1577,-5.1524,-5.1524,-5.154,-5.1524,-5.154,-5.1483,-5.1462,-5.1445,-5.1258,-5.0972,-5.0589,-5.034,-5.005,-4.9717,-4.9613,-4.9331,-4.8898,-4.862,-4.8286,-4.788,-4.7681,-4.751,-4.7309,-4.7309,-4.7309,-4.7309,-4.7309,-4.7309,-4.7309,-4.7309,-4.7309,-4.7309,-4.7309,-4.7309,-4.7294,-4.7085,-4.686,-4.6576,-4.6187,-4.5963,-4.5903,-4.5544,-4.5289,-4.5274,-4.5095,-4.4945,-4.4915,-4.4736,-4.4504,-4.4284,-4.4036,-4.3843,-4.329,-4.2389,-4.1381,-4.0859,-4.0243,-3.9703,-3.9087,-3.853,-3.7952,-3.7433,-3.6968,-3.672,-3.6918,-3.6945,-3.7111,-3.7575,-3.7713,-3.7977,-3.8391,-3.8555,-3.8743,-3.922,-3.9396,-3.9396,-3.9396,-3.9521,-3.9697,-3.9697,-3.9697,-3.9697,-3.981,-4.0237,-4.0538,-4.0937,-4.1731,-4.2118,-4.2207,-4.1922,-4.1846,-4.1459,-4.0896,-4.0246,-3.9767,-3.9367,-3.8894,-5.301,-5.3467,-5.3518,-5.3518,-5.3518,-5.3518,-5.3518,-5.3518,-5.3518,-5.3433,-5.3298,-5.3298,-5.3313,-5.3342,-5.3324,-5.3211,-5.2808,-5.2425,-5.2178,-5.2178,-5.2161,-5.2178,-5.2142,-5.2089,-5.2017,-5.1908,-5.1704,-5.1424,-5.1102,-5.0896,-5.0612,-5.0246,-5.0034,-4.9677,-4.9225,-4.8883,-4.8495,-4.8133,-4.7852,-4.7639,-4.7424,-4.7352,-4.7309,-4.7309,-4.7309,-4.7309,-4.7309,-4.7309,-4.7309,-4.7309,-4.7309,-4.7309,-4.7309,-4.7309,-4.7309,-4.7264,-4.689,-4.6636,-4.6606,-4.6202,-4.5948,-4.5933,-4.5738,-4.5633,-4.5618,-4.5424,-4.5195,-4.4929,-4.4718,-4.4407,-4.3661,-4.2611,-4.171,-4.1219,-4.0531,-3.9906,-3.9395,-3.8827,-3.8202,-3.7663,-3.726,-3.7159,-3.7362,-3.7425,-3.7726,-3.8203,-3.8291,-3.8517,-3.8994,-3.9145,-3.9233,-3.9609,-3.9659,-3.9647,-3.9609,-3.9647,-3.9697,-3.9697,-3.9697,-3.9697,-3.9873,-4.0337,-4.084,-4.1263,-4.1705,-4.2114,-4.2114,-4.1741,-4.139,-4.1069,-4.0491,-3.9837,-3.9426,-3.9012,-3.8537,-5.3484,-5.3518,-5.3518,-5.3518,-5.3518,-5.3585,-5.3551,-5.3602,-5.3636,-5.3754,-5.3788,-5.3602,-5.3939,-5.4205,-5.4306,-5.4518,-5.4594,-5.362,-5.3084,-5.3033,-5.2983,-5.2999,-5.3016,-5.2892,-5.2698,-5.2539,-5.2079,-5.1819,-5.1732,-5.1523,-5.128,-5.0884,-5.0341,-4.9971,-4.9597,-4.9184,-4.879,-4.8343,-4.8091,-4.7837,-4.7581,-4.7381,-4.7309,-4.7309,-4.7309,-4.7309,-4.7309,-4.7309,-4.7309,-4.7309,-4.7309,-4.7309,-4.7309,-4.7309,-4.7309,-4.7309,-4.7279,-4.7279,-4.7264,-4.7174,-4.7085,-4.704,-4.6651,-4.6279,-4.6247,-4.5786,-4.5305,-4.4997,-4.474,-4.4382,-4.3644,-4.3103,-4.262,-4.2154,-4.1306,-4.0647,-4.0201,-3.9759,-3.9149,-3.8428,-3.7986,-3.7965,-3.8002,-3.8015,-3.8253,-3.8705,-3.8881,-3.9019,-3.9459,-3.9546,-3.9647,-3.9685,-3.9697,-3.9697,-3.9697,-3.9697,-3.9697,-3.9697,-3.9697,-3.9722,-3.9961,-4.0362,-4.094,-4.1413,-4.1823,-4.2214,-4.1724,-4.139,-4.0988,-4.0537,-3.9954,-3.9367,-3.8953,-3.8537,-3.8047,-5.3518,-5.3518,-5.3518,-5.3518,-5.3585,-5.4042,-5.4262,-5.4313,-5.4769,-5.5023,-5.5023,-5.5023,-5.5089,-5.5206,-5.5256,-5.5356,-5.5456,-5.4982,-5.4692,-5.4446,-5.441,-5.4376,-5.436,-5.4357,-5.4303,-5.4195,-5.3851,-5.363,-5.3486,-5.3203,-5.2699,-5.1949,-5.1472,-5.0754,-4.9844,-4.9396,-4.8949,-4.8537,-4.8175,-4.788,-4.7581,-4.7424,-4.7309,-4.7309,-4.7309,-4.7309,-4.7309,-4.7309,-4.7309,-4.7309,-4.7309,-4.7309,-4.7309,-4.7309,-4.7309,-4.7309,-4.7309,-4.7309,-4.7309,-4.7309,-4.7309,-4.7279,-4.7085,-4.701,-4.6952,-4.6584,-4.6263,-4.5946,-4.5713,-4.5196,-4.4476,-4.3913,-4.3087,-4.1778,-4.1129,-4.0589,-3.9917,-3.9239,-3.8605,-3.8212,-3.8052,-3.8165,-3.8492,-3.8605,-3.8806,-3.927,-3.9396,-3.9521,-3.9634,-3.9697,-3.9697,-3.9697,-3.9697,-3.9697,-3.9697,-3.9697,-3.9697,-3.9697,-3.9697,-3.9697,-3.9961,-4.0526,-4.1037,-4.1513,-4.1929,-4.1906,-4.1423,-4.0988,-4.0595,-4.0071,-3.9544,-3.8953,-3.8477,-3.7998,-3.7517,-5.3518,-5.3534,-5.3805,-5.3923,-5.3991,-5.4702,-5.5023,-5.5074,-5.5497,-5.5681,-5.5664,-5.57,-5.5833,-5.6072,-5.6122,-5.6292,-5.6494,-5.6528,-5.6369,-5.6037,-5.548,-5.5345,-5.5293,-5.524,-5.5204,-5.5168,-5.4898,-5.4662,-5.4588,-5.4253,-5.37,-5.2959,-5.2492,-5.1668,-5.0493,-4.9909,-4.9408,-4.8779,-4.826,-4.7937,-4.7709,-4.7452,-4.7309,-4.7309,-4.7309,-4.7309,-4.7309,-4.7309,-4.7309,-4.7309,-4.7309,-4.7309,-4.7309,-4.7309,-4.7309,-4.7309,-4.7309,-4.7309,-4.7309,-4.7309,-4.7309,-4.7309,-4.7309,-4.7251,-4.7149,-4.6975,-4.6785,-4.6447,-4.6106,-4.5609,-4.4862,-4.4195,-4.3241,-4.195,-4.1504,-4.0829,-4.0018,-3.9378,-3.9006,-3.8806,-3.868,-3.8831,-3.9057,-3.9246,-3.9295,-3.9634,-3.9697,-3.9697,-3.9697,-3.9697,-3.9697,-3.9697,-3.9697,-3.9697,-3.9697,-3.9697,-3.9697,-3.9697,-3.9697,-3.9697,-3.981,-4.0623,-4.1326,-4.1576,-4.1958,-4.1602,-4.1172,-4.0757,-4.0351,-3.972,-3.9131,-3.8537,-3.8058,-3.7577,-3.7093,-5.3534,-5.367,-5.4296,-5.4583,-5.4735,-5.5463,-5.5767,-5.5749,-5.5919,-5.5987,-5.5953,-5.6038,-5.6292,-5.6765,-5.6867,-5.7154,-5.7746,-5.7695,-5.7662,-5.7321,-5.6575,-5.5984,-5.5982,-5.5859,-5.5823,-5.572,-5.549,-5.5222,-5.5172,-5.4953,-5.439,-5.3935,-5.3321,-5.2524,-5.1414,-5.0665,-4.9864,-4.9171,-4.8405,-4.8007,-4.7964,-4.751,-4.7309,-4.7309,-4.7309,-4.7309,-4.7309,-4.7309,-4.7309,-4.7309,-4.7309,-4.7309,-4.7309,-4.7309,-4.7309,-4.7309,-4.7309,-4.7309,-4.7309,-4.7309,-4.7309,-4.7309,-4.7309,-4.7193,-4.6975,-4.6887,-4.6653,-4.621,-4.5925,-4.5473,-4.4737,-4.4007,-4.3177,-4.2506,-4.183,-4.1251,-4.0605,-4.0147,-3.974,-3.9598,-3.9672,-3.9685,-3.9609,-3.9622,-3.9647,-3.9685,-3.9697,-3.9697,-3.9697,-3.9697,-3.9697,-3.9697,-3.9697,-3.9697,-3.9697,-3.9697,-3.9697,-3.9697,-3.9697,-3.971,-3.9808,-4.0595,-4.1422,-4.1731,-4.1781,-4.1353,-4.0872,-4.0467,-3.9943,-3.9308,-3.8727,-3.8118,-3.7637,-3.7154,-3.6789,-5.3805,-5.4313,-5.4515,-5.4905,-5.5497,-5.6207,-5.6511,-5.6596,-5.7087,-5.7222,-5.7289,-5.7306,-5.734,-5.7577,-5.7577,-5.7729,-5.7848,-5.7915,-5.7881,-5.7831,-5.756,-5.7323,-5.7323,-5.7253,-5.7183,-5.713,-5.6901,-5.6852,-5.6629,-5.6325,-5.5747,-5.471,-5.4224,-5.3447,-5.234,-5.103,-5.0242,-4.9828,-4.86,-4.8022,-4.7922,-4.7553,-4.7309,-4.7309,-4.7309,-4.7309,-4.7309,-4.7309,-4.7309,-4.7309,-4.7309,-4.7309,-4.7309,-4.7309,-4.7309,-4.7309,-4.7309,-4.7309,-4.7309,-4.7309,-4.7309,-4.7309,-4.7266,-4.7164,-4.6916,-4.6771,-4.6462,-4.6015,-4.5473,-4.4876,-4.4256,-4.3499,-4.2679,-4.1746,-4.1248,-4.0782,-4.0326,-3.9981,-3.9788,-3.9685,-3.9697,-3.9697,-3.9697,-3.9697,-3.9697,-3.9697,-3.9697,-3.9697,-3.9697,-3.9697,-3.9697,-3.9697,-3.9697,-3.9697,-3.9697,-3.9697,-3.9697,-3.9697,-3.971,-3.9722,-3.9932,-4.0452,-4.127,-4.1835,-4.1667,-4.1332,-4.0757,-4.0223,-3.9591,-3.8964,-3.8548,-3.813,-3.7346,-3.68,-3.6484,-5.4211,-5.4651,-5.526,-5.5767,-5.6241,-5.6951,-5.7256,-5.734,-5.7695,-5.7881,-5.7881,-5.7881,-5.7881,-5.7881,-5.7865,-5.7881,-5.7915,-5.822,-5.8372,-5.8423,-5.8676,-5.8457,-5.8034,-5.7881,-5.7881,-5.7881,-5.7772,-5.7554,-5.7277,-5.7176,-5.6492,-5.5591,-5.5051,-5.4196,-5.3002,-5.1847,-5.0709,-4.9976,-4.8925,-4.8283,-4.7825,-4.751,-4.7352,-4.7309,-4.7309,-4.7309,-4.7309,-4.7309,-4.7309,-4.7309,-4.7309,-4.7309,-4.7309,-4.7309,-4.7309,-4.7309,-4.7309,-4.7309,-4.7309,-4.7309,-4.7309,-4.7251,-4.7193,-4.7033,-4.6756,-4.6506,-4.615,-4.5745,-4.506,-4.4443,-4.377,-4.2873,-4.1895,-4.1097,-4.0605,-4.0287,-4.0121,-3.989,-3.9749,-3.9697,-3.9697,-3.9697,-3.9697,-3.9697,-3.9697,-3.9697,-3.9697,-3.9697,-3.9697,-3.9697,-3.9697,-3.9697,-3.9697,-3.9697,-3.9697,-3.9697,-3.9697,-3.9697,-3.9697,-3.9722,-4.0007,-4.0374,-4.0933,-4.144,-4.1432,-4.1218,-4.0629,-4.0048,-3.9591,-3.9072,-3.8608,-3.8021,-3.7286,-3.6739,-3.6423,-5.4634,-5.482,-5.6207,-5.685,-5.7002,-5.7594,-5.7797,-5.7848,-5.7865,-5.7881,-5.7881,-5.7881,-5.7881,-5.7881,-5.7881,-5.7949,-5.8068,-5.866,-5.8998,-5.9235,-5.9522,-5.9353,-5.8457,-5.8389,-5.8287,-5.8169,-5.8034,-5.7746,-5.7415,-5.7289,-5.6834,-5.6034,-5.5547,-5.4718,-5.3595,-5.2674,-5.1433,-5.0047,-4.9252,-4.844,-4.7787,-4.7424,-4.7309,-4.7309,-4.7309,-4.7309,-4.7309,-4.7309,-4.7309,-4.7309,-4.7309,-4.7309,-4.7309,-4.7309,-4.7309,-4.7309,-4.7309,-4.7309,-4.7309,-4.7309,-4.7266,-4.7207,-4.7019,-4.6756,-4.6506,-4.615,-4.5776,-4.5321,-4.4723,-4.4007,-4.3232,-4.2079,-4.1261,-4.0707,-4.03,-4.0134,-4.0032,-3.9839,-3.9697,-3.9697,-3.9697,-3.9697,-3.9697,-3.9697,-3.9697,-3.9697,-3.9697,-3.9697,-3.9697,-3.9697,-3.9697,-3.9697,-3.9697,-3.9697,-3.9697,-3.9697,-3.9697,-3.9697,-3.9697,-3.9772,-3.9942,-4.0321,-4.0651,-4.0936,-4.1083,-4.0899,-4.0397,-3.9931,-3.9521,-3.9001,-3.8548,-3.7889,-3.7286,-3.6982,-3.6667,-5.4955,-5.5564,-5.6427,-5.712,-5.7628,-5.7831,-5.7881,-5.7881,-5.7881,-5.7881,-5.7881,-5.7881,-5.7881,-5.7881,-5.7898,-5.8186,-5.8693,-5.9049,-5.9285,-5.9877,-5.9979,-5.9996,-5.9624,-5.9624,-5.9302,-5.8947,-5.8778,-5.8234,-5.7549,-5.7151,-5.6735,-5.6109,-5.545,-5.4851,-5.41,-5.291,-5.1775,-5.0525,-4.9499,-4.8546,-4.7731,-4.7424,-4.7309,-4.7309,-4.7309,-4.7309,-4.7309,-4.7309,-4.7309,-4.7309,-4.7309,-4.7309,-4.7309,-4.7309,-4.7309,-4.7309,-4.7309,-4.7309,-4.7309,-4.7266,-4.7207,-4.6975,-4.6887,-4.6668,-4.6105,-4.5925,-4.5458,-4.4815,-4.4101,-4.3328,-4.2324,-4.1647,-4.106,-4.0567,-4.0236,-3.9981,-3.9839,-3.9736,-3.9697,-3.9697,-3.9697,-3.9697,-3.9697,-3.9697,-3.9697,-3.9697,-3.9697,-3.9697,-3.9697,-3.9697,-3.9697,-3.9697,-3.9697,-3.9697,-3.9697,-3.9697,-3.9697,-3.9697,-3.9697,-3.971,-3.9932,-3.9969,-4.0232,-4.0532,-4.0796,-4.0521,-4.0197,-4.0106,-3.9814,-3.9178,-3.8537,-3.8058,-3.7637,-3.7275,-3.7093,-5.553,-5.6292,-5.7002,-5.7526,-5.7848,-5.7881,-5.7881,-5.7881,-5.7881,-5.7881,-5.7881,-5.7881,-5.7881,-5.7881,-5.7915,-5.8304,-5.9082,-5.9827,-6.0486,-6.1061,-6.1214,-6.1197,-6.118,-6.1061,-6.0672,-5.9674,-5.9021,-5.8425,-5.7842,-5.717,-5.6541,-5.591,-5.5344,-5.4707,-5.4062,-5.2923,-5.1692,-5.0419,-4.9474,-4.8518,-4.763,-4.7381,-4.7309,-4.7309,-4.7309,-4.7309,-4.7309,-4.7309,-4.7309,-4.7309,-4.7309,-4.7309,-4.7309,-4.7309,-4.7309,-4.7309,-4.7309,-4.7222,-4.7164,-4.7121,-4.7033,-4.6756,-4.6594,-4.6284,-4.5835,-4.5504,-4.5,-4.4397,-4.3675,-4.2811,-4.166,-4.111,-4.077,-4.0402,-4.0083,-3.9839,-3.9749,-3.9697,-3.9697,-3.9697,-3.9697,-3.9697,-3.9697,-3.9697,-3.9697,-3.9697,-3.9697,-3.9697,-3.9697,-3.9697,-3.9697,-3.9697,-3.9697,-3.9697,-3.9697,-3.9697,-3.9697,-3.9697,-3.9697,-3.9697,-3.9771,-3.9773,-3.9742,-4.0018,-4.0335,-4.0358,-4.0109,-4.0092,-3.9954,-3.9356,-3.8834,-3.8406,-3.8118,-3.7878,-3.7769,-5.6139,-5.6867,-5.7577,-5.7881,-5.7881,-5.7881,-5.7881,-5.7881,-5.7881,-5.7881,-5.7881,-5.7881,-5.7881,-5.7881,-5.7881,-5.8355,-5.9421,-6.0706,-6.167,-6.2059,-6.2127,-6.2127,-6.2161,-6.2042,-6.1496,-6.0262,-5.9418,-5.8786,-5.8155,-5.7249,-5.6385,-5.5717,-5.5164,-5.4539,-5.3715,-5.2722,-5.1518,-5.0188,-4.93,-4.8389,-4.7501,-4.7294,-4.7309,-4.7309,-4.7309,-4.7309,-4.7309,-4.7309,-4.7309,-4.7309,-4.7309,-4.7309,-4.7309,-4.7309,-4.7309,-4.7309,-4.7251,-4.7121,-4.6975,-4.6887,-4.6756,-4.6506,-4.615,-4.5835,-4.5518,-4.4954,-4.4457,-4.3832,-4.3163,-4.2239,-4.1361,-4.0808,-4.044,-4.0134,-3.9878,-3.9736,-3.9697,-3.9697,-3.9697,-3.9697,-3.9697,-3.9697,-3.9697,-3.9697,-3.9697,-3.9697,-3.9697,-3.9697,-3.9697,-3.9697,-3.9697,-3.9697,-3.9697,-3.9697,-3.9697,-3.9697,-3.9697,-3.9697,-3.9697,-3.9697,-3.9645,-3.9432,-3.9401,-3.9631,-3.9868,-3.9898,-4.0028,-4.0028,-3.9825,-3.9428,-3.9238,-3.893,-3.8764,-3.8608,-3.8488,-5.6139,-5.6867,-5.7577,-5.7881,-5.7881,-5.7881,-5.7881,-5.7881,-5.7881,-5.7881,-5.7881,-5.7881,-5.7881,-5.7881,-5.7881,-5.8626,-5.9844,-6.1129,-6.2009,-6.2195,-6.2195,-6.2195,-6.2144,-6.2076,-6.1626,-6.088,-5.9893,-5.9055,-5.8212,-5.7133,-5.6205,-5.5637,-5.4925,-5.4226,-5.3432,-5.2458,-5.1192,-4.9919,-4.9048,-4.8125,-4.7531,-4.7309,-4.7309,-4.7309,-4.7309,-4.7309,-4.7309,-4.7309,-4.7309,-4.7309,-4.7309,-4.7309,-4.7266,-4.7266,-4.7266,-4.7207,-4.7062,-4.6931,-4.6844,-4.6727,-4.6417,-4.6105,-4.5835,-4.5381,-4.4876,-4.4397,-4.3893,-4.3067,-4.2289,-4.1411,-4.0984,-4.0491,-4.0236,-4.0032,-3.989,-3.9697,-3.9697,-3.9697,-3.9697,-3.9697,-3.9697,-3.9697,-3.9697,-3.9697,-3.9697,-3.9697,-3.9697,-3.9697,-3.9697,-3.9697,-3.9697,-3.9697,-3.9697,-3.9697,-3.9697,-3.9697,-3.9697,-3.9697,-3.9697,-3.9697,-3.9542,-3.9166,-3.9111,-3.9361,-3.9484,-3.9539,-3.9651,-3.989,-4.0008,-3.9884,-3.9767,-3.9568,-3.9414,-3.9249,-3.919,-5.6697,-5.7391,-5.7746,-5.7881,-5.7881,-5.7881,-5.7881,-5.7881,-5.7881,-5.7881,-5.7881,-5.7881,-5.7881,-5.7881,-5.7881,-5.8541,-5.9641,-6.0622,-6.1163,-6.1214,-6.1197,-6.1214,-6.1264,-6.1247,-6.0912,-6.0252,-5.9475,-5.8813,-5.8014,-5.6849,-5.5983,-5.5369,-5.4691,-5.394,-5.2942,-5.1785,-5.0647,-4.9539,-4.8598,-4.7856,-4.7339,-4.7309,-4.7309,-4.7309,-4.7309,-4.7309,-4.7309,-4.7309,-4.7309,-4.7309,-4.7309,-4.7222,-4.7164,-4.7062,-4.7077,-4.7077,-4.6887,-4.6653,-4.6535,-4.6358,-4.606,-4.57,-4.5367,-4.4968,-4.4411,-4.3879,-4.3163,-4.2289,-4.1759,-4.106,-4.0529,-4.0224,-4.007,-3.989,-3.9749,-3.9697,-3.9697,-3.9697,-3.9697,-3.9697,-3.9697,-3.9697,-3.9697,-3.9697,-3.9697,-3.9697,-3.9697,-3.9697,-3.9697,-3.9697,-3.9697,-3.9697,-3.9697,-3.9697,-3.9697,-3.9697,-3.9697,-3.9697,-3.9697,-3.9697,-3.9594,-3.9218,-3.9007,-3.9058,-3.9172,-3.9129,-3.9554,-3.9813,-4.0071,-4.0313,-4.0164,-3.9989,-3.9931,-3.9873,-3.9873,-5.7222,-5.7881,-5.7881,-5.7881,-5.7881,-5.7881,-5.7881,-5.7881,-5.7881,-5.7881,-5.7881,-5.7881,-5.7881,-5.7932,-5.8118,-5.849,-5.9066,-5.9844,-6.0199,-6.025,-6.025,-6.0165,-6.0131,-6.0042,-5.9983,-5.9425,-5.8868,-5.8141,-5.7696,-5.6613,-5.5718,-5.504,-5.4523,-5.358,-5.2308,-5.1184,-5.0011,-4.8994,-4.8013,-4.7482,-4.7352,-4.7309,-4.7309,-4.7309,-4.7309,-4.7309,-4.7309,-4.7309,-4.7309,-4.7266,-4.7222,-4.7121,-4.6931,-4.6741,-4.6712,-4.6668,-4.6535,-4.6358,-4.6135,-4.5776,-4.5504,-4.5198,-4.469,-4.4317,-4.3846,-4.3115,-4.2239,-4.1511,-4.106,-4.0808,-4.0287,-4.0083,-3.9929,-3.9788,-3.9749,-3.9697,-3.9697,-3.9697,-3.9697,-3.9697,-3.9697,-3.9697,-3.9697,-3.9697,-3.9697,-3.9697,-3.9697,-3.9697,-3.9697,-3.9697,-3.9697,-3.9697,-3.9697,-3.9697,-3.9697,-3.9697,-3.9697,-3.9697,-3.9697,-3.9697,-3.953,-3.9322,-3.9164,-3.8899,-3.8635,-3.8683,-3.9211,-3.979,-4.012,-4.0376,-4.0395,-4.0479,-4.0467,-4.0571,-4.0629,-5.7222,-5.7881,-5.7881,-5.7881,-5.7881,-5.7881,-5.7881,-5.7881,-5.7881,-5.7881,-5.7881,-5.7881,-5.7881,-5.8,-5.8524,-5.8846,-5.9167,-5.9539,-5.9827,-5.9793,-5.9844,-5.9844,-5.9996,-6.0097,-5.933,-5.8672,-5.8257,-5.8041,-5.7384,-5.6292,-5.545,-5.4758,-5.4014,-5.3074,-5.1775,-5.0603,-4.9619,-4.8647,-4.7797,-4.7352,-4.7294,-4.7309,-4.7309,-4.7309,-4.7309,-4.7309,-4.7309,-4.7309,-4.7294,-4.7251,-4.7062,-4.6975,-4.68,-4.6314,-4.606,-4.6015,-4.597,-4.5925,-4.579,-4.5336,-4.4876,-4.4583,-4.4162,-4.3737,-4.3018,-4.2289,-4.156,-4.1361,-4.0744,-4.0287,-4.0083,-3.989,-3.9749,-3.9749,-3.9697,-3.9697,-3.9697,-3.9697,-3.9697,-3.9697,-3.9697,-3.9697,-3.9697,-3.9697,-3.9697,-3.9697,-3.9697,-3.9697,-3.9697,-3.9697,-3.9697,-3.9697,-3.9697,-3.9697,-3.9697,-3.9697,-3.9697,-3.9697,-3.9697,-3.9697,-3.953,-3.9374,-3.8998,-3.8757,-3.8444,-3.8605,-3.929,-3.9854,-4.0214,-4.0554,-4.0834,-4.1,-4.1069,-4.123,-4.132,-5.7611,-5.7881,-5.7881,-5.7881,-5.7881,-5.7881,-5.7881,-5.7881,-5.7881,-5.7881,-5.7881,-5.7881,-5.7881,-5.7983,-5.8271,-5.8355,-5.8457,-5.8761,-5.8863,-5.8913,-5.8913,-5.8879,-5.8775,-5.8734,-5.8257,-5.7959,-5.7431,-5.6938,-5.6484,-5.5913,-5.5189,-5.4427,-5.3559,-5.2453,-5.1141,-4.9988,-4.9014,-4.8151,-4.7574,-4.7324,-4.7309,-4.7309,-4.7309,-4.7309,-4.7309,-4.7309,-4.7309,-4.7309,-4.7207,-4.7106,-4.6931,-4.6712,-4.6403,-4.6015,-4.579,-4.5244,-4.5106,-4.5106,-4.5167,-4.4783,-4.4397,-4.3974,-4.3546,-4.297,-4.2155,-4.161,-4.101,-4.063,-4.0326,-4.007,-3.9929,-3.98,-3.9749,-3.9697,-3.9697,-3.9697,-3.9697,-3.9697,-3.9697,-3.9697,-3.9697,-3.9697,-3.9697,-3.9697,-3.9697,-3.9697,-3.9697,-3.9697,-3.9697,-3.9697,-3.9697,-3.9697,-3.9697,-3.9697,-3.9697,-3.9697,-3.9697,-3.9697,-3.9697,-3.9645,-3.953,-3.9322,-3.8998,-3.8684,-3.8376,-3.876,-3.9436,-3.9777,-4.0078,-4.0664,-4.1275,-4.1344,-4.1459,-4.17,-4.1802,-5.7881,-5.7881,-5.7881,-5.7881,-5.7881,-5.7881,-5.7881,-5.7881,-5.7881,-5.7881,-5.7881,-5.7881,-5.7881,-5.7881,-5.7915,-5.7966,-5.7915,-5.7881,-5.7881,-5.7881,-5.7881,-5.7966,-5.8031,-5.78,-5.7614,-5.7256,-5.6635,-5.6105,-5.5511,-5.4843,-5.4182,-5.3925,-5.3105,-5.1783,-5.0439,-4.9471,-4.8594,-4.7645,-4.7426,-4.7309,-4.7309,-4.7309,-4.7309,-4.7309,-4.7309,-4.7309,-4.7309,-4.7207,-4.7077,-4.6975,-4.6741,-4.6447,-4.606,-4.5714,-4.529,-4.4783,-4.4457,-4.4176,-4.4223,-4.4021,-4.377,-4.3341,-4.2811,-4.2155,-4.156,-4.1161,-4.0858,-4.0224,-4.0019,-3.9878,-3.9736,-3.9697,-3.9697,-3.9697,-3.9697,-3.9697,-3.9697,-3.9697,-3.9697,-3.9697,-3.9697,-3.9697,-3.9697,-3.9697,-3.9697,-3.9697,-3.9697,-3.9697,-3.9697,-3.9697,-3.9697,-3.9697,-3.9697,-3.9697,-3.9697,-3.9697,-3.9697,-3.9697,-3.9697,-3.9697,-3.9581,-3.9374,-3.905,-3.8671,-3.8409,-3.8591,-3.9135,-3.9532,-3.9953,-4.0777,-4.1504,-4.1618,-4.1732,-4.2029,-4.2268,-5.7881,-5.7881,-5.7881,-5.7881,-5.7881,-5.7881,-5.7881,-5.7881,-5.7881,-5.7881,-5.7881,-5.7881,-5.7881,-5.7881,-5.7881,-5.7881,-5.7881,-5.7881,-5.7881,-5.7881,-5.7865,-5.7763,-5.7623,-5.7442,-5.7238,-5.6876,-5.5951,-5.5171,-5.4514,-5.3495,-5.3019,-5.267,-5.2195,-5.0916,-4.9769,-4.8905,-4.8283,-4.7529,-4.7309,-4.7309,-4.7309,-4.7309,-4.7309,-4.7309,-4.7309,-4.7309,-4.7294,-4.7062,-4.6887,-4.6829,-4.6476,-4.6135,-4.57,-4.5258,-4.4797,-4.427,-4.3923,-4.3554,-4.3362,-4.3231,-4.2935,-4.2498,-4.1944,-4.1461,-4.111,-4.0542,-4.0173,-4.0083,-3.9878,-3.9788,-3.9697,-3.9697,-3.9697,-3.9697,-3.9697,-3.9697,-3.9697,-3.9697,-3.9697,-3.9697,-3.9697,-3.9697,-3.9697,-3.9697,-3.9697,-3.9697,-3.9697,-3.9697,-3.9697,-3.9697,-3.9697,-3.9697,-3.9697,-3.9697,-3.9697,-3.9697,-3.9697,-3.9697,-3.9697,-3.9697,-3.9697,-3.9374,-3.9102,-3.8881,-3.8656,-3.8715,-3.8851,-3.937,-4.0018,-4.1064,-4.1639,-4.1769,-4.2056,-4.2369,-4.2594,-5.7881,-5.7881,-5.7881,-5.7881,-5.7881,-5.7881,-5.7881,-5.7881,-5.7881,-5.7881,-5.7881,-5.7881,-5.7881,-5.7881,-5.7881,-5.7881,-5.7881,-5.7881,-5.7848,-5.7695,-5.7509,-5.7183,-5.6923,-5.6418,-5.5863,-5.5547,-5.4776,-5.4162,-5.3526,-5.2524,-5.1805,-5.1403,-5.0983,-5.0162,-4.9169,-4.8371,-4.7737,-4.7516,-4.7309,-4.7309,-4.7309,-4.7309,-4.7309,-4.7309,-4.7309,-4.7207,-4.7062,-4.6975,-4.6741,-4.6476,-4.618,-4.5776,-4.5336,-4.4783,-4.4237,-4.3738,-4.3477,-4.3264,-4.2793,-4.2655,-4.2413,-4.1759,-4.1211,-4.0757,-4.0694,-4.0236,-4.0019,-3.9878,-3.98,-3.9697,-3.9697,-3.9697,-3.9697,-3.9697,-3.9697,-3.9697,-3.9697,-3.9697,-3.9697,-3.9697,-3.9697,-3.9697,-3.9697,-3.9697,-3.9697,-3.9697,-3.9697,-3.9697,-3.9697,-3.9697,-3.9697,-3.9697,-3.9697,-3.9697,-3.9697,-3.9697,-3.9697,-3.9697,-3.9697,-3.9697,-3.9697,-3.9478,-3.9206,-3.8998,-3.8878,-3.8937,-3.907,-3.9387,-4.005,-4.0947,-4.1538,-4.1973,-4.2277,-4.2582,-4.2718,-5.7881,-5.7881,-5.7881,-5.7881,-5.7881,-5.7881,-5.7881,-5.7881,-5.7881,-5.7881,-5.7881,-5.7881,-5.7881,-5.7881,-5.7881,-5.7881,-5.7797,-5.7662,-5.7577,-5.7236,-5.6778,-5.6385,-5.5953,-5.5534,-5.5042,-5.4407,-5.371,-5.3181,-5.2674,-5.1869,-5.0979,-5.0133,-4.9469,-4.9005,-4.8599,-4.7839,-4.7309,-4.7309,-4.7309,-4.7309,-4.7309,-4.7309,-4.7309,-4.7266,-4.7222,-4.7121,-4.6887,-4.6756,-4.6447,-4.618,-4.5866,-4.5381,-4.4876,-4.4331,-4.3786,-4.3456,-4.3202,-4.3125,-4.2799,-4.2356,-4.1908,-4.12,-4.0694,-4.0338,-4.0134,-4.0032,-3.9839,-3.9736,-3.9697,-3.9697,-3.9697,-3.9697,-3.9697,-3.9697,-3.9697,-3.9697,-3.9697,-3.9697,-3.9697,-3.9697,-3.9697,-3.9697,-3.9697,-3.9697,-3.9697,-3.9697,-3.9697,-3.9697,-3.9697,-3.9697,-3.9697,-3.9697,-3.9697,-3.9697,-3.9697,-3.9697,-3.9697,-3.9697,-3.9697,-3.9697,-3.9645,-3.9478,-3.931,-3.9206,-3.9124,-3.9155,-3.9185,-3.9316,-3.9901,-4.0697,-4.1262,-4.1766,-4.1951,-4.2198,-4.2504,-5.7881,-5.7881,-5.7881,-5.7881,-5.7881,-5.7881,-5.7881,-5.7881,-5.7881,-5.7881,-5.7881,-5.7881,-5.7881,-5.7848,-5.7797,-5.7695,-5.756,-5.712,-5.6833,-5.6575,-5.5894,-5.5503,-5.519,-5.4804,-5.414,-5.4138,-5.3257,-5.2296,-5.18,-5.0707,-4.9848,-4.9258,-4.8668,-4.8189,-4.7983,-4.7583,-4.7309,-4.7309,-4.7309,-4.7309,-4.7309,-4.7266,-4.7222,-4.7207,-4.7033,-4.6887,-4.6741,-4.6447,-4.618,-4.5911,-4.5549,-4.5046,-4.4397,-4.3962,-4.3657,-4.3507,-4.3024,-4.2899,-4.2892,-4.2242,-4.1518,-4.0785,-4.0415,-4.0083,-4.0032,-3.989,-3.9749,-3.9697,-3.9697,-3.9697,-3.9697,-3.9697,-3.9697,-3.9697,-3.9697,-3.9697,-3.9697,-3.9697,-3.9697,-3.9697,-3.9697,-3.9697,-3.9697,-3.9697,-3.9697,-3.9697,-3.9697,-3.9697,-3.9697,-3.9697,-3.9697,-3.9697,-3.9697,-3.9697,-3.9697,-3.9697,-3.9697,-3.9697,-3.9697,-3.9697,-3.9697,-3.9645,-3.9478,-3.9374,-3.936,-3.933,-3.9228,-3.9099,-3.9807,-4.0442,-4.1031,-4.1447,-4.1564,-4.1769,-4.2032,-5.7881,-5.7881,-5.7881,-5.7881,-5.7881,-5.7881,-5.7881,-5.7881,-5.7881,-5.7865,-5.7881,-5.7881,-5.7881,-5.778,-5.7374,-5.7154,-5.7036,-5.6444,-5.6036,-5.5776,-5.4996,-5.455,-5.4205,-5.3634,-5.3023,-5.2487,-5.1815,-5.1289,-5.0525,-4.978,-4.9291,-4.8785,-4.8175,-4.7724,-4.7568,-4.7352,-4.7309,-4.7309,-4.7309,-4.7309,-4.7266,-4.7121,-4.7019,-4.7019,-4.6815,-4.6624,-4.6432,-4.6135,-4.5821,-4.5504,-4.5138,-4.4476,-4.401,-4.3595,-4.3462,-4.3336,-4.2941,-4.3152,-4.2793,-4.2128,-4.1513,-4.0847,-4.0222,-3.9903,-3.9788,-3.9788,-3.9685,-3.9697,-3.9697,-3.9697,-3.9697,-3.9697,-3.9697,-3.9697,-3.9697,-3.9697,-3.9697,-3.9697,-3.9697,-3.9697,-3.9697,-3.9697,-3.9697,-3.9697,-3.9697,-3.9697,-3.9697,-3.9697,-3.9697,-3.9697,-3.9697,-3.9697,-3.9697,-3.9697,-3.9697,-3.9697,-3.9697,-3.9697,-3.9697,-3.9697,-3.9697,-3.9697,-3.9645,-3.9542,-3.9542,-3.9542,-3.9426,-3.9399,-3.9615,-4.0095,-4.0623,-4.1,-4.1204,-4.1342,-4.153,-5.7881,-5.7881,-5.7881,-5.7881,-5.7881,-5.7881,-5.778,-5.756,-5.7492,-5.7391,-5.7154,-5.712,-5.7103,-5.6951,-5.6697,-5.6427,-5.6342,-5.5577,-5.5171,-5.4895,-5.408,-5.3584,-5.3069,-5.255,-5.2154,-5.1445,-5.1016,-5.0596,-5.0034,-4.9493,-4.8893,-4.8286,-4.7837,-4.7553,-4.7381,-4.7309,-4.7309,-4.7309,-4.7309,-4.7222,-4.7106,-4.7004,-4.6873,-4.6756,-4.655,-4.6284,-4.6046,-4.573,-4.5381,-4.5,-4.4523,-4.3865,-4.354,-4.3299,-4.3162,-4.3044,-4.319,-4.3267,-4.2668,-4.1942,-4.1347,-4.0763,-4.0102,-3.9735,-3.9697,-3.9697,-3.9697,-3.9697,-3.9697,-3.9697,-3.9697,-3.9697,-3.9697,-3.9697,-3.9697,-3.9697,-3.9697,-3.9697,-3.9697,-3.9697,-3.9697,-3.9697,-3.9697,-3.9697,-3.9697,-3.9697,-3.9697,-3.9697,-3.9697,-3.9697,-3.9697,-3.9697,-3.9697,-3.9697,-3.9697,-3.9697,-3.9697,-3.9697,-3.9697,-3.9697,-3.9697,-3.9697,-3.9697,-3.9697,-3.9645,-3.9645,-3.9645,-3.9735,-3.9746,-3.9859,-4.0187,-4.0513,-4.0752,-4.0849,-4.0987,-5.7881,-5.7865,-5.7865,-5.778,-5.778,-5.7645,-5.7323,-5.6765,-5.6782,-5.641,-5.5801,-5.5919,-5.6004,-5.58,-5.5698,-5.5647,-5.5408,-5.4679,-5.4287,-5.3946,-5.3231,-5.2717,-5.2385,-5.2066,-5.1577,-5.1129,-5.0711,-5.023,-4.9812,-4.9031,-4.8286,-4.7837,-4.7624,-4.7424,-4.7352,-4.7309,-4.7309,-4.7309,-4.7309,-4.7164,-4.7019,-4.6873,-4.6697,-4.6491,-4.615,-4.5925,-4.5609,-4.5244,-4.4769,-4.435,-4.3865,-4.3389,-4.305,-4.29,-4.2907,-4.2984,-4.3156,-4.2859,-4.2426,-4.1613,-4.1131,-4.0566,-4.005,-3.9785,-3.9697,-3.9697,-3.9697,-3.9697,-3.9697,-3.9697,-3.9697,-3.9697,-3.9697,-3.9697,-3.9697,-3.9697,-3.9697,-3.9697,-3.9697,-3.9697,-3.9697,-3.9697,-3.9697,-3.9697,-3.9697,-3.9697,-3.9697,-3.9697,-3.9697,-3.9697,-3.9697,-3.9697,-3.9697,-3.9697,-3.9697,-3.9697,-3.9697,-3.9697,-3.9697,-3.9697,-3.9697,-3.9697,-3.9697,-3.9697,-3.9697,-3.9697,-3.9697,-3.9697,-3.971,-3.9848,-3.9973,-4.0011,-4.0249,-4.0375,-4.0513,-5.7594,-5.712,-5.712,-5.6833,-5.6376,-5.6342,-5.6207,-5.6002,-5.6038,-5.5869,-5.5681,-5.5681,-5.5512,-5.5647,-5.5036,-5.4763,-5.434,-5.3797,-5.3217,-5.2807,-5.258,-5.2158,-5.1815,-5.152,-5.1092,-5.0618,-5.0191,-4.9812,-4.9225,-4.8526,-4.8049,-4.7666,-4.7467,-4.7337,-4.7309,-4.7309,-4.7309,-4.7266,-4.7266,-4.7121,-4.6887,-4.6712,-4.6491,-4.6105,-4.573,-4.5473,-4.5106,-4.469,-4.4256,-4.3804,-4.3355,-4.2873,-4.2364,-4.2338,-4.237,-4.2171,-4.2195,-4.2071,-4.1625,-4.1065,-4.0664,-4.0438,-3.9986,-3.9772,-3.9697,-3.9697,-3.9697,-3.9697,-3.9697,-3.9697,-3.9697,-3.9697,-3.9697,-3.9697,-3.9697,-3.9697,-3.9697,-3.9697,-3.9697,-3.9697,-3.9697,-3.9697,-3.9697,-3.9697,-3.9697,-3.9697,-3.9697,-3.9697,-3.9697,-3.9697,-3.9697,-3.9697,-3.9697,-3.9697,-3.9697,-3.9697,-3.9697,-3.9697,-3.9697,-3.9697,-3.9697,-3.9697,-3.9697,-3.9697,-3.9697,-3.9697,-3.9697,-3.9697,-3.9697,-3.9697,-3.9785,-3.9735,-3.9747,-3.9948,-4.0049,-5.6782,-5.641,-5.6376,-5.5936,-5.5344,-5.5277,-5.5141,-5.4938,-5.5141,-5.5158,-5.4836,-5.4682,-5.4716,-5.4563,-5.4002,-5.3748,-5.3679,-5.3081,-5.2603,-5.2461,-5.2073,-5.1762,-5.1424,-5.1032,-5.0618,-5.0152,-4.9757,-4.9412,-4.8816,-4.8191,-4.7724,-4.7467,-4.7337,-4.7309,-4.7309,-4.7309,-4.7222,-4.7164,-4.7121,-4.699,-4.6771,-4.6491,-4.6105,-4.5745,-4.5321,-4.4908,-4.4597,-4.4176,-4.3642,-4.3232,-4.279,-4.2253,-4.1789,-4.1745,-4.1905,-4.1709,-4.1727,-4.144,-4.1094,-4.0777,-4.045,-4.0187,-3.9898,-3.976,-3.9697,-3.9697,-3.9697,-3.9697,-3.9697,-3.9697,-3.9697,-3.9697,-3.9697,-3.9697,-3.9697,-3.9697,-3.9697,-3.9697,-3.9697,-3.9697,-3.9697,-3.9697,-3.9697,-3.9697,-3.9697,-3.9697,-3.9697,-3.9697,-3.9697,-3.9697,-3.9697,-3.9697,-3.9697,-3.9697,-3.9697,-3.9697,-3.9697,-3.9697,-3.9697,-3.9697,-3.9697,-3.9697,-3.9697,-3.9697,-3.9697,-3.9697,-3.9697,-3.9697,-3.9697,-3.9697,-3.9697,-3.9697,-3.9697,-3.9747,-3.981,-5.5664,-5.5615,-5.5529,-5.5124,-5.4549,-5.4499,-5.416,-5.3619,-5.4211,-5.4126,-5.3602,-5.3314,-5.3364,-5.3446,-5.3122,-5.2967,-5.2861,-5.2428,-5.2145,-5.2164,-5.1688,-5.1296,-5.094,-5.0656,-5.0191,-4.9797,-4.9396,-4.8949,-4.8453,-4.7964,-4.7553,-4.7309,-4.7309,-4.7309,-4.7309,-4.7207,-4.7106,-4.6975,-4.6844,-4.6712,-4.6447,-4.615,-4.5745,-4.5321,-4.4815,-4.4303,-4.4035,-4.3512,-4.2852,-4.2533,-4.219,-4.161,-4.1229,-4.1042,-4.1204,-4.1235,-4.1112,-4.0842,-4.0551,-4.035,-4.0149,-3.991,-3.9697,-3.9697,-3.9697,-3.9697,-3.9697,-3.9697,-3.9697,-3.9697,-3.9697,-3.9697,-3.9697,-3.9697,-3.9697,-3.9697,-3.9697,-3.9697,-3.9697,-3.9697,-3.9697,-3.9697,-3.9697,-3.9697,-3.9697,-3.9697,-3.9697,-3.9697,-3.9697,-3.9697,-3.9697,-3.9697,-3.9697,-3.9697,-3.9697,-3.9697,-3.9697,-3.9697,-3.9697,-3.9697,-3.9697,-3.9697,-3.9697,-3.9697,-3.9697,-3.9697,-3.9697,-3.9697,-3.9697,-3.9697,-3.9697,-3.9697,-3.9697,-3.9697,-3.9697,-5.5378,-5.482,-5.4262,-5.3923,-5.3771,-5.3771,-5.3687,-5.3484,-5.35,-5.3449,-5.328,-5.3179,-5.3076,-5.2903,-5.2607,-5.2466,-5.2307,-5.1964,-5.1668,-5.1466,-5.1162,-5.0727,-5.0324,-5.0073,-4.9733,-4.9291,-4.8826,-4.8438,-4.7992,-4.7666,-4.751,-4.7309,-4.7309,-4.7309,-4.7309,-4.7164,-4.6975,-4.6844,-4.6535,-4.6314,-4.6015,-4.588,-4.5609,-4.4908,-4.4256,-4.377,-4.3403,-4.29,-4.2253,-4.1746,-4.1547,-4.106,-4.0466,-4.0325,-4.0298,-4.023,-4.0264,-4.0136,-4.0061,-3.9986,-3.9873,-3.981,-3.9697,-3.9697,-3.9697,-3.9697,-3.9697,-3.9697,-3.9697,-3.9697,-3.9697,-3.9697,-3.9697,-3.9697,-3.9697,-3.9697,-3.9697,-3.9697,-3.9697,-3.9697,-3.9697,-3.9697,-3.9697,-3.9697,-3.9697,-3.9697,-3.9697,-3.9697,-3.9697,-3.9697,-3.9697,-3.9697,-3.9697,-3.9697,-3.9697,-3.9697,-3.9697,-3.9697,-3.9697,-3.9697,-3.9697,-3.9697,-3.9697,-3.9697,-3.9697,-3.9697,-3.9697,-3.9697,-3.9697,-3.9697,-3.9697,-3.9697,-3.9697,-3.9697,-3.9697,-5.4499,-5.4059,-5.367,-5.3518,-5.3518,-5.3518,-5.3467,-5.3348,-5.3264,-5.3093,-5.2938,-5.2903,-5.2834,-5.2624,-5.234,-5.2053,-5.1891,-5.154,-5.1205,-5.094,-5.0573,-5.0207,-4.9852,-4.9477,-4.9194,-4.8759,-4.8328,-4.7907,-4.7624,-4.7452,-4.7381,-4.7309,-4.7309,-4.7309,-4.7266,-4.7062,-4.6844,-4.6756,-4.6269,-4.588,-4.5518,-4.5336,-4.5152,-4.4443,-4.3832,-4.3355,-4.2873,-4.24,-4.1759,-4.1248,-4.0997,-4.0643,-4.0185,-4.0006,-3.9852,-3.9786,-3.976,-3.9697,-3.9697,-3.9697,-3.9697,-3.9697,-3.9697,-3.9697,-3.9697,-3.9697,-3.9697,-3.9697,-3.9697,-3.9697,-3.9697,-3.9697,-3.9697,-3.9697,-3.9697,-3.9697,-3.9697,-3.9697,-3.9697,-3.9697,-3.9697,-3.9697,-3.9697,-3.9697,-3.9697,-3.9697,-3.9697,-3.9697,-3.9697,-3.9697,-3.9697,-3.9697,-3.9697,-3.9697,-3.9697,-3.9697,-3.9697,-3.9697,-3.9697,-3.9697,-3.9697,-3.9697,-3.9697,-3.9697,-3.9697,-3.9697,-3.9697,-3.9697,-3.9697,-3.9697,-3.9697,-3.9697,-3.9697,-3.9697,-3.9697,-5.3551,-5.3518,-5.3518,-5.3518,-5.3501,-5.3467,-5.3348,-5.3213,-5.3144,-5.2903,-5.2589,-5.2518,-5.2395,-5.2269,-5.2033,-5.1721,-5.1387,-5.1032,-5.0711,-5.0425,-5.0034,-4.9677,-4.9316,-4.8949,-4.8661,-4.8343,-4.7922,-4.7709,-4.7553,-4.7424,-4.7337,-4.7309,-4.7309,-4.7294,-4.7149,-4.6975,-4.6756,-4.6403,-4.597,-4.5473,-4.5075,-4.4705,-4.4518,-4.4035,-4.3417,-4.2852,-4.2449,-4.1944,-4.1324,-4.0909,-4.0491,-4.0185,-4.0032,-3.9826,-3.9788,-3.9697,-3.9697,-3.9697,-3.9697,-3.9697,-3.9697,-3.9697,-3.9697,-3.9697,-3.9697,-3.9697,-3.9697,-3.9697,-3.9697,-3.9697,-3.9697,-3.9697,-3.9697,-3.9697,-3.9697,-3.9697,-3.9697,-3.9697,-3.9697,-3.9697,-3.9697,-3.9697,-3.9697,-3.9697,-3.9697,-3.9697,-3.9697,-3.9697,-3.9697,-3.9697,-3.9697,-3.9697,-3.9697,-3.9697,-3.9697,-3.9697,-3.9697,-3.9697,-3.9697,-3.9697,-3.9697,-3.9697,-3.9697,-3.9697,-3.9697,-3.9697,-3.9697,-3.9697,-3.9697,-3.9697,-3.9697,-3.9697,-3.9697,-3.9697,-3.9697,-5.3518,-5.3518,-5.3518,-5.3518,-5.3467,-5.3332,-5.3213,-5.3144,-5.285,-5.2589,-5.2324,-5.2069,-5.1924,-5.1888,-5.152,-5.1183,-5.0934,-5.0496,-5.0246,-4.9955,-4.9557,-4.9178,-4.8852,-4.8537,-4.8244,-4.7922,-4.7666,-4.7538,-4.7424,-4.7352,-4.7309,-4.7266,-4.7266,-4.7164,-4.6931,-4.6712,-4.6447,-4.6105,-4.564,-4.5138,-4.463,-4.427,-4.3893,-4.3369,-4.279,-4.2204,-4.1647,-4.1248,-4.0782,-4.0326,-4.0032,-3.9839,-3.9788,-3.9736,-3.9697,-3.9697,-3.9697,-3.9697,-3.9697,-3.9697,-3.9697,-3.9697,-3.9697,-3.9697,-3.9697,-3.9697,-3.9697,-3.9697,-3.9697,-3.9697,-3.9697,-3.9697,-3.9697,-3.9697,-3.9697,-3.9697,-3.9697,-3.9697,-3.9697,-3.9697,-3.9697,-3.9697,-3.9697,-3.9697,-3.9697,-3.9697,-3.9697,-3.9697,-3.9697,-3.9697,-3.9697,-3.9697,-3.9697,-3.9697,-3.9697,-3.9697,-3.9697,-3.9697,-3.9697,-3.9697,-3.9697,-3.9697,-3.9697,-3.9697,-3.9697,-3.9697,-3.9697,-3.9697,-3.9697,-3.9697,-3.9697,-3.9697,-3.9697,-3.9697,-3.9697]},{"header":{"parameterUnit":"m.s-1","parameterCategory":1,"la1":31.0,"la2":29.5877,"lo1":-88.7671,"lo2":-86.6584,"dx":0.0162,"dy":0.0185,"nx":115,"ny":88,"refTime":"2022-12-28T06:00:00:Z","depth":0,"parameterNumber":3,"parameterNumberName":"V-component_of_WINDS"},"data":[0.0,0.0,0.0,0.0,0.0,0.0,0.0,0.0,0.0,0.0,0.0,0.0,0.0,0.0,0.0,0.0,0.0,0.0,0.0,0.0,0.0,0.0,0.0,0.0,0.0,0.0,0.0,0.0,0.0,0.0,0.0,0.0,0.0,0.0,0.0,0.0,0.0,0.0,0.0,0.0,0.0,0.0,0.0,0.0,0.0,0.0,0.0,0.0,0.0,0.0,0.0,0.0,0.0,0.0,0.0,0.0,0.0,0.0,0.0,0.0,0.0,0.0,0.0,0.0,0.0,0.0,0.0,0.0,0.0,0.0,0.0,0.0,0.0,0.0,0.0,0.0,0.0,0.0,0.0,0.0,0.0,0.0,0.0,0.0,0.0,0.0,0.0,0.0,0.0,0.0,0.0,0.0,0.0,0.0,0.0,0.0,0.0,0.0,0.0,0.0,0.0,0.0,0.0,0.0,0.0,0.0,0.0,0.0,0.0,0.0,0.0,0.0,0.0,0.0,0.0,0.0,0.0,0.0,0.0,0.0,0.0,0.0,0.0,0.0,0.0,0.0,0.0,0.0,0.0,0.0,0.0,0.0,0.0,0.0,0.0,0.0,0.0,0.0,0.0,0.0,0.0,0.0,0.0,0.0,0.0,0.0,0.0,0.0,0.0,0.0,0.0,0.0,0.0,0.0,0.0,0.0,0.0,0.0,0.0,0.0,0.0,0.0,0.0,0.0,0.0,0.0,0.0,0.0,0.0,0.0,0.0,0.0,0.0,0.0,0.0,0.0,0.0,0.0,0.0,0.0,0.0,0.0,0.0,0.0,0.0,0.0,0.0,0.0,0.0,0.0,0.0,0.0,0.0,0.0,0.0,0.0,0.0,0.0,0.0,0.0,0.0,0.0,0.0,0.0,0.0,0.0,0.0,0.0,0.0,0.0,0.0,0.0,0.0,0.0,0.0,0.0,0.0,0.0,0.0,0.0,0.0,0.0,0.0,0.0,0.0,0.0,0.0,0.0,0.0,0.0,0.0,0.0,0.0,0.0,0.0,0.0,0.0,0.0,0.0,0.0,0.0,0.0,0.0,0.0,0.0,0.0,0.0,0.0,0.0,0.0,0.0,0.0,0.0,0.0,0.0,0.0,0.0,0.0,0.0,0.0,0.0,0.0,0.0,0.0,0.0,0.0,0.0,0.0,0.0,0.0,0.0,0.0,0.0,0.0,0.0,0.0,0.0,0.0,0.0,0.0,0.0,0.0,0.0,0.0,0.0,0.0,0.0,0.0,0.0,0.0,0.0,0.0,0.0,0.0,0.0,0.0,0.0,0.0,0.0,0.0,0.0,0.0,0.0,0.0,0.0,0.0,0.0,0.0,0.0,0.0,0.0,0.0,0.0,0.0,0.0,0.0,0.0,0.0,0.0,0.0,0.0,0.0,0.0,0.0,0.0,0.0,0.0,0.0,0.0,0.0,0.0,0.0,0.0,0.0,0.0,0.0,0.0,0.0,0.0,0.0,0.0,0.0,0.0,0.0,0.0,0.0,0.0,0.0,0.0,0.0,0.0,0.0,0.0,0.0,0.0,0.0,0.0,0.0,0.0,0.0,0.0,0.0,0.0,0.0,0.0,0.0,0.0,0.0,0.0,0.0,0.0,0.0,0.0,0.0,0.0,0.0,0.0,0.0,0.0,0.0,0.0,0.0,0.0,0.0,0.0,0.0,0.0,0.0,0.0,0.0,0.0,0.0,0.0,0.0,0.0,0.0,0.0,0.0,0.0,0.0,0.0,0.0,0.0,0.0,0.0,0.0,0.0,0.0,0.0,0.0,0.0,0.0,0.0,0.0,0.0,0.0,0.0,0.0,0.0,0.0,0.0,0.0,0.0,0.0,0.0,0.0,0.0,0.0,0.0,0.0,0.0,0.0,0.0,0.0,0.0,0.0,0.0,0.0,0.0,0.0,0.0,0.0,0.0,0.0,0.0,0.0,0.0,0.0,0.0,0.0,0.0,0.0,0.0,0.0,0.0,0.0,0.0,0.0,0.0,0.0,0.0,0.0,0.0,0.0,0.0,0.0,0.0,0.0,0.0,0.0,0.0,0.0,0.0,0.0,0.0,0.0,0.0,0.0,0.0,0.0,0.0,0.0,0.0,0.0,0.0,0.0,0.0,0.0,0.0,0.0,0.0,0.0,0.0,0.0,0.0,0.0,0.0,0.0,0.0,0.0,0.0,0.0,0.0,0.0,0.0,0.0,0.0,0.0,0.0,0.0,0.0,0.0,0.0,0.0,0.0,0.0,0.0,0.0,0.0,0.0,0.0,0.0,0.0,0.0,0.0,0.0,0.0,0.0,0.0,0.0,0.0,0.0,0.0,0.0,0.0,0.0,0.0,0.0,0.0,0.0,0.0,0.0,0.0,0.0,0.0,0.0,0.0,0.0,0.0,0.0,0.0,0.0,0.0,0.0,0.0,0.0,0.0,0.0,0.0,0.0,0.0,0.0,0.0,0.0,0.0,0.0,0.0,0.0,0.0,0.0,0.0,0.0,0.0,0.0,0.0,0.0,0.0,0.0,0.0,0.0,0.0,0.0,0.0,0.0,0.0,0.0,0.0,0.0,0.0,0.0,0.0,0.0,0.0,0.0,0.0,0.0,0.0,0.0,0.0,0.0,0.0,0.0,0.0,0.0,0.0,0.0,0.0,0.0,0.0,0.0,0.0,0.0,0.0,0.0,0.0,0.0,0.0,0.0,0.0,0.0,0.0,0.0,0.0,0.0,0.0,0.0,0.0,0.0,0.0,0.0,0.0,0.0,0.0,0.0,0.0,0.0,0.0,0.0,0.0,0.0,0.0,0.0,0.0,0.0,0.0,0.0,0.0,0.0,0.0,0.0,0.0,0.0,0.0,0.0,0.0,0.0,0.0,0.0,0.0,0.0,0.0,0.0,0.0,0.0,0.0,0.0,0.0,0.0,0.0,0.0,0.0,0.0,0.0,0.0,0.0,0.0,0.0,0.0,0.0,0.0,0.0,0.0,0.0,0.0,0.0,0.0,0.0,0.0,0.0,0.0,0.0,0.0,0.0,0.0,0.0,0.0,0.0,0.0,0.0,0.0,0.0,0.0,0.0,0.0,0.0,0.0,0.0,0.0,0.0,0.0,0.0,0.0,0.0,0.0,0.0,0.0,0.0,0.0,0.0,0.0,0.0,0.0,0.0,0.0,0.0,0.0,0.0,0.0,0.0,0.0,0.0,0.0,0.0,0.0,0.0,0.0,0.0,0.0,0.0,0.0,0.0,0.0,0.0,0.0,0.0,0.0,0.0,0.0,0.0,0.0,0.0,0.0,0.0,0.0,0.0,0.0,0.0,0.0,0.0,0.0,0.0,0.0,0.0,0.0,0.0,0.0,0.0,0.0,0.0,0.0,0.0,0.0,0.0,0.0,0.0,0.0,0.0,0.0,0.0,0.0,0.0,0.0,0.0,0.0,0.0,0.0,0.0,0.0,0.0,0.0,0.0,0.0,0.0,0.0,0.0,0.0,0.0,0.0,0.0,0.0,0.0,0.0,0.0,0.0,0.0,0.0,0.0,0.0,0.0,0.0,0.0,0.0,0.0,0.0,0.0,0.0,0.0,0.0,0.0,0.0,0.0,0.0,0.0,0.0,0.0,0.0,0.0,0.0,0.0,0.0,0.0,0.0,0.0,0.0,0.0,0.0,0.0,0.0,0.0,0.0,0.0,0.0,0.0,0.0,0.0,0.0,0.0,0.0,0.0,0.0,0.0,0.0,0.0,0.0,0.0,0.0,0.0,0.0,0.0,0.0,0.0,0.0,0.0,0.0,0.0,0.0,0.0,0.0,0.0,0.0,0.0,0.0,0.0,0.0,0.0,0.0,0.0,0.0,0.0,0.0,0.0,0.0,0.0,0.0,0.0,0.0,0.0,0.0,0.0,0.0,0.0,0.0,0.0,0.0,0.0,0.0,0.0,0.0,0.0,0.0,0.0,0.0,0.0,0.0,0.0,0.0,0.0,0.0,0.0,0.0,0.0,0.0,0.0,0.0,0.0,0.0,0.0,0.0,0.0,0.0,0.0,0.0,0.0,0.0,0.0,0.0,0.0,0.0,0.0,0.0,0.0,0.0,0.0,0.0,0.0,0.0,0.0,0.0,0.0,0.0,0.0,0.0,0.0,0.0,0.0,0.0,0.0,0.0,0.0,0.0,0.0,0.0,0.0,0.0,0.0,0.0,0.0,0.0,0.0,0.0,0.0,0.0,-0.7147,0.0,0.0,0.0,-0.6559,0.0,0.0,0.0,0.0,0.0,0.0,0.0,0.0,0.0,0.0,0.0,0.0,0.0,0.0,0.0,0.0,0.0,0.0,0.0,0.0,0.0,0.0,0.0,0.0,0.0,0.0,0.0,0.0,0.0,0.0,0.0,0.0,0.0,0.0,0.0,0.0,0.0,0.0,0.0,0.0,0.0,0.0,0.0,0.0,0.0,0.0,0.0,0.0,0.0,0.0,0.0,0.0,0.0,0.0,0.0,0.0,0.0,0.0,0.0,0.0,0.0,0.0,0.0,0.0,0.0,0.0,0.0,0.0,0.0,0.0,0.0,0.0,0.0,0.0,0.0,0.0,0.0,0.0,0.0,0.0,0.0,0.0,0.0,0.0,0.0,0.0,0.0,0.0,0.0,0.0,0.0,0.0,0.0,0.0,0.0,0.0,0.0,0.0,0.0,0.0,0.0,0.0,0.0,0.0,0.0,0.0,0.0,0.0,0.0,0.0,-0.7307,-0.7209,-0.7139,-0.7037,-0.6936,0.0,0.0,0.0,0.0,0.0,0.0,0.0,0.0,0.0,0.0,0.0,0.0,0.0,0.0,0.0,0.0,0.0,0.0,0.0,0.0,0.0,0.0,0.0,0.0,0.0,0.0,0.0,0.0,0.0,0.0,0.0,0.0,0.0,0.0,0.0,0.0,0.0,0.0,0.0,0.0,0.0,0.0,0.0,0.0,0.0,0.0,0.0,0.0,0.0,0.0,0.0,0.0,0.0,0.0,0.0,0.0,0.0,0.0,0.0,0.0,0.0,0.0,0.0,0.0,0.0,0.0,0.0,0.0,0.0,0.0,0.0,0.0,0.0,0.0,0.0,0.0,0.0,0.0,0.0,0.0,0.0,0.0,0.0,0.0,0.0,0.0,0.0,0.0,0.0,0.0,0.0,0.0,0.0,0.0,0.0,0.0,0.0,0.0,0.0,0.0,0.0,0.0,0.0,0.0,0.0,0.0,0.0,0.0,0.0,0.0,0.0,0.0,-0.7383,-0.7307,-0.7203,0.0,0.0,0.0,0.0,0.0,0.0,0.0,0.0,0.0,0.0,0.0,0.0,0.0,0.0,0.0,0.0,0.0,0.0,0.0,0.0,0.0,0.0,0.0,0.0,0.0,0.0,0.0,0.0,0.0,0.0,0.0,0.0,0.0,0.0,0.0,0.0,0.0,0.0,0.0,0.0,0.0,0.0,0.0,0.0,0.0,0.0,0.0,0.0,0.0,0.0,0.0,0.0,0.0,0.0,0.0,0.0,0.0,0.0,0.0,0.0,0.0,0.0,0.0,0.0,0.0,0.0,0.0,0.0,0.0,0.0,0.0,0.0,0.0,0.0,0.0,0.0,0.0,0.0,0.0,0.0,0.0,0.0,0.0,0.0,0.0,0.0,0.0,0.0,0.0,0.0,0.0,0.0,0.0,0.0,0.0,0.0,0.0,0.0,0.0,0.0,0.0,0.0,0.0,0.0,0.0,0.0,0.0,0.0,0.0,0.0,-0.8261,-0.8114,-0.793,0.0,-0.7223,0.0,0.0,0.0,0.0,0.0,0.0,0.0,0.0,0.0,0.0,0.0,0.0,0.0,0.0,0.0,0.0,0.0,0.0,0.0,0.0,0.0,0.0,0.0,0.0,0.0,0.0,0.0,0.0,0.0,0.0,0.0,0.0,0.0,0.0,0.0,0.0,0.0,0.0,0.0,0.0,0.0,0.0,0.0,0.0,0.0,0.0,0.0,0.0,0.0,0.0,0.0,0.0,0.0,0.0,0.0,0.0,0.0,0.0,0.0,0.0,0.0,0.0,0.0,0.0,0.0,0.0,0.0,0.0,0.0,0.0,0.0,0.0,0.0,0.0,0.0,0.0,0.0,0.0,0.0,0.0,0.0,0.0,0.0,0.0,0.0,0.0,0.0,0.0,0.0,0.0,0.0,0.0,0.0,0.0,0.0,0.0,0.0,0.0,0.0,0.0,0.0,0.0,0.0,0.0,0.0,0.0,0.0,0.0,0.0,0.0,-0.886,-0.8511,-0.8222,-0.7918,0.0,0.0,0.0,0.0,0.0,0.0,0.0,0.0,0.0,0.0,0.0,0.0,0.0,0.0,0.0,0.0,0.0,0.0,0.0,0.0,0.0,0.0,0.0,0.0,0.0,0.0,0.0,0.0,0.0,0.0,0.0,0.0,0.0,0.0,0.0,0.0,0.0,0.0,0.0,0.0,0.0,0.0,0.0,0.0,0.0,0.0,0.0,0.0,0.0,0.0,0.0,0.0,0.0,0.0,0.0,0.0,0.0,0.0,0.0,0.0,0.0,0.0,0.0,0.0,0.0,0.0,0.0,0.0,0.0,0.0,0.0,0.0,0.0,0.0,0.0,0.0,0.0,0.0,0.0,0.0,0.0,0.0,0.0,0.0,0.0,0.0,0.0,0.0,0.0,0.0,0.0,0.0,0.0,0.0,0.0,0.0,0.0,0.0,0.0,0.0,0.0,0.0,0.0,0.0,0.0,0.0,0.0,0.0,0.0,0.0,-0.9735,-0.9715,-0.9216,-0.8957,-0.8648,-0.8238,0.0,0.0,0.0,0.0,0.0,0.0,0.0,0.0,0.0,0.0,0.0,0.0,0.0,0.0,0.0,0.0,0.0,0.0,0.0,0.0,0.0,0.0,0.0,0.0,0.0,0.0,0.0,0.0,0.0,0.0,0.0,0.0,0.0,0.0,0.0,0.0,0.0,0.0,0.0,0.0,0.0,0.0,0.0,0.0,0.0,0.0,0.0,0.0,0.0,0.0,0.0,0.0,0.0,0.0,0.0,0.0,0.0,0.0,0.0,0.0,0.0,0.0,0.0,0.0,0.0,0.0,0.0,0.0,0.0,0.0,0.0,0.0,0.0,0.0,0.0,0.0,0.0,0.0,0.0,0.0,0.0,0.0,0.0,0.0,0.0,0.0,0.0,0.0,0.0,0.0,0.0,0.0,0.0,0.0,0.0,0.0,0.0,0.0,0.0,0.0,0.0,0.0,0.0,0.0,0.0,0.0,0.0,0.0,-0.974,-1.0573,-1.0838,-1.0442,-1.0418,-0.9971,0.0,0.0,0.0,0.0,0.0,0.0,0.0,0.0,0.0,0.0,0.0,0.0,0.0,0.0,0.0,0.0,0.0,0.0,0.0,0.0,0.0,0.0,0.0,0.0,0.0,0.0,0.0,0.0,0.0,0.0,0.0,0.0,0.0,0.0,0.0,0.0,0.0,0.0,0.0,0.0,0.0,0.0,0.0,0.0,0.0,0.0,0.0,0.0,0.0,0.0,0.0,0.0,0.0,0.0,0.0,0.0,0.0,0.0,0.0,0.0,0.0,0.0,0.0,0.0,0.0,0.0,0.0,0.0,0.0,0.0,0.0,0.0,0.0,0.0,0.0,0.0,0.0,0.0,0.0,0.0,0.0,0.0,0.0,0.0,0.0,0.0,0.0,0.0,0.0,0.0,0.0,0.0,0.0,0.0,0.0,0.0,0.0,0.0,0.0,0.0,0.0,0.0,0.0,0.0,0.0,0.0,0.0,0.0,0.0,-1.068,-1.1464,-1.1816,-1.1664,-1.1154,-1.0631,0.0,0.0,0.0,0.0,0.0,0.0,0.0,0.0,0.0,0.0,0.0,0.0,0.0,0.0,0.0,0.0,0.0,0.0,0.0,0.0,0.0,0.0,0.0,0.0,0.0,0.0,0.0,0.0,0.0,0.0,0.0,0.0,0.0,0.0,0.0,0.0,0.0,0.0,0.0,0.0,0.0,0.0,0.0,0.0,0.0,0.0,0.0,0.0,0.0,0.0,0.0,0.0,0.0,0.0,0.0,0.0,0.0,0.0,0.0,0.0,0.0,0.0,0.0,0.0,0.0,0.0,0.0,0.0,0.0,0.0,0.0,0.0,0.0,0.0,0.0,0.0,0.0,0.0,0.0,0.0,0.0,0.0,0.0,0.0,0.0,0.0,0.0,0.0,0.0,0.0,0.0,0.0,0.0,0.0,0.0,0.0,0.0,0.0,0.0,0.0,0.0,0.0,0.0,0.0,0.0,0.0,0.0,0.0,0.0,-1.1925,-1.2475,-1.2763,-1.2709,-1.2077,-1.1446,0.0,0.0,0.0,0.0,0.0,0.0,0.0,0.0,0.0,0.0,0.0,0.0,0.0,0.0,0.0,0.0,0.0,0.0,0.0,0.0,0.0,0.0,0.0,0.0,0.0,0.0,0.0,0.0,0.0,0.0,0.0,0.0,0.0,0.0,0.0,0.0,0.0,0.0,0.0,0.0,0.0,0.0,0.0,0.0,0.0,0.0,0.0,0.0,0.0,0.0,0.0,0.0,0.0,0.0,0.0,0.0,0.0,0.0,0.0,0.0,0.0,0.0,0.0,0.0,0.0,0.0,0.0,0.0,0.0,0.0,0.0,0.0,0.0,0.0,0.0,0.0,0.0,0.0,0.0,0.0,0.0,0.0,0.0,0.0,0.0,0.0,0.0,0.0,0.0,0.0,0.0,0.0,0.0,0.0,0.0,0.0,0.0,0.0,0.0,0.0,0.0,0.0,0.0,0.0,0.0,0.0,0.0,0.0,-1.2097,-1.3429,-1.3615,-1.3692,-1.3711,-1.3202,-1.2473,0.0,0.0,0.0,0.0,0.0,0.0,0.0,0.0,0.0,0.0,0.0,0.0,0.0,0.0,0.0,0.0,0.0,0.0,0.0,0.0,0.0,0.0,0.0,0.0,0.0,0.0,0.0,0.0,0.0,0.0,0.0,0.0,0.0,0.0,0.0,0.0,0.0,0.0,0.0,0.0,0.0,0.0,0.0,0.0,0.0,0.0,0.0,0.0,0.0,0.0,0.0,0.0,0.0,0.0,0.0,0.0,0.0,0.0,0.0,0.0,0.0,0.0,0.0,0.0,0.0,0.0,0.0,0.0,0.0,0.0,0.0,0.0,0.0,0.0,0.0,0.0,0.0,0.0,0.0,0.0,0.0,0.0,0.0,0.0,0.0,0.0,0.0,0.0,0.0,0.0,0.0,0.0,0.0,0.0,0.0,0.0,0.0,0.0,0.0,0.0,0.0,0.0,0.0,0.0,0.0,0.0,0.0,0.0,0.0,-1.4091,-1.4448,-1.4597,-1.4578,-1.3877,-1.3178,0.0,0.0,0.0,0.0,0.0,0.0,0.0,0.0,0.0,0.0,0.0,0.0,0.0,0.0,0.0,0.0,0.0,0.0,0.0,0.0,0.0,0.0,0.0,0.0,0.0,0.0,0.0,0.0,0.0,0.0,0.0,0.0,0.0,0.0,0.0,0.0,0.0,0.0,0.0,0.0,0.0,0.0,0.0,0.0,0.0,0.0,0.0,0.0,0.0,0.0,0.0,0.0,0.0,0.0,0.0,0.0,0.0,0.0,0.0,0.0,0.0,0.0,0.0,0.0,0.0,0.0,0.0,0.0,0.0,0.0,0.0,0.0,0.0,0.0,0.0,0.0,0.0,0.0,0.0,0.0,0.0,0.0,0.0,0.0,0.0,0.0,0.0,0.0,0.0,0.0,0.0,0.0,0.0,0.0,0.0,0.0,0.0,0.0,0.0,0.0,0.0,0.0,0.0,0.0,0.0,0.0,0.0,0.0,0.0,-1.5032,-1.5223,-1.5297,-1.5287,-1.4621,-1.3916,-1.3173,0.0,0.0,0.0,0.0,0.0,0.0,0.0,0.0,0.0,0.0,0.0,0.0,0.0,0.0,0.0,0.0,0.0,0.0,0.0,0.0,0.0,0.0,0.0,0.0,0.0,0.0,0.0,0.0,0.0,0.0,0.0,0.0,0.0,0.0,0.0,0.0,0.0,0.0,0.0,0.0,0.0,0.0,0.0,0.0,0.0,0.0,0.0,0.0,0.0,0.0,0.0,0.0,0.0,0.0,0.0,0.0,0.0,0.0,0.0,0.0,0.0,0.0,0.0,0.0,0.0,0.0,0.0,0.0,0.0,0.0,0.0,0.0,0.0,0.0,0.0,0.0,0.0,0.0,0.0,0.0,0.0,0.0,0.0,0.0,0.0,0.0,0.0,0.0,0.0,0.0,0.0,0.0,0.0,0.0,0.0,0.0,0.0,0.0,0.0,0.0,0.0,0.0,0.0,0.0,0.0,0.0,0.0,0.0,-1.6124,-1.598,-1.5879,-1.579,-1.5417,-1.4628,0.0,0.0,0.0,0.0,0.0,0.0,0.0,0.0,0.0,0.0,0.0,0.0,0.0,0.0,0.0,0.0,0.0,0.0,0.0,0.0,0.0,0.0,0.0,0.0,0.0,0.0,0.0,0.0,0.0,0.0,0.0,0.0,0.0,0.0,0.0,0.0,0.0,0.0,0.0,0.0,0.0,0.0,0.0,0.0,0.0,0.0,0.0,0.0,0.0,0.0,0.0,0.0,0.0,0.0,0.0,0.0,0.0,0.0,0.0,0.0,0.0,0.0,0.0,0.0,0.0,0.0,0.0,0.0,0.0,0.0,0.0,0.0,0.0,0.0,0.0,0.0,0.0,0.0,0.0,0.0,0.0,0.0,0.0,0.0,0.0,0.0,0.0,0.0,0.0,0.0,0.0,0.0,0.0,0.0,0.0,0.0,0.0,0.0,0.0,0.0,0.0,0.0,0.0,0.0,0.0,0.0,0.0,0.0,0.0,-1.6523,-1.6843,-1.6665,-1.6023,-1.5595,-1.4886,0.0,0.0,0.0,0.0,0.0,0.0,0.0,0.0,0.0,0.0,0.0,0.0,0.0,0.0,0.0,0.0,0.0,0.0,0.0,0.0,0.0,0.0,0.0,0.0,0.0,0.0,0.0,0.0,0.0,0.0,0.0,0.0,0.0,0.0,0.0,0.0,0.0,0.0,0.0,0.0,0.0,0.0,0.0,0.0,0.0,0.0,0.0,0.0,0.0,0.0,0.0,0.0,0.0,0.0,0.0,0.0,0.0,0.0,0.0,0.0,0.0,0.0,0.0,0.0,0.0,0.0,0.0,0.0,0.0,0.0,0.0,0.0,0.0,0.0,0.0,0.0,0.0,0.0,0.0,0.0,0.0,0.0,0.0,0.0,0.0,0.0,0.0,0.0,0.0,0.0,0.0,0.0,0.0,0.0,0.0,0.0,0.0,0.0,0.0,0.0,0.0,0.0,0.0,0.0,0.0,0.0,0.0,0.0,-1.6113,-1.6982,-1.7432,-1.7324,-1.6662,-1.6191,-1.5478,0.0,0.0,0.0,0.0,0.0,0.0,0.0,0.0,0.0,0.0,0.0,0.0,0.0,0.0,0.0,0.0,0.0,0.0,0.0,0.0,0.0,0.0,0.0,0.0,0.0,0.0,0.0,0.0,0.0,0.0,0.0,0.0,0.0,0.0,0.0,0.0,0.0,0.0,0.0,0.0,0.0,0.0,0.0,0.0,0.0,0.0,0.0,0.0,0.0,0.0,0.0,0.0,0.0,0.0,0.0,0.0,0.0,0.0,0.0,0.0,0.0,0.0,0.0,0.0,0.0,0.0,0.0,0.0,0.0,0.0,0.0,0.0,0.0,0.0,0.0,0.0,0.0,0.0,0.0,0.0,0.0,0.0,0.0,0.0,0.0,0.0,0.0,0.0,0.0,0.0,0.0,0.0,0.0,0.0,0.0,0.0,0.0,0.0,0.0,0.0,0.0,0.0,0.0,0.0,0.0,0.0,0.0,0.0,-1.6564,-1.7363,-1.7793,-1.7822,-1.7461,-1.6982,-1.6083,0.0,0.0,0.0,0.0,0.0,0.0,0.0,0.0,0.0,0.0,0.0,0.0,0.0,0.0,0.0,0.0,0.0,0.0,0.0,0.0,0.0,0.0,0.0,0.0,0.0,0.0,0.0,0.0,0.0,0.0,0.0,0.0,0.0,0.0,0.0,0.0,0.0,0.0,0.0,0.0,0.0,0.0,0.0,0.0,0.0,0.0,0.0,0.0,0.0,0.0,0.0,0.0,0.0,0.0,0.0,0.0,0.0,0.0,0.0,0.0,0.0,0.0,0.0,0.0,0.0,0.0,0.0,0.0,0.0,0.0,0.0,0.0,0.0,0.0,0.0,0.0,0.0,0.0,0.0,0.0,0.0,0.0,0.0,0.0,0.0,0.0,0.0,0.0,0.0,0.0,0.0,0.0,0.0,0.0,0.0,0.0,0.0,0.0,0.0,0.0,0.0,0.0,0.0,0.0,0.0,0.0,0.0,0.0,-1.6846,-1.7373,-1.7793,-1.7969,-1.7881,-1.7096,-1.6093,0.0,0.0,0.0,0.0,0.0,0.0,0.0,0.0,0.0,0.0,0.0,0.0,0.0,0.0,0.0,0.0,0.0,0.0,0.0,0.0,0.0,0.0,0.0,0.0,0.0,0.0,0.0,0.0,0.0,0.0,0.0,0.0,0.0,0.0,0.0,0.0,0.0,0.0,0.0,0.0,0.0,0.0,0.0,0.0,0.0,0.0,0.0,0.0,-1.4452,0.0,0.0,0.0,0.0,0.0,0.0,0.0,0.0,0.0,0.0,0.0,0.0,0.0,0.0,0.0,0.0,0.0,0.0,0.0,0.0,0.0,0.0,0.0,0.0,0.0,0.0,0.0,0.0,0.0,0.0,0.0,0.0,0.0,0.0,0.0,0.0,0.0,0.0,0.0,0.0,0.0,0.0,0.0,0.0,0.0,0.0,0.0,0.0,0.0,0.0,0.0,0.0,0.0,0.0,0.0,0.0,0.0,0.0,0.0,-1.7009,-1.7656,-1.7891,-1.8008,-1.7978,-1.7145,-1.618,0.0,0.0,0.0,0.0,0.0,0.0,0.0,0.0,0.0,0.0,0.0,0.0,0.0,0.0,0.0,0.0,0.0,0.0,0.0,0.0,0.0,0.0,0.0,0.0,0.0,0.0,0.0,0.0,0.0,0.0,0.0,0.0,0.0,0.0,0.0,0.0,0.0,0.0,0.0,0.0,0.0,0.0,0.0,0.0,0.0,0.0,0.0,0.0,0.0,0.0,0.0,0.0,0.0,0.0,0.0,0.0,0.0,0.0,0.0,0.0,0.0,0.0,0.0,0.0,0.0,0.0,0.0,0.0,0.0,0.0,0.0,0.0,0.0,0.0,0.0,0.0,0.0,0.0,0.0,0.0,0.0,0.0,0.0,0.0,0.0,0.0,0.0,0.0,0.0,0.0,0.0,0.0,0.0,0.0,0.0,0.0,0.0,0.0,0.0,0.0,0.0,0.0,0.0,0.0,0.0,0.0,0.0,-1.6377,-1.7213,-1.8032,-1.8174,-1.8174,-1.8096,-1.7275,-1.6385,-1.5518,0.0,0.0,0.0,0.0,0.0,0.0,0.0,0.0,0.0,0.0,0.0,0.0,0.0,0.0,0.0,0.0,0.0,0.0,0.0,0.0,0.0,0.0,0.0,0.0,0.0,0.0,0.0,0.0,0.0,0.0,0.0,0.0,0.0,0.0,0.0,0.0,0.0,0.0,-1.1595,-1.4128,0.0,0.0,0.0,0.0,0.0,0.0,0.0,0.0,-1.7179,0.0,0.0,0.0,0.0,0.0,0.0,0.0,0.0,0.0,0.0,0.0,0.0,0.0,0.0,0.0,0.0,0.0,0.0,0.0,0.0,0.0,0.0,0.0,0.0,0.0,0.0,0.0,0.0,0.0,0.0,0.0,0.0,0.0,0.0,0.0,0.0,0.0,0.0,0.0,0.0,0.0,0.0,0.0,0.0,0.0,0.0,0.0,0.0,0.0,0.0,0.0,0.0,0.0,0.0,0.0,0.0,-1.5937,-1.6858,-1.7686,-1.8471,-1.8887,-1.8906,-1.849,-1.7715,-1.6865,-1.5968,0.0,0.0,0.0,0.0,0.0,0.0,0.0,0.0,0.0,0.0,0.0,0.0,0.0,0.0,0.0,0.0,0.0,0.0,0.0,0.0,0.0,0.0,0.0,0.0,0.0,0.0,0.0,0.0,0.0,0.0,0.0,0.0,0.0,0.0,0.0,0.0,0.0,0.0,0.0,-1.6226,-1.7219,0.0,0.0,0.0,0.0,0.0,0.0,0.0,0.0,-1.7983,0.0,0.0,0.0,0.0,0.0,0.0,0.0,0.0,0.0,0.0,0.0,0.0,0.0,0.0,0.0,0.0,0.0,0.0,0.0,0.0,0.0,0.0,0.0,0.0,0.0,0.0,0.0,0.0,0.0,0.0,0.0,0.0,0.0,0.0,0.0,0.0,0.0,0.0,0.0,0.0,0.0,0.0,0.0,0.0,0.0,0.0,0.0,0.0,0.0,0.0,0.0,0.0,0.0,0.0,0.0,-1.6065,-1.7139,-1.8008,-1.8588,-1.9062,-1.9082,-1.8607,-1.8027,-1.723,0.0,0.0,0.0,0.0,0.0,0.0,0.0,0.0,0.0,0.0,0.0,0.0,0.0,0.0,0.0,0.0,0.0,0.0,0.0,0.0,0.0,0.0,0.0,0.0,0.0,0.0,0.0,0.0,0.0,0.0,0.0,0.0,0.0,0.0,0.0,0.0,0.0,0.0,0.0,0.0,-1.7617,-1.8731,-1.9167,0.0,0.0,0.0,0.0,0.0,0.0,-1.9648,-1.9133,0.0,0.0,0.0,0.0,0.0,0.0,0.0,0.0,0.0,0.0,0.0,0.0,0.0,0.0,0.0,0.0,0.0,0.0,0.0,0.0,0.0,0.0,0.0,0.0,0.0,0.0,0.0,0.0,0.0,0.0,0.0,0.0,0.0,0.0,0.0,0.0,0.0,0.0,0.0,0.0,0.0,0.0,0.0,0.0,0.0,0.0,0.0,0.0,0.0,0.0,0.0,0.0,0.0,0.0,0.0,-1.6401,-1.7586,-1.8458,-1.8994,-1.9436,-1.9445,-1.9013,-1.8512,-1.7668,0.0,0.0,0.0,0.0,0.0,0.0,0.0,0.0,0.0,0.0,0.0,0.0,0.0,0.0,0.0,0.0,0.0,0.0,0.0,0.0,0.0,0.0,0.0,0.0,0.0,0.0,0.0,0.0,0.0,0.0,0.0,0.0,0.0,0.0,0.0,0.0,0.0,0.0,0.0,0.0,0.0,-2.0067,-2.063,-2.1162,0.0,0.0,0.0,0.0,-2.1506,-2.0855,0.0,0.0,0.0,0.0,0.0,0.0,0.0,0.0,0.0,0.0,0.0,0.0,0.0,0.0,0.0,0.0,0.0,0.0,0.0,0.0,0.0,0.0,0.0,0.0,0.0,0.0,0.0,0.0,0.0,0.0,0.0,0.0,0.0,0.0,0.0,0.0,0.0,0.0,0.0,0.0,0.0,0.0,0.0,0.0,0.0,0.0,0.0,0.0,0.0,0.0,0.0,0.0,0.0,0.0,0.0,0.0,-1.7479,-1.8422,-1.9378,-2.0333,-2.0785,-2.0767,-2.0363,-1.9514,-1.8564,0.0,0.0,0.0,0.0,0.0,0.0,0.0,0.0,0.0,0.0,0.0,0.0,0.0,0.0,0.0,0.0,0.0,0.0,0.0,0.0,0.0,0.0,0.0,0.0,0.0,0.0,0.0,0.0,0.0,0.0,0.0,0.0,0.0,0.0,0.0,0.0,0.0,0.0,0.0,0.0,0.0,-2.0642,-2.129,-2.1443,-2.1481,0.0,0.0,-2.2046,-2.1568,-2.1936,0.0,0.0,0.0,0.0,0.0,0.0,0.0,0.0,0.0,0.0,0.0,0.0,0.0,0.0,0.0,0.0,0.0,0.0,0.0,0.0,0.0,0.0,0.0,0.0,0.0,0.0,0.0,0.0,0.0,0.0,0.0,0.0,0.0,0.0,0.0,0.0,0.0,0.0,0.0,0.0,0.0,0.0,0.0,0.0,0.0,0.0,0.0,0.0,0.0,0.0,0.0,0.0,0.0,0.0,0.0,-1.6128,-1.778,-1.8943,-1.9907,-2.0727,-2.1174,-2.1222,-2.0944,-2.019,-1.9201,0.0,0.0,0.0,0.0,0.0,0.0,0.0,0.0,0.0,0.0,0.0,0.0,0.0,0.0,0.0,0.0,0.0,0.0,0.0,0.0,0.0,0.0,0.0,0.0,0.0,0.0,0.0,0.0,0.0,0.0,0.0,0.0,0.0,0.0,0.0,0.0,0.0,0.0,0.0,0.0,0.0,0.0,-2.2268,-2.2698,0.0,0.0,0.0,-2.3683,-2.3553,0.0,0.0,0.0,0.0,0.0,0.0,0.0,0.0,0.0,0.0,0.0,0.0,0.0,0.0,0.0,0.0,0.0,0.0,0.0,0.0,0.0,0.0,0.0,0.0,0.0,0.0,0.0,0.0,0.0,0.0,0.0,0.0,0.0,0.0,0.0,0.0,0.0,0.0,0.0,0.0,0.0,0.0,0.0,0.0,0.0,0.0,0.0,0.0,0.0,0.0,0.0,0.0,0.0,0.0,0.0,0.0,0.0,-1.8277,-1.961,-2.0651,-2.1428,-2.1834,-2.197,-2.1748,-2.1104,0.0,0.0,0.0,0.0,0.0,0.0,0.0,0.0,0.0,0.0,0.0,0.0,0.0,0.0,0.0,0.0,0.0,0.0,0.0,0.0,0.0,0.0,0.0,0.0,0.0,0.0,0.0,-0.9332,0.0,0.0,0.0,0.0,0.0,0.0,0.0,0.0,0.0,0.0,0.0,0.0,0.0,0.0,-2.2246,-2.3195,-2.3841,-2.4356,0.0,0.0,-2.4968,-2.518,-2.4651,-2.4188,0.0,0.0,0.0,0.0,0.0,0.0,0.0,0.0,0.0,0.0,0.0,0.0,0.0,0.0,0.0,0.0,0.0,0.0,0.0,0.0,0.0,0.0,0.0,0.0,0.0,0.0,0.0,0.0,0.0,0.0,0.0,0.0,0.0,0.0,0.0,0.0,0.0,0.0,0.0,0.0,0.0,0.0,0.0,0.0,0.0,0.0,0.0,0.0,0.0,0.0,0.0,0.0,0.0,0.0,-1.7213,-1.9257,-2.0673,-2.1881,-2.291,-2.3416,-2.3506,-2.3251,-2.26,-2.16,0.0,0.0,0.0,0.0,0.0,0.0,0.0,0.0,0.0,0.0,0.0,0.0,0.0,0.0,0.0,0.0,0.0,0.0,0.0,0.0,0.0,0.0,0.0,0.0,0.0,0.0,0.0,0.0,0.0,0.0,0.0,0.0,0.0,0.0,0.0,0.0,0.0,0.0,0.0,0.0,0.0,-2.3208,-2.3853,-2.4418,-2.4834,0.0,-2.5097,-2.5211,-2.5516,-2.5764,-2.5633,-2.472,0.0,0.0,0.0,0.0,0.0,0.0,0.0,0.0,0.0,0.0,0.0,0.0,0.0,0.0,0.0,0.0,0.0,0.0,0.0,0.0,0.0,0.0,0.0,0.0,0.0,0.0,0.0,0.0,0.0,0.0,0.0,0.0,0.0,0.0,0.0,0.0,0.0,0.0,0.0,0.0,0.0,0.0,0.0,0.0,0.0,0.0,0.0,0.0,0.0,0.0,0.0,0.0,0.0,-1.8259,-2.0131,-2.17,-2.2896,-2.37,-2.4192,-2.4423,-2.4454,-2.3541,-2.2582,0.0,0.0,0.0,0.0,0.0,0.0,0.0,0.0,0.0,0.0,0.0,0.0,0.0,0.0,0.0,0.0,0.0,0.0,0.0,0.0,0.0,0.0,0.0,0.0,0.0,0.0,0.0,0.0,-1.3521,-1.413,-1.4594,0.0,0.0,0.0,0.0,0.0,0.0,0.0,0.0,0.0,0.0,-2.3882,-2.5507,-2.5986,0.0,0.0,-2.752,-2.754,-2.763,-2.7645,-2.7454,-2.69,-2.669,0.0,0.0,0.0,0.0,0.0,0.0,0.0,0.0,0.0,0.0,0.0,0.0,0.0,0.0,0.0,0.0,0.0,0.0,0.0,0.0,0.0,0.0,0.0,0.0,0.0,0.0,0.0,0.0,0.0,0.0,0.0,0.0,0.0,0.0,0.0,0.0,0.0,0.0,0.0,0.0,0.0,0.0,0.0,0.0,0.0,0.0,0.0,0.0,0.0,0.0,0.0,0.0,-1.9305,-2.1159,-2.2839,-2.3995,-2.4719,-2.5183,-2.5413,-2.5402,-2.4558,-2.3694,0.0,0.0,0.0,0.0,0.0,0.0,0.0,0.0,0.0,0.0,0.0,0.0,0.0,0.0,0.0,0.0,0.0,0.0,0.0,0.0,0.0,0.0,0.0,0.0,0.0,0.0,0.0,0.0,-1.4861,-1.531,-1.5042,0.0,0.0,0.0,0.0,0.0,0.0,0.0,0.0,0.0,0.0,-2.504,-2.6692,-2.7314,-2.801,-2.9095,-2.9284,-2.9337,-2.951,-2.9426,-2.9302,-2.9104,0.0,0.0,0.0,0.0,0.0,0.0,0.0,0.0,0.0,0.0,0.0,0.0,0.0,0.0,0.0,0.0,0.0,0.0,0.0,0.0,0.0,0.0,0.0,0.0,0.0,0.0,0.0,-1.1956,0.0,0.0,-1.0526,0.0,0.0,0.0,0.0,0.0,0.0,0.0,0.0,0.0,0.0,0.0,0.0,0.0,0.0,0.0,0.0,0.0,0.0,0.0,0.0,0.0,0.0,-2.0216,-2.2457,-2.4082,-2.5341,-2.6155,-2.6637,-2.6619,-2.6132,-2.5886,-2.5083,-2.3578,0.0,0.0,0.0,0.0,0.0,0.0,0.0,0.0,0.0,0.0,0.0,0.0,0.0,0.0,0.0,0.0,0.0,0.0,0.0,0.0,0.0,0.0,0.0,0.0,0.0,0.0,-1.6193,-1.6929,-1.6886,0.0,0.0,0.0,0.0,0.0,0.0,0.0,0.0,0.0,0.0,-2.5325,-2.6871,-2.7286,-2.8274,-2.9213,-2.9891,-2.9947,-3.015,-3.0888,-3.1082,-3.1124,0.0,0.0,0.0,0.0,0.0,0.0,0.0,0.0,0.0,0.0,0.0,0.0,0.0,0.0,0.0,0.0,0.0,0.0,0.0,0.0,0.0,0.0,0.0,0.0,0.0,0.0,0.0,-1.4723,-1.453,0.0,0.0,0.0,0.0,0.0,0.0,0.0,0.0,0.0,0.0,0.0,-2.1293,-2.1795,0.0,0.0,0.0,0.0,0.0,0.0,0.0,0.0,0.0,0.0,0.0,0.0,-2.1885,-2.3803,-2.5166,-2.6348,-2.7283,-2.7666,-2.793,-2.808,-2.72,-2.5819,-2.3881,0.0,0.0,0.0,0.0,0.0,0.0,0.0,0.0,0.0,0.0,0.0,0.0,0.0,0.0,0.0,0.0,0.0,0.0,0.0,0.0,0.0,0.0,0.0,0.0,0.0,-1.6713,0.0,0.0,0.0,0.0,0.0,0.0,0.0,0.0,0.0,0.0,0.0,-2.3378,-2.5026,-2.6445,-2.7996,-2.978,-3.0536,-3.1418,0.0,0.0,0.0,0.0,0.0,0.0,0.0,0.0,0.0,0.0,0.0,0.0,0.0,0.0,-3.1452,-2.9227,-2.885,-2.8727,-2.8323,0.0,0.0,0.0,0.0,0.0,0.0,0.0,0.0,0.0,0.0,0.0,0.0,0.0,0.0,-1.7417,0.0,-1.6628,0.0,0.0,0.0,0.0,0.0,0.0,0.0,0.0,-2.2672,-2.3793,-2.4284,-2.4813,-2.479,0.0,-2.3954,-2.2402,0.0,0.0,0.0,0.0,0.0,0.0,0.0,0.0,-2.3606,-2.5333,-2.6572,-2.7573,-2.8336,-2.8686,-2.8923,-2.9056,-2.7801,-2.6399,-2.4975,-2.3833,-2.2509,0.0,0.0,0.0,0.0,0.0,0.0,0.0,0.0,0.0,0.0,0.0,0.0,0.0,0.0,0.0,0.0,0.0,0.0,0.0,0.0,0.0,0.0,0.0,-1.8607,0.0,0.0,0.0,0.0,0.0,0.0,0.0,0.0,0.0,-2.1528,-2.3246,-2.5095,-2.6789,-2.8153,-2.9764,-3.1793,0.0,0.0,0.0,0.0,0.0,0.0,0.0,-3.4845,-3.4412,-3.4848,-3.5261,-3.5311,-3.5783,-3.6163,-3.6178,0.0,0.0,-3.2766,-3.2243,-3.2108,-3.1704,-3.1973,-3.2422,-3.3095,-3.4067,-3.5055,0.0,0.0,0.0,0.0,0.0,0.0,0.0,0.0,-2.0466,-2.0328,0.0,-1.9912,0.0,0.0,0.0,0.0,0.0,-2.1877,0.0,0.0,-2.5242,-2.6392,-2.7072,-2.7627,-2.7603,-2.7122,-2.7073,-2.6529,-2.5406,-2.2739,0.0,0.0,0.0,0.0,0.0,0.0,-2.5348,-2.706,-2.8203,-2.9015,-2.9393,-2.966,-2.9626,-2.9145,-2.7786,-2.7012,-2.6876,-2.5119,-2.3725,-2.3016,-2.1246,0.0,0.0,0.0,0.0,0.0,0.0,0.0,0.0,0.0,0.0,0.0,0.0,0.0,0.0,0.0,0.0,0.0,0.0,0.0,0.0,-1.9734,0.0,0.0,0.0,0.0,0.0,0.0,0.0,0.0,0.0,0.0,-2.3102,-2.5066,-2.7084,-2.8457,0.0,0.0,0.0,0.0,-3.4882,-3.5518,-3.576,-3.6,-3.628,-3.6529,-3.6761,-3.7159,0.0,0.0,-3.7505,-3.7539,-3.7584,-3.7539,-3.8078,-3.7883,-3.6058,-3.5639,-3.5579,-3.5564,-3.5564,-3.5833,-3.6462,-3.7,-3.7644,-2.1134,0.0,0.0,0.0,0.0,-2.1449,-2.1883,-2.2375,-2.2848,-2.3026,-2.2936,-2.264,0.0,0.0,0.0,0.0,0.0,0.0,-2.5583,-2.6069,-2.7787,-2.8794,-2.9162,-2.9702,-2.9677,-2.915,-2.915,-2.8795,-2.812,-2.7309,-2.5829,-2.3757,0.0,0.0,0.0,0.0,-2.7151,-2.8511,-2.93,-3.0082,-3.0942,-3.0707,-3.035,-2.9906,-2.9495,-2.8908,-2.8209,-2.727,-2.6321,-2.541,-2.3711,0.0,0.0,0.0,0.0,0.0,0.0,0.0,0.0,0.0,0.0,0.0,0.0,0.0,0.0,0.0,0.0,0.0,0.0,0.0,-2.1484,-2.2088,-2.2272,0.0,0.0,0.0,0.0,0.0,0.0,0.0,0.0,0.0,-2.7518,-2.8302,-2.9318,0.0,0.0,-3.3615,-3.4927,-3.5658,-3.6427,-3.7296,-3.7577,0.0,-3.7597,-3.763,-3.7757,-3.8018,-3.8844,-3.9672,-4.0157,-4.0247,-4.0247,-4.0232,-4.0382,-4.0359,-3.9798,-3.8901,-3.8347,-3.8302,-3.8302,-3.8512,-3.9125,-3.9439,-3.9738,-2.3201,-2.261,-2.2291,-2.2633,-2.3322,-2.3881,-2.4437,-2.4989,-2.5561,-2.5826,-2.589,-2.5759,-2.5605,-2.5446,-2.5153,0.0,0.0,0.0,-2.8086,-2.8704,-2.9975,-3.0927,-3.1514,-3.1891,-3.1878,-3.1568,-3.1555,-3.127,-3.0735,-3.0666,-2.977,-2.8031,0.0,0.0,-2.7521,-2.8193,-2.8975,-2.9905,-3.0502,-3.1067,-3.1692,-3.1668,-3.1524,-3.1248,-3.0882,-3.0351,-2.9575,-2.8827,-2.8096,-2.7314,-2.5944,-2.4446,0.0,0.0,0.0,0.0,0.0,0.0,0.0,0.0,0.0,0.0,0.0,-1.5085,-1.5338,0.0,0.0,0.0,-2.0943,-2.2622,-2.3684,-2.396,0.0,0.0,0.0,0.0,0.0,0.0,0.0,-2.6278,-2.7322,-2.8677,-3.0578,-3.1504,-3.2245,-3.2876,-3.4302,-3.5695,-3.69,0.0,-3.8446,-3.9142,-3.9404,-3.946,-3.9298,-3.9371,-3.9444,-3.9559,-4.0217,-4.0876,-4.128,-4.1422,-4.1422,-4.1452,-4.1632,-4.1886,-4.2102,-4.1698,-4.1055,-4.0352,-4.0202,-4.0502,-4.1369,-4.1579,-4.1833,-2.4829,-2.5305,-2.47,-2.4812,-2.5455,-2.6318,-2.6941,-2.7457,-2.8298,-2.8591,-2.8499,-2.8833,-2.8925,-2.8778,-2.879,0.0,-2.9129,-2.9695,-3.0438,-3.1307,-3.1883,-3.2766,-3.3947,-3.396,-3.396,-3.396,-3.396,-3.3709,-3.3206,-3.3033,-3.2928,-3.2866,-3.0725,-2.9841,-3.0235,-3.0459,-3.0867,-3.1311,-3.1871,-3.209,-3.2114,-3.2619,-3.2885,-3.2873,-3.2066,-3.1464,-3.1146,-3.0121,-2.9338,-2.8911,-2.8027,-2.6676,-2.4832,0.0,0.0,0.0,0.0,0.0,0.0,0.0,0.0,0.0,0.0,0.0,0.0,0.0,0.0,-2.1505,-2.3648,0.0,-2.5084,-2.5511,0.0,0.0,0.0,-2.5799,-2.5833,-2.6531,-2.7443,-2.856,0.0,0.0,-3.2589,-3.4473,-3.5509,-3.5085,-3.6665,-3.8103,-3.8904,-3.9814,-4.0602,-4.0683,-4.0988,-4.1118,-4.094,-4.1166,-4.1339,-4.1339,-4.1527,-4.1609,-4.1713,-4.1728,-4.1654,-4.1886,-4.2246,-4.283,-4.3349,-4.3843,-4.3823,-4.2058,-4.1743,-4.2073,-4.3125,-4.3449,-4.3778,-2.5895,-2.6726,-2.6723,-2.6553,-2.634,-2.6889,-2.7605,-2.8387,-2.8979,-2.9368,-2.9659,-2.9937,-3.013,-3.0278,-3.0266,-3.054,-3.0987,-3.1722,-3.2394,-3.3046,-3.3695,-3.4184,-3.4525,-3.4537,-3.4525,-3.4525,-3.4525,-3.4449,-3.4336,-3.4292,-3.4247,-3.4209,-3.3677,-3.2965,-3.2201,-3.2734,-3.3095,-3.322,-3.3759,-3.3958,-3.3792,-3.395,-3.3925,-3.3719,-3.3493,-3.3338,-3.3236,-3.222,-3.1626,-3.1467,-3.011,-2.8748,-2.7495,-2.6651,0.0,0.0,0.0,0.0,0.0,0.0,0.0,0.0,0.0,-2.0136,-2.0806,0.0,-2.3604,0.0,-2.5569,-2.6866,-2.7281,-2.7431,0.0,0.0,-2.718,-2.7578,-2.7708,-2.8299,-2.9308,-3.0902,-3.1591,-3.285,-3.5169,-3.6339,-3.7465,-3.8648,-3.8852,-3.916,-3.9994,-4.0577,-4.0965,-4.1047,-4.1254,-4.1308,-4.1398,-4.1818,-4.2171,-4.2156,-4.2536,-4.3045,-4.3524,-4.3629,-4.3778,-4.4242,-4.4481,-4.4661,-4.4781,-4.4975,-4.4915,-4.4466,-4.4362,-4.4436,-4.4781,-4.4825,-4.493,-2.6567,-2.7452,-2.7581,-2.7634,-2.7719,-2.8547,-2.9363,-3.01,-3.0772,-3.1228,-3.1492,-3.1962,-3.2222,-3.2352,-3.2481,-3.2698,-3.3009,-3.3452,-3.3933,-3.4445,-3.4861,-3.5215,-3.5441,-3.5454,-3.5454,-3.5454,-3.5454,-3.5454,-3.5454,-3.5454,-3.5454,-3.5454,-3.5454,-3.5107,-3.4427,-3.4329,-3.4261,-3.4274,-3.4575,-3.476,-3.4861,-3.4873,-3.4815,-3.4665,-3.4561,-3.4437,-3.4305,-3.3677,-3.3199,-3.3059,-3.1965,-3.0806,-2.966,-2.9001,-2.7692,0.0,0.0,0.0,0.0,0.0,0.0,0.0,0.0,0.0,0.0,0.0,-2.6011,-2.6486,-2.7672,-2.8524,-2.8837,-2.9076,-2.9001,-2.8461,-2.8963,-2.9404,-2.9504,-3.0279,-3.1435,-3.2988,-3.3633,-3.4826,-3.701,-3.7821,-3.885,-4.0502,-4.047,-4.0539,-4.1126,-4.1709,-4.2058,-4.2073,-4.2175,-4.2252,-4.2237,-4.2551,-4.2895,-4.3195,-4.3524,-4.3988,-4.4616,-4.4751,-4.487,-4.5214,-4.5289,-4.5394,-4.5693,-4.5753,-4.5828,-4.6127,-4.6202,-4.6082,-4.5813,-4.5753,-4.5813,-2.7001,-2.7844,-2.7854,-2.839,-2.9205,-3.0401,-3.115,-3.1683,-3.2583,-3.3062,-3.3248,-3.3894,-3.4202,-3.426,-3.4545,-3.4685,-3.4781,-3.4793,-3.5082,-3.5583,-3.5596,-3.5906,-3.6405,-3.6417,-3.6417,-3.6417,-3.6417,-3.6417,-3.6417,-3.6417,-3.6417,-3.6417,-3.6417,-3.6417,-3.6367,-3.5403,-3.4939,-3.4926,-3.4939,-3.5119,-3.5596,-3.5596,-3.5608,-3.5596,-3.5456,-3.5219,-3.4919,-3.4649,-3.4387,-3.4135,-3.3596,-3.2732,-3.1539,-3.0966,-2.9878,0.0,-2.7977,0.0,0.0,0.0,0.0,0.0,0.0,0.0,0.0,-2.6709,-2.8122,-2.9164,-2.9704,-2.9993,-3.0031,-3.0432,-3.052,-3.0146,-3.068,-3.118,-3.1349,-3.2354,-3.3579,-3.4974,-3.5723,-3.6769,-3.8448,-3.9123,-3.9974,-4.1303,-4.1685,-4.1883,-4.2223,-4.2768,-4.32,-4.3305,-4.3305,-4.314,-4.3185,-4.3319,-4.3643,-4.4167,-4.4362,-4.4676,-4.5319,-4.5424,-4.5454,-4.5574,-4.5648,-4.5798,-4.6352,-4.6456,-4.6651,-4.7115,-4.7189,-4.704,-4.6591,-4.6456,-4.6636,-2.7343,-2.8079,-2.8306,-2.8931,-2.9891,-3.053,-3.0887,-3.1086,-3.172,-3.2453,-3.3202,-3.3341,-3.3664,-3.4044,-3.426,-3.4645,-3.5127,-3.5265,-3.5692,-3.6267,-3.6254,-3.6304,-3.6405,-3.6417,-3.6417,-3.6417,-3.6417,-3.6417,-3.6417,-3.6417,-3.6417,-3.6417,-3.6417,-3.6417,-3.6405,0.0,0.0,0.0,-3.6044,-3.6153,-3.6194,-3.6241,-3.6254,-3.6207,-3.6194,0.0,-3.6091,-3.5583,-3.5261,-3.5182,-3.4668,0.0,0.0,0.0,0.0,0.0,0.0,0.0,0.0,0.0,0.0,0.0,-2.9313,-2.9088,-2.8199,-2.9251,-3.0244,-3.0859,-3.1022,-3.1085,-3.1085,-3.1185,-3.1291,-3.1417,-3.1914,-3.2682,-3.3695,-3.4424,-3.5376,-3.6843,-3.7441,-3.8228,-3.9547,-4.0335,-4.1149,-4.2188,-4.2602,-4.2817,-4.3016,-4.32,-4.329,-4.3305,-4.3305,-4.3305,-4.3305,-4.3723,-4.4082,-4.4347,-4.4781,-4.5334,-4.5963,-4.6127,-4.6352,-4.6756,-4.692,-4.6905,-4.707,-4.7115,-4.713,-4.7279,-4.7309,-4.7279,-4.716,-4.7115,-4.716,-2.7744,0.0,-2.8558,-2.9046,0.0,-3.0245,-3.057,-3.0926,-3.1719,-3.2563,-3.3397,-3.3839,-3.4125,-3.4421,-3.4797,-3.5085,-3.5404,-3.564,-3.5931,-3.6168,-3.6323,-3.6417,-3.6417,-3.6417,-3.6417,-3.6417,-3.6417,-3.6556,-3.6795,-3.682,-3.691,-3.7161,-3.7174,-3.7174,-3.7174,-3.6801,-3.6491,-3.6193,-3.6086,-3.6086,-3.6181,-3.6181,-3.6275,-3.6405,-3.6417,0.0,0.0,0.0,0.0,0.0,0.0,0.0,0.0,0.0,0.0,-3.2534,-3.2209,-3.1685,-3.0764,-3.077,-3.0738,-3.0488,-3.132,-3.1348,-3.0231,-3.067,-3.1348,-3.2139,-3.2227,-3.2453,-3.2968,-3.3031,-3.3116,-3.3411,-3.3768,-3.4362,-3.5204,-3.5864,-3.6732,-3.7954,-3.8657,-3.9438,-4.0602,-4.1186,-4.1849,-4.2589,-4.2875,-4.3061,-4.325,-4.3305,-4.3305,-4.3305,-4.3305,-4.3305,-4.3349,-4.3843,-4.4481,-4.4766,-4.5364,-4.6037,-4.6696,-4.6815,-4.6935,-4.7234,-4.7309,-4.7309,-4.7309,-4.7309,-4.7309,-4.7309,-4.7309,-4.7309,-4.7309,-4.7309,-4.7309,-2.8137,-2.8621,-2.8674,-2.8993,-2.9459,-2.9774,-3.0245,-3.0785,0.0,0.0,0.0,-3.4237,-3.458,-3.4726,-3.5223,-3.5476,-3.5476,-3.5777,-3.592,-3.5955,-3.6181,-3.6313,-3.6413,-3.6426,-3.6463,-3.6563,-3.6551,-3.6789,-3.7276,-3.7276,-3.7514,-3.7965,-3.8002,-3.8002,-3.7915,-3.7257,-3.6675,-3.6205,-3.5815,-3.5716,-3.6015,-3.6102,-3.6283,-3.6556,-3.6556,-3.6556,-3.6556,-3.6468,-3.6417,-3.6392,-3.5931,-3.5633,-3.5621,-3.5119,-3.463,-3.4223,-3.4098,-3.3633,-3.2729,-3.2667,-3.2466,-3.2014,-3.283,-3.2968,-3.2039,-3.1976,-3.2365,-3.3294,-3.337,-3.3746,-3.458,-3.4758,-3.4873,-3.5143,-3.5443,-3.5882,-3.6424,-3.7154,-3.7971,-3.8896,-3.9633,-4.0364,-4.1323,-4.184,-4.2281,-4.2688,-4.2955,-4.313,-4.325,-4.3305,-4.3305,-4.3305,-4.3305,-4.3319,-4.3544,-4.4092,-4.4721,-4.5394,-4.6052,-4.6666,-4.713,-4.7309,-4.7309,-4.7294,-4.7309,-4.7309,-4.7309,-4.7309,-4.7309,-4.7309,-4.7309,-4.7309,-4.7352,-4.7352,-4.7352,-2.8286,-2.8408,-2.8621,-2.8727,-2.8897,-2.9406,-2.9973,-3.0536,-3.1607,-3.2544,-3.3331,-3.3481,-3.3779,-3.4223,-3.4689,-3.4932,-3.4932,-3.5416,-3.5668,-3.5668,-3.5704,-3.5963,-3.6394,-3.6406,-3.6653,-3.7072,-3.7109,-3.7245,-3.7519,-3.7568,-3.7705,-3.7953,-3.8002,-3.8015,-3.7953,-3.7444,-3.7121,-3.7047,-3.61,-3.5716,-3.5968,-3.6438,-3.6819,-3.7061,-3.7121,-3.7073,-3.7061,-3.6681,-3.6417,-3.6405,-3.6342,-3.6292,-3.6267,-3.5717,-3.5345,-3.5257,-3.4818,-3.4492,-3.4329,-3.4361,-3.4292,-3.4229,-3.4399,-3.4412,-3.4274,-3.4248,-3.4311,-3.4487,-3.4462,-3.455,-3.4713,-3.4956,-3.5206,-3.5417,-3.6192,-3.6957,-3.7444,-3.833,-3.9213,-3.9948,-4.0533,-4.1084,-4.1742,-4.2281,-4.2648,-4.2915,-4.309,-4.325,-4.3305,-4.3305,-4.3305,-4.3305,-4.3305,-4.3529,-4.3992,-4.4721,-4.5334,-4.6082,-4.6681,-4.7115,-4.7264,-4.7309,-4.7309,-4.7309,-4.7309,-4.7309,-4.7309,-4.7309,-4.7309,-4.7309,-4.7339,-4.7397,-4.7585,-4.7658,-4.7671,-2.8301,-2.8291,-2.8461,-2.8568,-2.8737,-2.9353,-2.9827,-3.0276,-3.1135,-3.1818,-3.2415,-3.2818,-3.3281,-3.3679,-3.4003,-3.4237,-3.4457,-3.4932,-3.5333,-3.56,-3.5905,-3.6346,-3.6775,-3.6812,-3.6935,-3.7168,-3.7231,-3.7378,-3.78,-3.7825,-3.8012,-3.8424,-3.8602,-3.8703,-3.864,-3.8164,-3.7914,-3.7914,-3.6787,-3.6395,-3.6653,-3.701,-3.7368,-3.7638,-3.7638,-3.7638,-3.7626,-3.7387,-3.7111,-3.681,-3.6857,-3.6719,-3.6417,-3.6119,-3.5981,-3.5981,-3.5755,-3.5491,-3.5132,-3.4843,-3.4851,-3.5094,-3.5119,-3.5257,-3.5592,-3.5064,-3.4806,-3.5094,-3.5119,-3.529,-3.5739,-3.5881,-3.6124,-3.6489,-3.7144,-3.7714,-3.831,-3.9132,-3.9908,-4.0459,-4.1057,-4.1521,-4.1951,-4.2404,-4.2769,-4.2996,-4.317,-4.3305,-4.3305,-4.3305,-4.3305,-4.3305,-4.3305,-4.3589,-4.4227,-4.4855,-4.5529,-4.6217,-4.6875,-4.7249,-4.7309,-4.7309,-4.7309,-4.7309,-4.7309,-4.7309,-4.7324,-4.7309,-4.7309,-4.7339,-4.7769,-4.7991,-4.8153,-4.8683,-4.8956,-2.8301,-2.8301,-2.8398,-2.8657,-2.9025,-2.9497,-2.9807,-3.0177,-3.0827,-3.1307,-3.1616,-3.2472,-3.2994,-3.3361,-3.3692,-3.4005,-3.4267,-3.4752,-3.5214,-3.5623,-3.6009,-3.65,-3.6974,-3.701,-3.7059,-3.7168,-3.7181,-3.7439,-3.7959,-3.8008,-3.8267,-3.8752,-3.905,-3.9206,-3.9297,-3.8796,-3.8573,-3.8599,-3.7808,-3.7313,-3.7281,-3.7617,-3.7929,-3.8191,-3.8203,-3.8203,-3.8191,-3.8078,-3.7814,-3.74,-3.7362,-3.7174,-3.682,-3.6609,-3.6593,-3.6593,-3.6468,-3.6194,-3.5755,-3.5341,-3.5265,-3.5633,-3.5683,-3.5906,-3.6279,-3.5592,-3.5265,-3.5608,-3.5683,-3.5986,-3.6535,-3.673,-3.7015,-3.7551,-3.7893,-3.8342,-3.8953,-3.9675,-4.03,-4.0773,-4.1353,-4.1854,-4.2158,-4.2526,-4.285,-4.3036,-4.321,-4.3305,-4.3305,-4.3305,-4.3334,-4.3484,-4.3499,-4.3798,-4.4421,-4.511,-4.5798,-4.6441,-4.6965,-4.7249,-4.7309,-4.7309,-4.7309,-4.7324,-4.7474,-4.7563,-4.7549,-4.7713,-4.7862,-4.801,-4.8442,-4.8888,-4.9166,-4.9904,-5.0355,-2.8301,-2.8359,-2.8711,-2.9266,-2.9812,-2.9933,-3.0088,-3.0409,-3.1049,-3.1332,-3.1467,-3.247,-3.3142,-3.3471,-3.4173,-3.4526,-3.4642,-3.5257,-3.5537,-3.5596,-3.5647,-3.5942,-3.6454,-3.6478,-3.6714,-3.7068,-3.7104,-3.7358,-3.7918,-3.7983,-3.8255,-3.8736,-3.8841,-3.901,-3.9193,-3.8936,-3.8911,-3.9248,-3.9146,-3.8573,-3.7643,-3.8102,-3.8579,-3.8781,-3.8793,-3.8793,-3.8781,-3.8291,-3.799,-3.7939,-3.7939,-3.7902,-3.7801,-3.7387,-3.7111,-3.7134,-3.6694,-3.638,-3.6329,-3.6292,-3.6241,-3.6317,-3.6304,-3.6282,-3.6405,-3.6304,-3.6254,-3.6304,-3.6317,-3.6424,-3.6662,-3.6909,-3.7294,-3.7802,-3.8427,-3.8922,-3.9336,-4.0097,-4.073,-4.0958,-4.1563,-4.2131,-4.2526,-4.2835,-4.3036,-4.321,-4.325,-4.3349,-4.3409,-4.3409,-4.3618,-4.4077,-4.4242,-4.4541,-4.5125,-4.5768,-4.6352,-4.6995,-4.7234,-4.7309,-4.7309,-4.7309,-4.7324,-4.7534,-4.7788,-4.8072,-4.8312,-4.867,-4.9074,-4.9043,-4.9371,-4.9744,-5.0299,-5.0842,-5.0936,-2.8662,-2.8701,-2.9131,-2.946,-2.9793,-2.9915,-3.0082,-3.0203,-3.0853,-3.1299,-3.1562,-3.2458,-3.2951,-3.32,-3.3551,-3.388,-3.4249,-3.4617,-3.501,-3.5304,-3.5485,-3.5792,-3.6309,-3.6344,-3.6472,-3.6634,-3.6808,-3.697,-3.7239,-3.74,-3.7679,-3.8063,-3.8262,-3.8473,-3.8788,-3.8998,-3.9154,-3.9322,-3.9426,-3.9304,-3.8942,-3.9067,-3.9256,-3.9358,-3.9358,-3.9358,-3.9346,-3.9107,-3.8856,-3.8555,-3.8504,-3.8354,-3.8027,-3.7789,-3.7663,-3.7638,-3.7161,-3.6847,-3.6895,-3.6593,-3.6417,-3.6417,-3.6417,-3.6417,-3.6417,-3.6417,-3.6417,-3.6405,-3.6487,-3.6675,-3.6909,-3.7281,-3.7723,-3.8076,-3.8711,-3.9292,-3.9703,-4.0416,-4.1057,-4.1535,-4.1951,-4.2377,-4.2795,-4.3036,-4.321,-4.3305,-4.3305,-4.3439,-4.3783,-4.3873,-4.4197,-4.4766,-4.5214,-4.5532,-4.5873,-4.6097,-4.6606,-4.71,-4.7309,-4.7309,-4.7309,-4.7309,-4.7414,-4.7773,-4.8177,-4.8536,-4.888,-4.903,-4.9359,-4.9674,-5.0364,-5.0903,-5.1891,-5.229,-5.2492,-2.9101,-2.916,-2.956,-2.9814,-2.9988,-3.0157,-3.0224,-3.031,-3.088,-3.1305,-3.1562,-3.2152,-3.2615,-3.2931,-3.3204,-3.354,-3.3972,-3.4218,-3.4569,-3.4937,-3.5122,-3.5423,-3.5806,-3.5895,-3.595,-3.6004,-3.6223,-3.6429,-3.6592,-3.6862,-3.7143,-3.7477,-3.7732,-3.8051,-3.8315,-3.8841,-3.9154,-3.931,-3.953,-3.9633,-3.9685,-3.9697,-3.9697,-3.9697,-3.9697,-3.9697,-3.9697,-3.9697,-3.9509,-3.912,-3.9094,-3.8919,-3.8504,-3.8329,-3.8178,-3.799,-3.7638,-3.7412,-3.7412,-3.7036,-3.687,-3.681,-3.6744,-3.6644,-3.6606,-3.6493,-3.6405,-3.6499,-3.6675,-3.6922,-3.7108,-3.7572,-3.7985,-3.8381,-3.9011,-3.9601,-4.0126,-4.0716,-4.1311,-4.191,-4.2254,-4.2622,-4.2996,-4.321,-4.3334,-4.3559,-4.3604,-4.3798,-4.4407,-4.4601,-4.4811,-4.5469,-4.6007,-4.6204,-4.6294,-4.6503,-4.6815,-4.707,-4.7309,-4.7309,-4.7354,-4.7414,-4.7608,-4.8087,-4.8461,-4.894,-4.9509,-4.9644,-5.005,-5.0411,-5.1118,-5.1992,-5.2805,-5.3331,-5.3695,-2.9541,-2.9665,-2.999,-3.041,-3.081,-3.0849,-3.0869,-3.08,-3.1159,-3.1285,-3.1381,-3.171,-3.216,-3.2752,-3.3465,-3.4,-3.4101,-3.4304,-3.4471,-3.4515,-3.4526,-3.4558,-3.4591,-3.4913,-3.5047,-3.5091,-3.5301,-3.5742,-3.6277,-3.6549,-3.6862,-3.7131,-3.7423,-3.7744,-3.8039,-3.8303,-3.8736,-3.9206,-3.9322,-3.9426,-3.9633,-3.9697,-3.9697,-3.9697,-3.9697,-3.9697,-3.9697,-3.9697,-3.9672,-3.9647,-3.9622,-3.9609,-3.9546,-3.9107,-3.8655,-3.814,-3.8002,-3.7977,-3.7977,-3.7889,-3.7839,-3.7814,-3.74,-3.7149,-3.7123,-3.6807,-3.6616,-3.6725,-3.7015,-3.719,-3.7317,-3.7729,-3.8213,-3.8774,-3.9295,-3.9867,-4.0559,-4.1086,-4.1507,-4.1993,-4.2444,-4.2894,-4.3255,-4.3305,-4.3648,-4.4092,-4.4272,-4.4511,-4.508,-4.5259,-4.5559,-4.6052,-4.6294,-4.6337,-4.6381,-4.6741,-4.713,-4.7294,-4.7309,-4.7309,-4.7534,-4.7743,-4.8057,-4.8521,-4.9269,-4.9823,-5.0197,-5.0741,-5.1395,-5.188,-5.2239,-5.3009,-5.3377,-5.3785,-5.4146,-3.0146,-3.043,-3.0576,-3.0742,-3.0879,-3.0898,-3.0898,-3.0898,-3.1005,-3.116,-3.1267,-3.1441,-3.173,-3.2123,-3.2467,-3.3048,-3.3738,-3.3896,-3.3942,-3.3942,-3.3952,-3.3942,-3.3952,-3.4076,-3.4142,-3.4132,-3.4412,-3.4869,-3.5423,-3.5742,-3.6114,-3.6538,-3.6712,-3.7089,-3.7691,-3.7986,-3.8409,-3.8945,-3.9218,-3.9426,-3.9697,-3.9697,-3.9697,-3.9697,-3.9697,-3.9697,-3.9697,-3.9697,-3.9697,-3.9697,-3.9697,-3.9697,-3.9685,-3.9509,-3.932,-3.9082,-3.8755,-3.8567,-3.8517,-3.8216,-3.8002,-3.799,-3.7839,-3.7713,-3.7688,-3.7538,-3.7509,-3.7739,-3.8028,-3.828,-3.8553,-3.8503,-3.8589,-3.9114,-3.9719,-4.0314,-4.083,-4.1409,-4.1966,-4.2404,-4.2809,-4.3279,-4.3802,-4.3932,-4.4227,-4.4781,-4.4945,-4.5259,-4.5753,-4.5948,-4.6172,-4.6741,-4.695,-4.695,-4.695,-4.71,-4.7309,-4.7309,-4.7309,-4.7309,-4.7444,-4.7952,-4.8312,-4.8895,-4.9733,-5.0529,-5.0862,-5.1425,-5.2139,-5.2473,-5.2937,-5.3409,-5.3742,-5.406,-5.4401,-3.0605,-3.0869,-3.0898,-3.0898,-3.0898,-3.0898,-3.0898,-3.0898,-3.0898,-3.1005,-3.116,-3.116,-3.1404,-3.1814,-3.1882,-3.2448,-3.332,-3.3158,-3.3001,-3.3001,-3.2991,-3.3001,-3.3058,-3.3105,-3.3218,-3.3388,-3.3738,-3.4199,-3.4713,-3.498,-3.5356,-3.584,-3.6102,-3.6592,-3.7262,-3.7679,-3.8145,-3.8631,-3.901,-3.927,-3.953,-3.9645,-3.9697,-3.9697,-3.9697,-3.9697,-3.9697,-3.9697,-3.9697,-3.9697,-3.9697,-3.9697,-3.9697,-3.9697,-3.9697,-3.9659,-3.9346,-3.9132,-3.9107,-3.8768,-3.8555,-3.8542,-3.8379,-3.8291,-3.8278,-3.8115,-3.8175,-3.8458,-3.8702,-3.903,-3.9572,-3.9475,-3.9494,-3.9979,-4.062,-4.1234,-4.1696,-4.2279,-4.2896,-4.3422,-4.3819,-4.4186,-4.4526,-4.4601,-4.496,-4.5529,-4.5633,-4.5903,-4.6471,-4.6651,-4.6756,-4.7204,-4.7264,-4.7249,-4.7204,-4.7249,-4.7309,-4.7309,-4.7309,-4.7309,-4.7519,-4.8072,-4.8671,-4.9284,-5.0034,-5.0862,-5.1545,-5.2124,-5.2503,-5.2803,-5.3248,-5.3714,-5.4017,-5.4316,-5.4655,-3.0879,-3.0898,-3.0898,-3.0898,-3.0898,-3.0937,-3.0918,-3.0947,-3.0967,-3.1035,-3.1133,-3.1025,-3.1456,-3.1929,-3.1989,-3.2435,-3.2803,-3.2377,-3.2054,-3.2102,-3.2072,-3.2082,-3.2092,-3.2333,-3.2611,-3.283,-3.3338,-3.3813,-3.4159,-3.4508,-3.4834,-3.5135,-3.5908,-3.6389,-3.67,-3.7316,-3.7862,-3.8368,-3.8684,-3.8998,-3.931,-3.9581,-3.9697,-3.9697,-3.9697,-3.9697,-3.9697,-3.9697,-3.9697,-3.9697,-3.9697,-3.9697,-3.9697,-3.9697,-3.9697,-3.9697,-3.9672,-3.9672,-3.9659,-3.9584,-3.9509,-3.9471,-3.9145,-3.8919,-3.8806,-3.8504,-3.8438,-3.8858,-3.9064,-3.9353,-4.0256,-4.0636,-4.0889,-4.1425,-4.1942,-4.2554,-4.311,-4.3676,-4.425,-4.4697,-4.4971,-4.5244,-4.5289,-4.5304,-4.5589,-4.6127,-4.6337,-4.6501,-4.7025,-4.713,-4.7249,-4.7294,-4.7309,-4.7309,-4.7309,-4.7309,-4.7309,-4.7309,-4.7309,-4.7339,-4.7623,-4.8102,-4.879,-4.9464,-5.0622,-5.1438,-5.1987,-5.2503,-5.2817,-5.3188,-5.3627,-5.406,-5.4359,-5.4655,-5.4973,-3.0898,-3.0898,-3.0898,-3.0898,-3.0937,-3.1201,-3.1328,-3.1357,-3.1621,-3.1768,-3.1768,-3.1768,-3.1966,-3.2114,-3.2144,-3.2283,-3.2422,-3.2226,-3.2296,-3.2633,-3.2693,-3.2673,-3.2663,-3.2742,-3.2871,-3.3048,-3.3568,-3.392,-3.4074,-3.455,-3.4963,-3.5205,-3.5624,-3.6036,-3.6464,-3.697,-3.756,-3.8092,-3.8579,-3.8945,-3.931,-3.953,-3.9697,-3.9697,-3.9697,-3.9697,-3.9697,-3.9697,-3.9697,-3.9697,-3.9697,-3.9697,-3.9697,-3.9697,-3.9697,-3.9697,-3.9697,-3.9697,-3.9697,-3.9697,-3.9697,-3.9672,-3.9509,-3.9446,-3.9485,-3.9436,-3.9512,-3.994,-4.0266,-4.0874,-4.1656,-4.2221,-4.2342,-4.2052,-4.2497,-4.3147,-4.3849,-4.4352,-4.4803,-4.5138,-4.5248,-4.5484,-4.5873,-4.6007,-4.6247,-4.68,-4.695,-4.71,-4.7234,-4.7309,-4.7309,-4.7309,-4.7309,-4.7309,-4.7309,-4.7309,-4.7309,-4.7309,-4.7309,-4.7309,-4.7623,-4.8297,-4.9015,-4.9915,-5.1091,-5.1865,-5.2427,-5.2817,-5.3144,-5.354,-5.3931,-5.4359,-5.4697,-5.5031,-5.536,-3.0898,-3.0908,-3.1064,-3.1133,-3.1172,-3.1582,-3.1768,-3.1797,-3.2041,-3.2229,-3.2219,-3.2158,-3.2317,-3.2373,-3.2402,-3.25,-3.2617,-3.2637,-3.2873,-3.3091,-3.2843,-3.2764,-3.2814,-3.2864,-3.2925,-3.2985,-3.3395,-3.3743,-3.3863,-3.4397,-3.479,-3.5136,-3.5657,-3.6095,-3.6434,-3.7099,-3.7571,-3.794,-3.8473,-3.8905,-3.9154,-3.9465,-3.9697,-3.9697,-3.9697,-3.9697,-3.9697,-3.9697,-3.9697,-3.9697,-3.9697,-3.9697,-3.9697,-3.9697,-3.9697,-3.9697,-3.9697,-3.9697,-3.9697,-3.9697,-3.9697,-3.9697,-3.9697,-3.9736,-3.9826,-4.0032,-4.0224,-4.0643,-4.0971,-4.161,-4.2387,-4.3053,-4.3241,-4.3252,-4.3545,-4.4072,-4.4836,-4.5399,-4.5771,-4.6043,-4.6097,-4.6277,-4.6546,-4.6668,-4.683,-4.7234,-4.7309,-4.7309,-4.7309,-4.7309,-4.7309,-4.7309,-4.7309,-4.7309,-4.7309,-4.7309,-4.7309,-4.7309,-4.7309,-4.7309,-4.7444,-4.852,-4.9359,-5.0547,-5.1698,-5.2184,-5.2698,-5.2995,-5.3305,-5.3801,-5.4231,-5.4655,-5.4989,-5.5319,-5.5645,-3.0908,-3.0986,-3.1348,-3.1514,-3.1601,-3.2021,-3.2197,-3.2268,-3.2285,-3.2324,-3.2305,-3.2353,-3.25,-3.2773,-3.2832,-3.2998,-3.334,-3.331,-3.3291,-3.3178,-3.2829,-3.2485,-3.2566,-3.2739,-3.28,-3.2821,-3.3095,-3.3427,-3.3809,-3.4089,-3.44,-3.5109,-3.5965,-3.6437,-3.6758,-3.749,-3.7746,-3.7816,-3.8417,-3.8788,-3.8841,-3.9426,-3.9697,-3.9697,-3.9697,-3.9697,-3.9697,-3.9697,-3.9697,-3.9697,-3.9697,-3.9697,-3.9697,-3.9697,-3.9697,-3.9697,-3.9697,-3.9697,-3.9697,-3.9697,-3.9697,-3.9697,-3.9697,-3.9775,-4.0032,-4.0134,-4.0377,-4.0883,-4.1261,-4.1759,-4.2547,-4.3245,-4.3937,-4.4694,-4.4955,-4.5513,-4.6403,-4.6696,-4.6839,-4.7086,-4.7279,-4.7294,-4.7204,-4.7219,-4.7249,-4.7294,-4.7309,-4.7309,-4.7309,-4.7309,-4.7309,-4.7309,-4.7309,-4.7309,-4.7309,-4.7309,-4.7309,-4.7309,-4.7309,-4.7324,-4.7547,-4.8595,-4.9915,-5.1077,-5.1942,-5.2457,-5.2906,-5.3217,-5.3612,-5.4103,-5.4544,-5.4948,-5.5278,-5.5604,-5.5846,-3.1064,-3.1357,-3.1475,-3.1699,-3.2041,-3.2451,-3.2627,-3.2676,-3.2959,-3.3037,-3.3076,-3.3086,-3.3105,-3.3242,-3.3242,-3.333,-3.3398,-3.3437,-3.3418,-3.3389,-3.3232,-3.3096,-3.3096,-3.3139,-3.3181,-3.3234,-3.3433,-3.3823,-3.4195,-3.4432,-3.492,-3.5529,-3.6231,-3.6647,-3.6905,-3.7588,-3.786,-3.789,-3.8485,-3.8801,-3.8893,-3.9374,-3.9697,-3.9697,-3.9697,-3.9697,-3.9697,-3.9697,-3.9697,-3.9697,-3.9697,-3.9697,-3.9697,-3.9697,-3.9697,-3.9697,-3.9697,-3.9697,-3.9697,-3.9697,-3.9697,-3.9697,-3.9749,-3.9839,-4.007,-4.03,-4.0656,-4.1161,-4.1759,-4.24,-4.3018,-4.3784,-4.4583,-4.5458,-4.5911,-4.6299,-4.6697,-4.7019,-4.7207,-4.7294,-4.7309,-4.7309,-4.7309,-4.7309,-4.7309,-4.7309,-4.7309,-4.7309,-4.7309,-4.7309,-4.7309,-4.7309,-4.7309,-4.7309,-4.7309,-4.7309,-4.7309,-4.7309,-4.7324,-4.7339,-4.78,-4.8638,-5.0065,-5.1546,-5.2033,-5.2548,-5.2995,-5.3377,-5.3872,-5.4375,-5.4671,-5.4964,-5.5499,-5.5863,-5.6046,-3.1299,-3.1553,-3.1904,-3.2197,-3.2471,-3.2881,-3.3057,-3.3105,-3.331,-3.3418,-3.3418,-3.3418,-3.3418,-3.3418,-3.3408,-3.3418,-3.3437,-3.3613,-3.3701,-3.373,-3.3877,-3.375,-3.3506,-3.3418,-3.3418,-3.3418,-3.3607,-3.3902,-3.433,-3.461,-3.5129,-3.5929,-3.661,-3.7074,-3.7458,-3.819,-3.8473,-3.8435,-3.8829,-3.9099,-3.9074,-3.9426,-3.9645,-3.9697,-3.9697,-3.9697,-3.9697,-3.9697,-3.9697,-3.9697,-3.9697,-3.9697,-3.9697,-3.9697,-3.9697,-3.9697,-3.9697,-3.9697,-3.9697,-3.9697,-3.9697,-3.9736,-3.9775,-3.9993,-4.0287,-4.0605,-4.101,-4.1461,-4.2204,-4.2825,-4.3485,-4.4397,-4.5321,-4.6046,-4.6506,-4.6756,-4.6873,-4.7121,-4.7266,-4.7309,-4.7309,-4.7309,-4.7309,-4.7309,-4.7309,-4.7309,-4.7309,-4.7309,-4.7309,-4.7309,-4.7309,-4.7309,-4.7309,-4.7309,-4.7309,-4.7309,-4.7309,-4.7309,-4.7309,-4.7339,-4.789,-4.8652,-4.9988,-5.1288,-5.1971,-5.2638,-5.3069,-5.3509,-5.3872,-5.4274,-5.4629,-5.5063,-5.5539,-5.5903,-5.6086,-3.1543,-3.165,-3.2451,-3.2822,-3.291,-3.3252,-3.3369,-3.3398,-3.3408,-3.3418,-3.3418,-3.3418,-3.3418,-3.3418,-3.3418,-3.3457,-3.3525,-3.3867,-3.4062,-3.4199,-3.4365,-3.4267,-3.375,-3.3711,-3.3652,-3.3584,-3.3506,-3.3845,-3.4328,-3.4423,-3.517,-3.6215,-3.7028,-3.7695,-3.8141,-3.8977,-3.9199,-3.9013,-3.9265,-3.9401,-3.9305,-3.953,-3.9697,-3.9697,-3.9697,-3.9697,-3.9697,-3.9697,-3.9697,-3.9697,-3.9697,-3.9697,-3.9697,-3.9697,-3.9697,-3.9697,-3.9697,-3.9697,-3.9697,-3.9697,-3.9749,-3.9788,-3.9981,-4.0287,-4.0605,-4.101,-4.1398,-4.1895,-4.2533,-4.3245,-4.3993,-4.5124,-4.5925,-4.6417,-4.6771,-4.6887,-4.6975,-4.7164,-4.7309,-4.7309,-4.7309,-4.7309,-4.7309,-4.7309,-4.7309,-4.7309,-4.7309,-4.7309,-4.7309,-4.7309,-4.7309,-4.7309,-4.7309,-4.7309,-4.7309,-4.7309,-4.7309,-4.7309,-4.7309,-4.7399,-4.7919,-4.8696,-4.9866,-5.0891,-5.1649,-5.2466,-5.3246,-5.3596,-5.3899,-5.4301,-5.4671,-5.5129,-5.5539,-5.5742,-5.5927,-3.1728,-3.208,-3.2578,-3.2978,-3.3271,-3.3389,-3.3418,-3.3418,-3.3418,-3.3418,-3.3418,-3.3418,-3.3418,-3.3418,-3.3428,-3.3594,-3.3887,-3.4092,-3.4228,-3.457,-3.4629,-3.4639,-3.4424,-3.4424,-3.4238,-3.4033,-3.3935,-3.4132,-3.4408,-3.4765,-3.5366,-3.6351,-3.7314,-3.8052,-3.8678,-3.9151,-3.946,-3.9386,-3.955,-3.9488,-3.9434,-3.953,-3.9697,-3.9697,-3.9697,-3.9697,-3.9697,-3.9697,-3.9697,-3.9697,-3.9697,-3.9697,-3.9697,-3.9697,-3.9697,-3.9697,-3.9697,-3.9697,-3.9697,-3.9749,-3.9788,-4.0032,-4.0134,-4.0389,-4.106,-4.1261,-4.1746,-4.2435,-4.3149,-4.3899,-4.4894,-4.5549,-4.6105,-4.6565,-4.68,-4.7019,-4.7164,-4.7251,-4.7309,-4.7309,-4.7309,-4.7309,-4.7309,-4.7309,-4.7309,-4.7309,-4.7309,-4.7309,-4.7309,-4.7309,-4.7309,-4.7309,-4.7309,-4.7309,-4.7309,-4.7309,-4.7309,-4.7309,-4.7309,-4.7324,-4.78,-4.8379,-4.9351,-5.0389,-5.1403,-5.2215,-5.2981,-5.3465,-5.3683,-5.4173,-5.4655,-5.4989,-5.5278,-5.5523,-5.5645,-3.206,-3.25,-3.291,-3.3213,-3.3398,-3.3418,-3.3418,-3.3418,-3.3418,-3.3418,-3.3418,-3.3418,-3.3418,-3.3418,-3.3437,-3.3662,-3.4111,-3.4541,-3.4922,-3.5254,-3.5342,-3.5332,-3.5322,-3.5254,-3.5029,-3.4453,-3.4334,-3.4501,-3.4755,-3.5034,-3.5675,-3.6656,-3.7506,-3.8395,-3.9098,-3.9429,-3.9665,-3.9837,-3.9707,-3.9553,-3.9526,-3.9581,-3.9697,-3.9697,-3.9697,-3.9697,-3.9697,-3.9697,-3.9697,-3.9697,-3.9697,-3.9697,-3.9697,-3.9697,-3.9697,-3.9697,-3.9697,-3.98,-3.9839,-3.989,-3.9993,-4.0287,-4.0504,-4.0858,-4.1361,-4.1696,-4.2239,-4.2873,-4.358,-4.4429,-4.5564,-4.606,-4.6387,-4.6683,-4.6931,-4.7164,-4.7266,-4.7309,-4.7309,-4.7309,-4.7309,-4.7309,-4.7309,-4.7309,-4.7309,-4.7309,-4.7309,-4.7309,-4.7309,-4.7309,-4.7309,-4.7309,-4.7309,-4.7309,-4.7309,-4.7309,-4.7309,-4.7309,-4.7309,-4.7309,-4.7502,-4.8034,-4.8641,-4.975,-5.0822,-5.1773,-5.2508,-5.2963,-5.3505,-5.4044,-5.4444,-5.4723,-5.4948,-5.5113,-5.5212,-3.2412,-3.2832,-3.3242,-3.3418,-3.3418,-3.3418,-3.3418,-3.3418,-3.3418,-3.3418,-3.3418,-3.3418,-3.3418,-3.3418,-3.3418,-3.3691,-3.4307,-3.5049,-3.5605,-3.583,-3.5869,-3.5869,-3.5889,-3.582,-3.5594,-3.488,-3.4739,-3.4887,-3.503,-3.5427,-3.5921,-3.6878,-3.7736,-3.8633,-3.9475,-3.9729,-3.989,-4.019,-3.9922,-3.9711,-3.9681,-3.9685,-3.9697,-3.9697,-3.9697,-3.9697,-3.9697,-3.9697,-3.9697,-3.9697,-3.9697,-3.9697,-3.9697,-3.9697,-3.9697,-3.9697,-3.9736,-3.989,-4.0032,-4.0134,-4.0287,-4.0605,-4.101,-4.1361,-4.171,-4.2289,-4.2838,-4.3451,-4.4115,-4.5,-4.5835,-4.6328,-4.6624,-4.6887,-4.7106,-4.7251,-4.7309,-4.7309,-4.7309,-4.7309,-4.7309,-4.7309,-4.7309,-4.7309,-4.7309,-4.7309,-4.7309,-4.7309,-4.7309,-4.7309,-4.7309,-4.7309,-4.7309,-4.7309,-4.7309,-4.7309,-4.7309,-4.7309,-4.7309,-4.7309,-4.7352,-4.7835,-4.844,-4.9159,-5.012,-5.1067,-5.193,-5.252,-5.309,-5.3773,-5.413,-5.4327,-5.447,-5.4629,-5.4713,-3.2412,-3.2832,-3.3242,-3.3418,-3.3418,-3.3418,-3.3418,-3.3418,-3.3418,-3.3418,-3.3418,-3.3418,-3.3418,-3.3418,-3.3418,-3.3848,-3.4551,-3.5293,-3.5801,-3.5908,-3.5908,-3.5908,-3.5879,-3.584,-3.5759,-3.5682,-3.528,-3.5047,-3.5237,-3.5614,-3.6239,-3.7,-3.8014,-3.9037,-3.9628,-3.9981,-4.0086,-4.0244,-3.9985,-3.9847,-3.9706,-3.9697,-3.9697,-3.9697,-3.9697,-3.9697,-3.9697,-3.9697,-3.9697,-3.9697,-3.9697,-3.9697,-3.9749,-3.9749,-3.9749,-3.9788,-3.9929,-4.0083,-4.0185,-4.0351,-4.0707,-4.106,-4.1361,-4.1858,-4.24,-4.2873,-4.3417,-4.4209,-4.4954,-4.579,-4.6121,-4.658,-4.68,-4.6975,-4.7121,-4.7309,-4.7309,-4.7309,-4.7309,-4.7309,-4.7309,-4.7309,-4.7309,-4.7309,-4.7309,-4.7309,-4.7309,-4.7309,-4.7309,-4.7309,-4.7309,-4.7309,-4.7309,-4.7309,-4.7309,-4.7309,-4.7309,-4.7309,-4.7309,-4.7309,-4.7439,-4.7724,-4.8298,-4.8824,-4.9527,-5.038,-5.1209,-5.1986,-5.2732,-5.3412,-5.362,-5.384,-5.4001,-5.4146,-5.4189,-3.2734,-3.3135,-3.334,-3.3418,-3.3418,-3.3418,-3.3418,-3.3418,-3.3418,-3.3418,-3.3418,-3.3418,-3.3418,-3.3418,-3.3418,-3.3799,-3.4434,-3.5,-3.5312,-3.5342,-3.5332,-3.5342,-3.5371,-3.5361,-3.5434,-3.5402,-3.5296,-3.5338,-3.5638,-3.5956,-3.6617,-3.7435,-3.8384,-3.91,-3.9534,-3.9736,-3.9927,-3.9937,-3.9795,-3.9713,-3.9722,-3.9697,-3.9697,-3.9697,-3.9697,-3.9697,-3.9697,-3.9697,-3.9697,-3.9697,-3.9697,-3.98,-3.9839,-3.9929,-3.9942,-3.9942,-4.0134,-4.0377,-4.0542,-4.0744,-4.111,-4.1511,-4.1845,-4.2302,-4.2887,-4.3403,-4.4115,-4.4954,-4.5473,-4.6105,-4.6521,-4.6785,-4.6916,-4.7121,-4.7266,-4.7309,-4.7309,-4.7309,-4.7309,-4.7309,-4.7309,-4.7309,-4.7309,-4.7309,-4.7309,-4.7309,-4.7309,-4.7309,-4.7309,-4.7309,-4.7309,-4.7309,-4.7309,-4.7309,-4.7309,-4.7309,-4.7309,-4.7309,-4.7309,-4.7309,-4.7396,-4.7681,-4.7955,-4.8341,-4.9026,-4.9858,-5.074,-5.1652,-5.234,-5.3015,-5.3299,-5.3552,-5.3596,-5.364,-5.364,-3.3037,-3.3418,-3.3418,-3.3418,-3.3418,-3.3418,-3.3418,-3.3418,-3.3418,-3.3418,-3.3418,-3.3418,-3.3418,-3.3447,-3.3555,-3.3769,-3.4101,-3.4551,-3.4756,-3.4785,-3.4785,-3.4736,-3.4717,-3.4753,-3.4894,-3.5266,-3.5284,-3.5542,-3.5965,-3.6327,-3.7054,-3.7916,-3.8622,-3.9197,-3.9596,-3.981,-3.9691,-3.9586,-3.9491,-3.949,-3.9645,-3.9697,-3.9697,-3.9697,-3.9697,-3.9697,-3.9697,-3.9697,-3.9697,-3.9749,-3.98,-3.989,-4.0083,-4.0275,-4.0338,-4.0389,-4.0542,-4.0744,-4.0997,-4.1398,-4.1696,-4.2056,-4.2595,-4.2984,-4.3465,-4.4162,-4.5,-4.57,-4.6105,-4.6328,-4.6756,-4.6931,-4.7062,-4.7207,-4.7266,-4.7309,-4.7309,-4.7309,-4.7309,-4.7309,-4.7309,-4.7309,-4.7309,-4.7309,-4.7309,-4.7309,-4.7309,-4.7309,-4.7309,-4.7309,-4.7309,-4.7309,-4.7309,-4.7309,-4.7309,-4.7309,-4.7309,-4.7309,-4.7309,-4.7309,-4.7424,-4.7596,-4.7827,-4.8143,-4.868,-4.9512,-5.0414,-5.1274,-5.1933,-5.25,-5.3002,-5.3233,-5.3217,-5.3113,-5.3069,-3.3037,-3.3418,-3.3418,-3.3418,-3.3418,-3.3418,-3.3418,-3.3418,-3.3418,-3.3418,-3.3418,-3.3418,-3.3418,-3.3486,-3.3789,-3.3975,-3.416,-3.4375,-3.4541,-3.4521,-3.4551,-3.4551,-3.4639,-3.4697,-3.4774,-3.508,-3.5351,-3.5742,-3.6206,-3.6644,-3.7314,-3.8253,-3.9064,-3.9813,-3.9908,-3.9982,-4.0181,-4.0012,-3.9753,-3.9645,-3.9685,-3.9697,-3.9697,-3.9697,-3.9697,-3.9697,-3.9697,-3.9697,-3.9685,-3.9736,-3.9929,-4.0032,-4.0236,-4.0795,-4.111,-4.1161,-4.1211,-4.1261,-4.1411,-4.1908,-4.24,-4.2679,-4.3115,-4.3546,-4.4256,-4.4954,-4.5654,-4.5835,-4.6358,-4.6756,-4.6931,-4.7121,-4.7266,-4.7266,-4.7309,-4.7309,-4.7309,-4.7309,-4.7309,-4.7309,-4.7309,-4.7309,-4.7309,-4.7309,-4.7309,-4.7309,-4.7309,-4.7309,-4.7309,-4.7309,-4.7309,-4.7309,-4.7309,-4.7309,-4.7309,-4.7309,-4.7309,-4.7309,-4.7309,-4.7309,-4.7424,-4.7553,-4.7837,-4.8183,-4.8657,-4.9301,-5.0402,-5.1126,-5.1588,-5.214,-5.2738,-5.2833,-5.2803,-5.2653,-5.2532,-3.3262,-3.3418,-3.3418,-3.3418,-3.3418,-3.3418,-3.3418,-3.3418,-3.3418,-3.3418,-3.3418,-3.3418,-3.3418,-3.3476,-3.3643,-3.3691,-3.375,-3.3926,-3.3984,-3.4014,-3.4014,-3.3994,-3.4019,-3.4167,-3.4402,-3.4825,-3.528,-3.5925,-3.6419,-3.7008,-3.7665,-3.8554,-3.9092,-3.9437,-3.9866,-3.994,-3.9779,-3.9693,-3.9655,-3.971,-3.9697,-3.9697,-3.9697,-3.9697,-3.9697,-3.9697,-3.9697,-3.9697,-3.9788,-3.9878,-4.0083,-4.0338,-4.0694,-4.1161,-4.1411,-4.2007,-4.2155,-4.2155,-4.2119,-4.2498,-4.2873,-4.3307,-4.3737,-4.4303,-4.5106,-4.5609,-4.615,-4.6432,-4.6697,-4.6916,-4.7062,-4.7222,-4.7266,-4.7309,-4.7309,-4.7309,-4.7309,-4.7309,-4.7309,-4.7309,-4.7309,-4.7309,-4.7309,-4.7309,-4.7309,-4.7309,-4.7309,-4.7309,-4.7309,-4.7309,-4.7309,-4.7309,-4.7309,-4.7309,-4.7309,-4.7309,-4.7309,-4.7309,-4.7309,-4.7352,-4.7424,-4.7596,-4.7837,-4.8091,-4.8462,-4.9278,-5.0362,-5.0913,-5.1298,-5.193,-5.2593,-5.2563,-5.2473,-5.2307,-5.22,-3.3418,-3.3418,-3.3418,-3.3418,-3.3418,-3.3418,-3.3418,-3.3418,-3.3418,-3.3418,-3.3418,-3.3418,-3.3418,-3.3418,-3.3437,-3.3467,-3.3437,-3.3418,-3.3418,-3.3418,-3.3418,-3.3467,-3.3589,-3.3792,-3.4107,-3.4403,-3.5047,-3.5743,-3.6481,-3.7166,-3.7851,-3.8821,-3.9117,-3.9288,-3.9496,-3.9616,-3.9615,-3.9538,-3.9619,-3.9697,-3.9697,-3.9697,-3.9697,-3.9697,-3.9697,-3.9697,-3.9697,-3.9788,-3.9942,-4.0032,-4.0275,-4.0643,-4.111,-4.1524,-4.1957,-4.2498,-4.2838,-4.3128,-4.308,-4.3259,-4.3485,-4.3912,-4.4429,-4.5106,-4.5654,-4.6015,-4.6284,-4.6785,-4.696,-4.7106,-4.7251,-4.7309,-4.7309,-4.7309,-4.7309,-4.7309,-4.7309,-4.7309,-4.7309,-4.7309,-4.7309,-4.7309,-4.7309,-4.7309,-4.7309,-4.7309,-4.7309,-4.7309,-4.7309,-4.7309,-4.7309,-4.7309,-4.7309,-4.7309,-4.7309,-4.7309,-4.7309,-4.7309,-4.7309,-4.7309,-4.7381,-4.7553,-4.7794,-4.8076,-4.8286,-4.9063,-4.9977,-5.0485,-5.1023,-5.1842,-5.2412,-5.2322,-5.2231,-5.2017,-5.1849,-3.3418,-3.3418,-3.3418,-3.3418,-3.3418,-3.3418,-3.3418,-3.3418,-3.3418,-3.3418,-3.3418,-3.3418,-3.3418,-3.3418,-3.3418,-3.3418,-3.3418,-3.3418,-3.3418,-3.3418,-3.3408,-3.335,-3.3436,-3.3668,-3.4053,-3.4428,-3.4962,-3.5572,-3.6254,-3.7025,-3.7906,-3.8885,-3.9065,-3.9423,-3.9588,-3.9603,-3.9625,-3.9617,-3.9697,-3.9697,-3.9697,-3.9697,-3.9697,-3.9697,-3.9697,-3.9697,-3.9685,-3.9929,-4.0134,-4.0173,-4.058,-4.0997,-4.1511,-4.202,-4.2511,-4.3032,-4.3636,-4.4032,-4.4221,-4.4185,-4.4364,-4.4783,-4.5276,-4.5745,-4.606,-4.6535,-4.6829,-4.6931,-4.7106,-4.7207,-4.7309,-4.7309,-4.7309,-4.7309,-4.7309,-4.7309,-4.7309,-4.7309,-4.7309,-4.7309,-4.7309,-4.7309,-4.7309,-4.7309,-4.7309,-4.7309,-4.7309,-4.7309,-4.7309,-4.7309,-4.7309,-4.7309,-4.7309,-4.7309,-4.7309,-4.7309,-4.7309,-4.7309,-4.7309,-4.7309,-4.7309,-4.7553,-4.7752,-4.7907,-4.8164,-4.889,-4.9505,-4.9941,-5.0649,-5.174,-5.223,-5.1926,-5.1819,-5.1741,-5.1556,-3.3418,-3.3418,-3.3418,-3.3418,-3.3418,-3.3418,-3.3418,-3.3418,-3.3418,-3.3418,-3.3418,-3.3418,-3.3418,-3.3418,-3.3418,-3.3418,-3.3418,-3.3418,-3.3398,-3.331,-3.3203,-3.3181,-3.328,-3.3482,-3.3649,-3.4206,-3.4812,-3.551,-3.6359,-3.6949,-3.7552,-3.8297,-3.8856,-3.9279,-3.9462,-3.9609,-3.9703,-3.9694,-3.9697,-3.9697,-3.9697,-3.9697,-3.9697,-3.9697,-3.9697,-3.9788,-3.9929,-4.0032,-4.0275,-4.058,-4.0946,-4.1398,-4.1908,-4.2498,-4.3094,-4.3738,-4.4436,-4.4997,-4.5391,-4.5146,-4.489,-4.5473,-4.597,-4.6373,-4.6403,-4.68,-4.696,-4.7106,-4.7222,-4.7309,-4.7309,-4.7309,-4.7309,-4.7309,-4.7309,-4.7309,-4.7309,-4.7309,-4.7309,-4.7309,-4.7309,-4.7309,-4.7309,-4.7309,-4.7309,-4.7309,-4.7309,-4.7309,-4.7309,-4.7309,-4.7309,-4.7309,-4.7309,-4.7309,-4.7309,-4.7309,-4.7309,-4.7309,-4.7309,-4.7309,-4.7309,-4.7467,-4.7666,-4.7837,-4.801,-4.8514,-4.9008,-4.9405,-5.0125,-5.1133,-5.141,-5.1258,-5.1286,-5.1312,-5.1249,-3.3418,-3.3418,-3.3418,-3.3418,-3.3418,-3.3418,-3.3418,-3.3418,-3.3418,-3.3418,-3.3418,-3.3418,-3.3418,-3.3418,-3.3418,-3.3418,-3.3369,-3.3291,-3.3242,-3.3129,-3.2946,-3.2883,-3.3041,-3.3286,-3.3647,-3.408,-3.463,-3.5367,-3.6117,-3.6827,-3.7294,-3.7778,-3.8389,-3.898,-3.9267,-3.9611,-3.9697,-3.9697,-3.9697,-3.9697,-3.9697,-3.9697,-3.9697,-3.9749,-3.98,-3.989,-4.0134,-4.0287,-4.0643,-4.0946,-4.1298,-4.1858,-4.24,-4.2997,-4.3691,-4.4512,-4.5327,-4.6044,-4.6401,-4.6224,-4.5734,-4.6059,-4.6403,-4.6712,-4.6887,-4.6975,-4.7164,-4.7251,-4.7309,-4.7309,-4.7309,-4.7309,-4.7309,-4.7309,-4.7309,-4.7309,-4.7309,-4.7309,-4.7309,-4.7309,-4.7309,-4.7309,-4.7309,-4.7309,-4.7309,-4.7309,-4.7309,-4.7309,-4.7309,-4.7309,-4.7309,-4.7309,-4.7309,-4.7309,-4.7309,-4.7309,-4.7309,-4.7309,-4.7309,-4.7309,-4.7352,-4.7467,-4.7581,-4.7666,-4.7885,-4.8137,-4.8389,-4.866,-4.9493,-5.0482,-5.0502,-5.0441,-5.044,-5.0513,-5.0767,-3.3418,-3.3418,-3.3418,-3.3418,-3.3418,-3.3418,-3.3418,-3.3418,-3.3418,-3.3418,-3.3418,-3.3418,-3.3418,-3.3398,-3.3369,-3.331,-3.3232,-3.2978,-3.2812,-3.2829,-3.2678,-3.2612,-3.2835,-3.3174,-3.3585,-3.3994,-3.4503,-3.5109,-3.5768,-3.6504,-3.6886,-3.7542,-3.8367,-3.8936,-3.8942,-3.9399,-3.9697,-3.9697,-3.9697,-3.9697,-3.9697,-3.9749,-3.98,-3.9788,-3.9993,-4.0134,-4.0275,-4.0643,-4.0946,-4.1248,-4.1647,-4.219,-4.2873,-4.3485,-4.4232,-4.525,-4.6138,-4.6919,-4.7637,-4.7328,-4.703,-4.6712,-4.6904,-4.6931,-4.6975,-4.7121,-4.7266,-4.7309,-4.7309,-4.7309,-4.7309,-4.7309,-4.7309,-4.7309,-4.7309,-4.7309,-4.7309,-4.7309,-4.7309,-4.7309,-4.7309,-4.7309,-4.7309,-4.7309,-4.7309,-4.7309,-4.7309,-4.7309,-4.7309,-4.7309,-4.7309,-4.7309,-4.7309,-4.7309,-4.7309,-4.7309,-4.7309,-4.7309,-4.7309,-4.7309,-4.7309,-4.7352,-4.7467,-4.7553,-4.7641,-4.7817,-4.78,-4.7855,-4.8613,-4.9279,-4.9554,-4.9614,-4.9644,-4.9778,-5.0092,-3.3418,-3.3418,-3.3418,-3.3418,-3.3418,-3.3418,-3.3418,-3.3418,-3.3418,-3.3408,-3.3418,-3.3418,-3.3418,-3.3359,-3.3125,-3.2998,-3.293,-3.2588,-3.2434,-3.2609,-3.2395,-3.2535,-3.2731,-3.3028,-3.3455,-3.4004,-3.4458,-3.5167,-3.6122,-3.6584,-3.7143,-3.7773,-3.8579,-3.9166,-3.9387,-3.9645,-3.9697,-3.9697,-3.9697,-3.9697,-3.9749,-3.989,-3.9981,-3.9981,-4.0249,-4.044,-4.063,-4.0997,-4.1348,-4.1696,-4.2092,-4.2763,-4.3437,-4.4073,-4.5104,-4.6168,-4.7171,-4.8348,-4.8796,-4.8676,-4.8072,-4.7614,-4.7198,-4.7135,-4.7207,-4.7207,-4.7294,-4.7309,-4.7309,-4.7309,-4.7309,-4.7309,-4.7309,-4.7309,-4.7309,-4.7309,-4.7309,-4.7309,-4.7309,-4.7309,-4.7309,-4.7309,-4.7309,-4.7309,-4.7309,-4.7309,-4.7309,-4.7309,-4.7309,-4.7309,-4.7309,-4.7309,-4.7309,-4.7309,-4.7309,-4.7309,-4.7309,-4.7309,-4.7309,-4.7309,-4.7309,-4.7309,-4.7352,-4.7439,-4.7439,-4.7439,-4.751,-4.7583,-4.7632,-4.7995,-4.852,-4.897,-4.9105,-4.9269,-4.9494,-3.3418,-3.3418,-3.3418,-3.3418,-3.3418,-3.3418,-3.3359,-3.3232,-3.3193,-3.3135,-3.2998,-3.2978,-3.2969,-3.2881,-3.2734,-3.2578,-3.2529,-3.233,-3.2175,-3.2336,-3.2254,-3.2436,-3.268,-3.2997,-3.3547,-3.4132,-3.4736,-3.5345,-3.6269,-3.6874,-3.7601,-3.8409,-3.8998,-3.9374,-3.9581,-3.9697,-3.9697,-3.9697,-3.9697,-3.98,-3.9878,-3.9968,-4.0121,-4.0287,-4.0555,-4.0858,-4.1097,-4.1448,-4.1858,-4.2239,-4.2714,-4.3389,-4.4018,-4.4936,-4.5983,-4.7077,-4.8497,-4.9445,-4.9628,-4.9325,-4.8625,-4.8045,-4.7581,-4.7354,-4.7309,-4.7309,-4.7309,-4.7309,-4.7309,-4.7309,-4.7309,-4.7309,-4.7309,-4.7309,-4.7309,-4.7309,-4.7309,-4.7309,-4.7309,-4.7309,-4.7309,-4.7309,-4.7309,-4.7309,-4.7309,-4.7309,-4.7309,-4.7309,-4.7309,-4.7309,-4.7309,-4.7309,-4.7309,-4.7309,-4.7309,-4.7309,-4.7309,-4.7309,-4.7309,-4.7309,-4.7309,-4.7309,-4.7309,-4.7309,-4.7352,-4.7352,-4.7352,-4.7354,-4.7472,-4.7607,-4.7893,-4.8282,-4.8566,-4.879,-4.8955,-3.3418,-3.3408,-3.3408,-3.3359,-3.3359,-3.3281,-3.3096,-3.2773,-3.2783,-3.2568,-3.2217,-3.2285,-3.2334,-3.2297,-3.2238,-3.2209,-3.2232,-3.2048,-3.2137,-3.2174,-3.2302,-3.2543,-3.2893,-3.325,-3.3896,-3.4568,-3.5179,-3.5829,-3.644,-3.7453,-3.8409,-3.8998,-3.9258,-3.953,-3.9645,-3.9697,-3.9697,-3.9697,-3.9697,-3.9839,-3.9981,-4.0121,-4.0326,-4.0593,-4.101,-4.1261,-4.161,-4.2007,-4.2484,-4.2922,-4.3389,-4.3865,-4.4579,-4.5505,-4.662,-4.7948,-4.9646,-4.9851,-4.9784,-4.9373,-4.891,-4.8237,-4.7625,-4.7414,-4.7309,-4.7309,-4.7309,-4.7309,-4.7309,-4.7309,-4.7309,-4.7309,-4.7309,-4.7309,-4.7309,-4.7309,-4.7309,-4.7309,-4.7309,-4.7309,-4.7309,-4.7309,-4.7309,-4.7309,-4.7309,-4.7309,-4.7309,-4.7309,-4.7309,-4.7309,-4.7309,-4.7309,-4.7309,-4.7309,-4.7309,-4.7309,-4.7309,-4.7309,-4.7309,-4.7309,-4.7309,-4.7309,-4.7309,-4.7309,-4.7309,-4.7309,-4.7309,-4.7309,-4.7324,-4.7489,-4.7638,-4.7683,-4.7967,-4.8117,-4.8282,-3.3252,-3.2978,-3.2978,-3.2812,-3.2549,-3.2529,-3.2451,-3.2415,-3.2353,-3.2256,-3.2229,-3.2229,-3.2131,-3.2209,-3.2096,-3.2097,-3.2009,-3.2006,-3.2213,-3.236,-3.2617,-3.3069,-3.3568,-3.4019,-3.4624,-3.5279,-3.5884,-3.644,-3.7262,-3.8169,-3.8736,-3.9206,-3.9478,-3.9633,-3.9697,-3.9697,-3.9697,-3.9749,-3.9749,-3.989,-4.0134,-4.0338,-4.0593,-4.106,-4.1448,-4.1759,-4.2155,-4.2595,-4.3018,-4.3423,-4.3926,-4.4397,-4.4936,-4.6002,-4.716,-4.8406,-4.9186,-4.9368,-4.9388,-4.894,-4.8461,-4.8192,-4.7653,-4.7399,-4.7309,-4.7309,-4.7309,-4.7309,-4.7309,-4.7309,-4.7309,-4.7309,-4.7309,-4.7309,-4.7309,-4.7309,-4.7309,-4.7309,-4.7309,-4.7309,-4.7309,-4.7309,-4.7309,-4.7309,-4.7309,-4.7309,-4.7309,-4.7309,-4.7309,-4.7309,-4.7309,-4.7309,-4.7309,-4.7309,-4.7309,-4.7309,-4.7309,-4.7309,-4.7309,-4.7309,-4.7309,-4.7309,-4.7309,-4.7309,-4.7309,-4.7309,-4.7309,-4.7309,-4.7309,-4.7309,-4.7414,-4.7354,-4.7369,-4.7608,-4.7728,-3.2783,-3.2568,-3.2549,-3.2295,-3.1953,-3.1914,-3.1836,-3.1719,-3.1836,-3.1846,-3.1739,-3.181,-3.183,-3.182,-3.1889,-3.1897,-3.1936,-3.221,-3.2393,-3.2623,-3.3094,-3.3614,-3.4199,-3.4747,-3.5279,-3.5938,-3.6483,-3.6982,-3.7797,-3.8591,-3.9166,-3.9478,-3.9633,-3.9697,-3.9697,-3.9697,-3.98,-3.9839,-3.989,-4.0044,-4.03,-4.0593,-4.106,-4.1461,-4.1895,-4.2338,-4.2693,-4.3128,-4.3642,-4.3993,-4.4504,-4.5014,-4.5605,-4.6567,-4.7574,-4.8727,-4.9072,-4.9059,-4.8865,-4.8596,-4.8207,-4.7893,-4.7549,-4.7384,-4.7309,-4.7309,-4.7309,-4.7309,-4.7309,-4.7309,-4.7309,-4.7309,-4.7309,-4.7309,-4.7309,-4.7309,-4.7309,-4.7309,-4.7309,-4.7309,-4.7309,-4.7309,-4.7309,-4.7309,-4.7309,-4.7309,-4.7309,-4.7309,-4.7309,-4.7309,-4.7309,-4.7309,-4.7309,-4.7309,-4.7309,-4.7309,-4.7309,-4.7309,-4.7309,-4.7309,-4.7309,-4.7309,-4.7309,-4.7309,-4.7309,-4.7309,-4.7309,-4.7309,-4.7309,-4.7309,-4.7309,-4.7309,-4.7309,-4.7369,-4.7444,-3.2219,-3.2109,-3.2141,-3.1826,-3.1494,-3.1465,-3.1269,-3.0957,-3.1377,-3.1329,-3.1103,-3.1248,-3.1434,-3.1639,-3.184,-3.1984,-3.2235,-3.2602,-3.298,-3.2913,-3.3727,-3.4356,-3.4847,-3.5224,-3.5884,-3.6429,-3.697,-3.756,-3.8198,-3.8841,-3.9374,-3.9697,-3.9697,-3.9697,-3.9697,-3.9788,-3.9878,-4.0032,-4.0185,-4.0338,-4.0643,-4.101,-4.1461,-4.1895,-4.2435,-4.297,-4.3273,-4.3798,-4.4472,-4.4723,-4.5046,-4.5609,-4.6295,-4.6903,-4.7925,-4.8387,-4.8671,-4.8566,-4.8327,-4.8087,-4.7848,-4.7563,-4.7309,-4.7309,-4.7309,-4.7309,-4.7309,-4.7309,-4.7309,-4.7309,-4.7309,-4.7309,-4.7309,-4.7309,-4.7309,-4.7309,-4.7309,-4.7309,-4.7309,-4.7309,-4.7309,-4.7309,-4.7309,-4.7309,-4.7309,-4.7309,-4.7309,-4.7309,-4.7309,-4.7309,-4.7309,-4.7309,-4.7309,-4.7309,-4.7309,-4.7309,-4.7309,-4.7309,-4.7309,-4.7309,-4.7309,-4.7309,-4.7309,-4.7309,-4.7309,-4.7309,-4.7309,-4.7309,-4.7309,-4.7309,-4.7309,-4.7309,-4.7309,-4.7309,-4.7309,-3.1973,-3.165,-3.1328,-3.1133,-3.1045,-3.1045,-3.0996,-3.0957,-3.12,-3.1327,-3.1228,-3.1325,-3.1498,-3.1787,-3.2238,-3.2467,-3.2685,-3.3264,-3.3794,-3.4065,-3.459,-3.5191,-3.573,-3.6048,-3.6549,-3.7143,-3.772,-3.8185,-3.8776,-3.9206,-3.9426,-3.9697,-3.9697,-3.9697,-3.9697,-3.9839,-4.0032,-4.0185,-4.0542,-4.0795,-4.1161,-4.1311,-4.161,-4.2338,-4.3018,-4.3485,-4.3879,-4.4425,-4.5014,-4.5458,-4.564,-4.6105,-4.6653,-4.7007,-4.7287,-4.7627,-4.7879,-4.7833,-4.7743,-4.7653,-4.7519,-4.7444,-4.7309,-4.7309,-4.7309,-4.7309,-4.7309,-4.7309,-4.7309,-4.7309,-4.7309,-4.7309,-4.7309,-4.7309,-4.7309,-4.7309,-4.7309,-4.7309,-4.7309,-4.7309,-4.7309,-4.7309,-4.7309,-4.7309,-4.7309,-4.7309,-4.7309,-4.7309,-4.7309,-4.7309,-4.7309,-4.7309,-4.7309,-4.7309,-4.7309,-4.7309,-4.7309,-4.7309,-4.7309,-4.7309,-4.7309,-4.7309,-4.7309,-4.7309,-4.7309,-4.7309,-4.7309,-4.7309,-4.7309,-4.7309,-4.7309,-4.7309,-4.7309,-4.7309,-4.7309,-3.1465,-3.1211,-3.0986,-3.0898,-3.0898,-3.0898,-3.0947,-3.1112,-3.1218,-3.1508,-3.173,-3.1787,-3.1903,-3.2248,-3.2706,-3.3161,-3.3378,-3.3952,-3.4457,-3.4847,-3.5412,-3.5895,-3.6386,-3.6862,-3.7239,-3.7838,-3.8356,-3.8881,-3.9258,-3.9465,-3.9581,-3.9697,-3.9697,-3.9697,-3.9749,-3.9929,-4.0185,-4.0287,-4.0846,-4.1311,-4.171,-4.1908,-4.2105,-4.2825,-4.3451,-4.3926,-4.4397,-4.4876,-4.5473,-4.5911,-4.6135,-4.6447,-4.6844,-4.7048,-4.7179,-4.7311,-4.7384,-4.7309,-4.7309,-4.7309,-4.7309,-4.7309,-4.7309,-4.7309,-4.7309,-4.7309,-4.7309,-4.7309,-4.7309,-4.7309,-4.7309,-4.7309,-4.7309,-4.7309,-4.7309,-4.7309,-4.7309,-4.7309,-4.7309,-4.7309,-4.7309,-4.7309,-4.7309,-4.7309,-4.7309,-4.7309,-4.7309,-4.7309,-4.7309,-4.7309,-4.7309,-4.7309,-4.7309,-4.7309,-4.7309,-4.7309,-4.7309,-4.7309,-4.7309,-4.7309,-4.7309,-4.7309,-4.7309,-4.7309,-4.7309,-4.7309,-4.7309,-4.7309,-4.7309,-4.7309,-4.7309,-4.7309,-4.7309,-4.7309,-4.7309,-3.0918,-3.0898,-3.0898,-3.0898,-3.0889,-3.0947,-3.1112,-3.1267,-3.1383,-3.1787,-3.2305,-3.242,-3.2581,-3.282,-3.3229,-3.3749,-3.4255,-3.4747,-3.5179,-3.5554,-3.6102,-3.6592,-3.7078,-3.756,-3.7933,-3.8368,-3.8893,-3.9154,-3.9374,-3.953,-3.9633,-3.9697,-3.9697,-3.9685,-3.9826,-4.0032,-4.0287,-4.0694,-4.1211,-4.1759,-4.2217,-4.2609,-4.2803,-4.3273,-4.3893,-4.4472,-4.483,-4.5276,-4.5895,-4.6239,-4.658,-4.6844,-4.6975,-4.7149,-4.7207,-4.7309,-4.7309,-4.7309,-4.7309,-4.7309,-4.7309,-4.7309,-4.7309,-4.7309,-4.7309,-4.7309,-4.7309,-4.7309,-4.7309,-4.7309,-4.7309,-4.7309,-4.7309,-4.7309,-4.7309,-4.7309,-4.7309,-4.7309,-4.7309,-4.7309,-4.7309,-4.7309,-4.7309,-4.7309,-4.7309,-4.7309,-4.7309,-4.7309,-4.7309,-4.7309,-4.7309,-4.7309,-4.7309,-4.7309,-4.7309,-4.7309,-4.7309,-4.7309,-4.7309,-4.7309,-4.7309,-4.7309,-4.7309,-4.7309,-4.7309,-4.7309,-4.7309,-4.7309,-4.7309,-4.7309,-4.7309,-4.7309,-4.7309,-4.7309,-4.7309,-3.0898,-3.0898,-3.0898,-3.0898,-3.0947,-3.1102,-3.1267,-3.1383,-3.1913,-3.2305,-3.2696,-3.3172,-3.3399,-3.3455,-3.4019,-3.4524,-3.4924,-3.5522,-3.584,-3.6211,-3.6754,-3.7227,-3.7655,-3.8092,-3.8461,-3.8893,-3.9206,-3.9362,-3.953,-3.9645,-3.9697,-3.9749,-3.9749,-3.9839,-4.0083,-4.0338,-4.0643,-4.106,-4.1547,-4.2092,-4.2631,-4.3032,-4.3417,-4.394,-4.4504,-4.506,-4.5549,-4.5911,-4.6299,-4.6697,-4.6975,-4.7164,-4.7207,-4.7251,-4.7309,-4.7309,-4.7309,-4.7309,-4.7309,-4.7309,-4.7309,-4.7309,-4.7309,-4.7309,-4.7309,-4.7309,-4.7309,-4.7309,-4.7309,-4.7309,-4.7309,-4.7309,-4.7309,-4.7309,-4.7309,-4.7309,-4.7309,-4.7309,-4.7309,-4.7309,-4.7309,-4.7309,-4.7309,-4.7309,-4.7309,-4.7309,-4.7309,-4.7309,-4.7309,-4.7309,-4.7309,-4.7309,-4.7309,-4.7309,-4.7309,-4.7309,-4.7309,-4.7309,-4.7309,-4.7309,-4.7309,-4.7309,-4.7309,-4.7309,-4.7309,-4.7309,-4.7309,-4.7309,-4.7309,-4.7309,-4.7309,-4.7309,-4.7309,-4.7309,-4.7309]}]]